GFSGL_sfc_thetae_000.txt.gz
Theta_e
293 293 292 291 291 290 290 291 291 292 294 294 294 294 293 293 292 291 289 289 289 288 288 288 288 289 289 289 290 290 289 289 286 288 291 293 293 294 296 297 298 298 299
293 292 291 290 289 288 289 290 291 291 292 291 291 291 291 291 290 289 288 288 286 285 286 286 286 288 287 287 287 287 287 287 286 284 287 288 289 292 292 292 294 298 298
292 290 288 288 287 288 288 289 290 290 290 290 290 289 290 290 289 288 287 286 286 286 285 285 285 285 283 284 283 283 284 287 285 284 283 286 288 290 290 291 291 292 296
292 288 287 287 287 287 288 288 289 289 289 289 289 290 289 288 287 286 286 284 283 283 283 283 283 283 282 281 282 282 283 282 283 283 283 284 284 287 287 286 287 289 289
289 289 289 290 290 289 288 289 291 290 289 289 288 287 286 285 286 284 283 281 281 281 282 282 282 283 286 286 284 283 282 281 281 280 280 281 282 282 282 284 283 284 286
294 294 294 293 293 292 292 292 291 289 288 286 284 284 283 285 287 287 285 281 281 281 280 280 281 283 283 284 285 285 284 280 279 279 279 279 279 280 282 283 283 283 283
295 295 294 294 293 292 292 291 287 285 283 282 282 281 281 281 286 286 285 282 281 280 280 279 280 281 282 281 283 284 284 285 283 281 280 280 281 282 282 281 281 282 283
293 293 293 292 290 289 286 285 282 282 281 280 280 281 280 282 285 285 284 281 280 280 280 280 280 280 281 281 281 280 281 281 282 282 282 282 283 284 283 283 282 282 283
286 286 286 286 286 285 283 281 281 280 279 279 280 280 280 280 283 283 282 278 278 279 281 281 281 281 283 284 282 281 281 282 284 285 286 286 286 286 285 283 281 280 278
286 286 287 286 284 283 281 280 280 278 279 279 280 279 280 277 281 282 281 280 278 278 279 280 282 281 283 283 281 280 280 281 282 282 282 284 286 285 286 286 284 280 279
287 286 285 285 283 282 280 279 278 278 277 272 271 274 276 278 277 281 282 279 278 278 278 279 280 282 282 283 283 281 281 282 282 282 282 282 282 282 283 285 285 284 281
285 284 284 283 282 281 279 278 278 277 273 272 268 270 273 273 279 280 281 281 281 279 279 280 281 283 283 284 283 282 283 282 282 281 280 280 281 281 283 284 284 285 285
283 282 282 281 280 279 278 277 276 275 271 271 274 271 274 276 276 280 280 280 282 281 281 281 282 281 281 281 282 282 281 281 280 279 279 279 281 282 283 283 281 283 283
281 281 281 279 279 278 278 277 276 271 270 275 273 274 275 275 276 277 279 280 281 281 279 278 277 278 277 276 277 279 279 280 280 280 279 280 281 281 281 281 279 282 282
281 281 280 279 277 277 277 277 276 275 274 273 272 276 274 273 276 280 280 280 281 280 278 275 275 274 274 275 276 276 278 279 279 280 280 279 279 279 280 280 282 282 281
280 279 276 275 274 276 276 276 280 280 280 280 280 278 276 278 280 280 280 281 281 280 277 273 272 273 273 274 273 274 276 277 279 275 273 276 276 278 279 280 281 281 279
276 278 276 276 274 273 272 273 268 273 278 278 279 278 278 279 279 279 279 279 279 278 276 274 273 273 272 273 273 274 274 276 278 278 280 280 280 278 282 280 280 279 277
272 273 273 274 272 273 266 267 267 265 264 267 274 277 277 278 277 277 277 276 273 274 274 273 273 273 274 273 273 272 273 274 274 276 276 278 278 277 275 277 276 275 274
278 273 269 271 271 268 267 266 265 264 265 265 267 274 274 276 276 275 274 271 271 271 272 272 272 272 272 273 272 271 270 272 272 273 273 274 275 271 273 273 273 272 271
277 275 273 273 271 270 270 266 267 265 265 265 266 271 272 272 270 270 270 269 269 270 269 270 270 271 270 271 271 272 271 271 271 271 272 272 273 272 273 274 272 270 271
273 276 277 276 270 272 267 266 266 264 263 264 269 270 272 271 270 269 269 269 268 268 268 268 268 268 269 269 270 270 272 271 271 270 270 270 271 271 271 270 269 270 272
271 275 275 269 270 266 266 268 264 264 262 265 269 269 271 270 270 269 269 268 269 268 268 267 267 267 268 268 269 268 269 271 271 268 267 267 267 267 268 269 268 266 267
269 270 270 271 268 265 264 265 263 262 264 265 267 268 268 268 268 269 269 268 268 267 267 266 265 266 267 267 268 269 269 270 272 268 266 266 267 266 266 267 266 268 268
273 270 271 269 263 264 264 263 264 266 267 265 264 266 266 266 267 268 269 269 268 267 266 265 265 264 265 266 267 268 269 269 269 268 267 266 267 266 266 267 267 268 268
276 276 272 266 264 265 264 262 262 265 267 265 264 266 268 266 268 268 268 268 267 265 264 264 264 264 263 264 265 265 266 266 265 266 267 265 263 264 263 265 264 268 270
278 277 273 265 266 266 265 263 261 265 266 264 264 264 267 268 267 267 267 267 266 266 264 264 264 263 263 265 265 265 264 264 265 264 264 265 263 262 261 261 261 261 260

GFSGL_sfc_thetae_003.txt.gz
Theta_e
292 292 292 293 290 289 289 289 290 293 294 293 292 294 294 293 293 292 290 289 289 288 287 287 287 287 286 286 287 288 288 288 284 286 288 290 290 291 292 294 296 295 298
293 292 293 291 289 287 288 289 290 291 292 291 291 291 291 290 290 288 287 287 286 285 285 285 285 287 285 285 285 285 286 286 285 283 284 286 287 290 291 290 293 295 294
292 292 290 287 286 286 288 290 290 290 290 290 289 288 289 289 288 287 286 285 285 285 284 284 284 284 283 283 283 282 283 285 283 282 282 285 286 287 287 289 289 290 292
291 288 285 285 285 286 287 289 290 291 289 289 289 289 288 287 286 285 284 282 281 282 282 282 281 281 281 281 281 281 282 281 281 281 281 282 283 285 284 284 285 286 287
291 288 288 290 290 288 291 292 291 291 291 289 288 286 285 285 285 283 282 282 281 281 281 281 281 282 285 284 283 282 281 281 281 280 279 279 280 280 281 283 282 283 285
291 292 294 294 293 293 293 292 291 292 291 287 284 283 283 284 287 286 285 281 281 280 279 280 280 282 282 283 283 284 283 280 279 278 278 277 278 278 279 279 280 280 280
291 293 294 293 293 292 292 292 291 286 284 283 282 282 282 282 286 286 285 281 280 280 279 279 280 281 282 281 282 283 283 284 282 281 279 279 279 280 282 281 280 280 281
290 287 288 289 288 286 285 284 282 282 281 280 281 281 281 282 284 284 284 280 278 279 279 280 279 280 280 281 280 280 281 281 281 281 280 281 281 282 282 282 281 281 282
286 286 287 286 284 283 282 281 281 279 279 280 281 280 279 279 282 282 281 275 276 277 279 280 279 279 281 283 280 279 280 281 284 285 285 284 285 285 285 282 281 280 278
287 286 285 284 283 281 280 279 279 279 279 280 279 279 279 276 280 281 280 278 277 278 278 279 281 280 282 282 280 279 278 279 280 281 282 283 285 284 285 284 283 280 279
285 285 284 284 283 281 279 279 278 278 277 273 271 273 275 277 276 281 281 279 277 277 278 278 280 282 282 282 283 281 281 281 280 280 281 282 282 281 282 284 284 283 281
284 283 282 282 281 280 278 278 277 276 274 272 268 270 273 272 278 279 280 281 280 278 278 280 280 281 281 281 281 282 282 282 281 280 280 280 280 281 282 283 284 284 285
282 281 281 281 280 279 277 277 276 275 272 271 274 272 274 275 275 278 279 280 281 280 281 280 280 279 279 278 279 280 278 279 280 278 279 279 281 282 283 282 283 284 284
281 281 280 279 278 277 277 277 276 272 271 275 273 273 274 273 274 275 278 279 280 281 279 278 276 277 275 275 276 277 277 278 278 278 279 279 281 280 281 282 281 281 281
281 281 279 278 277 277 277 277 276 275 273 273 271 274 273 272 274 279 279 279 280 279 277 275 274 273 272 273 274 274 275 276 276 278 278 279 279 279 279 279 280 279 280
280 280 276 274 274 276 275 276 279 279 279 279 279 276 276 278 279 279 279 280 280 278 276 273 271 271 270 272 271 271 273 274 275 276 275 276 276 277 276 277 281 280 279
275 277 275 274 275 274 272 271 267 271 277 277 277 277 277 278 278 278 278 278 278 276 273 272 271 269 271 272 272 271 271 273 274 275 275 278 279 277 278 278 280 280 278
271 271 269 269 269 271 267 267 263 264 263 267 273 275 276 277 277 276 275 274 272 272 272 271 270 270 270 271 271 271 270 270 271 272 273 274 274 275 276 277 278 276 274
279 274 267 268 267 267 268 264 263 263 264 265 266 270 273 275 275 274 273 269 268 269 269 270 269 269 269 269 269 270 267 268 267 268 269 270 270 273 273 272 273 272 274
278 274 270 273 268 268 266 264 266 264 263 264 263 267 271 271 269 269 269 268 267 268 268 268 268 269 268 268 268 268 270 269 269 269 268 268 268 268 267 273 270 269 270
273 273 276 273 269 268 265 264 264 262 262 263 263 266 271 269 268 268 268 267 267 267 266 266 267 267 267 268 268 267 268 269 269 267 266 267 265 265 268 267 265 267 268
269 272 274 268 267 264 264 264 262 262 264 264 264 266 269 267 268 268 268 267 267 267 267 266 265 266 266 267 267 267 267 268 269 266 264 264 265 264 265 264 265 265 266
269 268 268 269 266 263 262 263 261 261 264 262 263 265 266 265 266 268 268 268 267 266 266 265 264 264 265 266 267 267 266 267 267 267 262 263 264 264 261 263 264 265 265
271 270 272 267 261 262 260 259 259 262 266 262 261 262 265 264 265 266 267 266 266 265 265 264 264 264 264 264 265 265 266 267 266 265 262 262 263 263 263 264 264 265 266
275 276 274 264 262 261 259 259 259 259 262 261 261 262 266 265 266 266 266 266 266 265 265 264 264 264 263 263 263 263 263 263 263 263 264 262 261 261 260 260 257 262 263
277 277 274 265 265 262 258 258 258 258 262 261 262 262 263 265 265 265 266 265 264 264 264 264 264 263 263 264 264 264 262 262 263 262 262 263 261 260 259 259 258 258 257

GFSGL_sfc_thetae_006.txt.gz
Theta_e
292 292 292 294 293 291 288 288 289 291 292 291 292 292 292 293 293 292 291 290 289 289 288 287 286 287 286 286 286 286 286 286 284 286 287 289 290 291 292 293 295 295 296
293 292 292 290 288 287 287 288 289 289 289 289 290 290 290 289 289 288 287 287 286 285 284 284 284 286 285 285 285 284 285 285 284 283 285 286 287 290 291 291 292 294 293
293 291 288 286 284 285 286 288 289 289 290 290 290 290 290 289 288 287 285 284 284 283 283 283 283 283 282 282 282 282 283 284 283 283 282 284 286 287 288 289 289 291 291
292 289 287 286 285 286 289 289 290 290 291 291 291 289 288 286 286 285 285 283 282 282 282 281 281 281 280 280 281 281 281 281 281 281 281 282 283 285 285 284 284 287 287
291 291 289 292 291 290 290 290 291 291 291 292 291 287 285 285 285 283 282 282 281 280 281 281 281 282 284 283 282 281 280 280 281 281 280 280 280 280 281 282 282 283 285
291 291 293 294 294 292 292 291 291 291 291 291 287 282 282 283 287 286 285 282 282 281 279 280 280 282 282 283 283 283 283 280 279 279 279 278 279 279 280 279 280 279 278
291 289 289 290 291 290 291 290 288 285 283 281 281 281 282 282 285 285 285 282 281 280 279 279 280 281 281 281 282 282 282 283 281 281 280 280 279 281 281 280 280 280 279
286 287 288 287 285 284 283 282 281 281 280 280 280 281 280 280 283 283 282 280 278 278 279 279 279 279 280 281 281 280 281 281 281 281 280 281 282 282 282 282 281 282 282
286 286 286 284 282 282 281 280 280 279 279 279 281 279 278 278 281 282 281 277 276 276 279 279 279 279 281 282 280 279 279 280 283 284 284 284 284 284 284 282 280 279 278
284 283 283 282 281 279 278 278 279 278 279 279 278 278 278 276 279 281 280 277 276 277 278 280 280 280 282 282 280 279 278 280 281 281 281 282 284 284 285 284 282 279 279
283 282 282 281 280 279 278 278 277 277 277 273 271 273 275 276 276 280 281 279 278 278 278 278 279 281 281 281 281 279 279 281 281 282 281 281 282 282 283 284 284 283 280
282 281 280 280 280 279 277 277 277 275 273 271 268 270 273 272 278 278 280 280 280 279 278 279 280 280 280 280 279 279 280 280 279 280 279 279 280 281 282 283 283 283 284
281 280 280 280 279 279 277 276 276 274 271 271 274 273 274 275 274 277 278 280 280 279 280 281 280 279 278 277 278 278 278 277 277 278 278 279 280 282 283 283 283 283 284
281 280 280 279 278 277 277 277 276 272 271 274 272 272 273 273 273 275 278 278 279 280 279 278 277 277 274 274 275 276 276 276 276 277 278 280 281 281 281 282 281 281 281
281 281 279 278 277 277 277 276 276 275 272 274 271 271 272 272 274 279 278 278 279 278 278 276 274 273 272 273 273 273 274 275 275 276 277 278 279 279 279 281 282 281 280
280 279 275 274 274 276 275 275 279 278 279 278 278 275 275 277 278 279 278 279 278 277 275 272 271 270 270 271 271 271 272 272 273 274 275 277 277 277 278 278 280 280 279
274 275 273 274 272 271 271 271 267 271 276 277 277 276 277 277 277 277 277 276 276 274 272 271 270 270 269 270 271 271 270 271 272 273 273 274 275 278 277 277 278 280 280
271 271 271 270 268 268 264 266 264 263 262 266 271 274 275 276 276 276 275 273 270 271 270 270 269 269 270 269 269 269 270 270 270 270 271 272 272 274 274 275 276 276 276
278 273 267 265 265 265 264 264 262 262 262 265 268 269 269 274 274 273 272 268 268 268 268 269 269 269 269 269 268 268 268 269 269 267 269 269 269 272 275 272 272 270 272
277 273 269 269 267 267 265 264 265 264 265 267 265 265 269 269 268 267 268 267 267 267 267 267 268 268 268 268 268 268 268 269 269 268 266 266 267 268 269 270 269 269 270
271 272 271 270 268 266 264 263 262 264 265 267 263 263 269 268 266 267 267 266 266 266 266 266 266 266 267 267 267 266 267 268 269 268 266 266 264 266 268 268 268 269 270
273 269 269 267 267 263 263 263 261 262 265 264 264 265 268 266 266 267 267 266 266 266 266 266 264 265 266 266 266 265 265 266 266 267 266 265 265 265 265 266 266 267 268
275 270 267 268 264 262 260 261 258 257 261 260 262 264 265 265 265 266 266 265 266 266 265 265 264 264 265 264 264 265 265 264 264 263 264 263 265 264 264 266 266 267 267
270 270 272 266 260 261 257 257 256 258 261 260 259 260 263 264 265 265 265 264 265 265 265 264 264 264 264 264 263 264 264 264 263 263 260 261 263 263 263 264 265 265 265
275 276 269 264 261 261 259 257 255 254 256 258 258 260 263 263 266 266 265 265 265 264 265 264 264 264 264 263 263 262 261 261 262 261 263 261 260 260 260 261 260 263 262
277 277 274 267 262 262 262 260 257 255 256 258 257 259 261 262 264 264 266 267 266 265 265 264 264 263 263 265 264 263 260 260 261 260 260 263 261 260 259 260 260 261 261

GFSGL_sfc_thetae_009.txt.gz
Theta_e
299 299 299 298 295 293 294 295 295 298 297 295 295 295 294 293 294 295 294 294 293 293 293 292 290 291 290 290 291 291 289 289 286 288 291 293 293 293 294 296 297 297 298
298 299 297 294 292 292 293 294 295 295 295 294 294 294 293 293 294 292 291 291 290 289 289 289 289 289 289 290 289 289 289 290 288 286 289 290 291 293 294 294 294 295 297
298 297 294 293 292 294 295 295 296 296 295 296 294 293 293 292 291 290 289 289 289 289 288 288 287 287 286 287 287 286 286 287 287 286 285 288 289 290 290 291 292 293 294
297 296 294 294 294 295 295 295 295 295 294 293 292 293 292 291 289 289 289 288 288 287 287 286 286 285 285 285 284 285 285 285 285 284 284 285 286 288 288 287 288 290 290
296 296 295 296 296 294 293 294 294 294 294 294 293 292 288 287 287 288 288 287 287 286 286 286 285 285 284 284 284 284 284 284 283 282 282 283 283 283 283 286 286 287 289
295 292 291 292 293 292 293 293 293 291 289 287 287 286 286 286 286 287 286 286 285 284 283 284 284 283 284 283 283 283 284 282 281 281 281 281 282 283 284 283 284 283 282
291 291 291 292 290 289 288 288 287 287 287 286 286 286 285 285 283 284 283 284 283 283 282 282 282 282 283 283 283 282 282 282 282 282 280 281 281 283 283 282 283 283 283
290 291 291 289 287 287 287 286 285 285 285 284 285 284 283 283 282 282 282 283 283 282 282 282 282 282 283 282 281 282 282 283 283 283 283 282 284 284 284 284 283 284 285
290 289 288 287 286 286 285 284 284 284 284 284 283 282 282 282 281 281 281 282 281 281 282 282 282 282 282 283 282 281 282 283 284 284 284 285 285 285 285 284 282 282 281
288 287 287 286 285 284 284 283 284 283 283 282 281 282 281 281 280 280 281 281 279 280 281 282 282 282 282 282 282 281 280 281 282 283 284 284 285 286 285 285 285 281 281
287 286 286 285 285 285 283 284 283 282 282 281 280 281 280 280 280 280 280 280 280 280 280 281 283 282 281 281 281 280 280 281 281 281 282 283 284 285 285 286 286 285 283
287 286 285 285 284 283 283 283 282 282 281 280 279 280 280 280 279 279 279 280 280 280 280 281 283 280 279 279 279 279 279 279 280 280 280 281 282 283 284 285 286 286 287
286 285 285 285 284 283 282 282 281 281 280 279 278 278 278 279 279 278 279 280 280 280 281 280 279 279 278 278 277 278 278 279 279 279 280 281 283 284 285 285 286 286 286
285 285 285 284 284 284 283 282 281 281 279 278 278 276 276 277 278 279 279 280 279 281 280 280 278 277 277 277 278 278 278 279 278 278 279 281 283 284 283 284 283 284 283
285 285 284 284 283 282 282 281 281 281 279 278 277 277 275 275 277 278 278 278 279 278 278 278 276 275 276 276 277 277 277 277 277 278 279 281 282 283 282 284 283 283 282
283 283 283 282 282 281 280 280 280 279 279 278 278 277 277 277 278 278 277 277 277 276 276 274 273 273 274 274 275 275 276 276 276 277 278 279 280 281 282 283 283 283 282
282 282 282 280 281 280 279 279 277 278 277 276 276 276 276 276 277 276 276 275 275 275 273 272 272 272 273 274 274 274 274 275 276 276 277 277 279 281 282 282 282 282 282
281 276 281 281 280 279 279 278 277 276 274 275 275 274 274 275 275 275 274 273 271 272 271 271 271 271 272 272 273 273 274 275 275 275 276 276 277 280 280 280 281 281 282
282 282 281 280 280 277 278 278 277 276 275 274 274 274 273 273 273 273 272 270 269 269 270 270 270 271 271 272 272 273 274 274 274 274 275 275 275 277 278 279 279 278 279
282 278 276 280 280 279 278 277 276 276 275 274 273 272 272 272 271 271 271 270 269 269 269 269 270 270 271 271 272 272 273 274 274 274 274 275 275 276 276 277 278 279 278
281 281 275 280 279 278 277 276 276 275 274 273 273 272 270 270 270 270 270 269 269 269 268 269 269 270 270 271 271 272 272 273 273 273 274 275 275 275 276 277 277 277 277
280 279 280 279 279 278 277 276 275 274 274 273 273 272 270 271 270 270 269 269 269 269 269 269 269 269 269 269 269 270 271 271 271 271 273 274 275 275 276 276 276 277 277
279 280 280 279 277 275 277 276 275 274 274 274 273 272 271 271 270 270 270 269 269 269 269 269 268 268 269 269 269 269 269 269 270 270 271 273 274 274 275 275 275 275 274
280 280 279 279 277 276 276 276 275 271 272 274 273 272 271 271 271 270 270 270 269 269 269 268 268 268 268 268 269 269 268 268 269 270 270 271 272 273 274 274 274 273 274
280 280 280 279 278 277 275 276 275 274 274 274 274 273 272 272 271 271 271 270 270 269 269 268 268 268 268 267 267 266 264 264 266 266 271 271 270 270 270 271 271 272 271
280 281 281 280 279 277 276 276 276 275 273 274 274 273 272 271 271 271 271 271 270 270 269 268 268 267 267 268 267 266 264 264 265 264 269 271 270 269 270 269 269 271 270

GFSGL_sfc_thetae_012.txt.gz
Theta_e
306 305 304 302 300 300 300 300 300 300 299 298 298 298 297 295 295 295 295 295 294 293 293 293 292 293 293 293 293 292 291 290 288 290 293 294 295 295 296 297 297 298 298
304 303 301 300 300 299 299 299 300 299 299 298 297 296 295 295 296 293 293 293 292 291 291 291 290 290 291 292 291 291 291 292 290 288 291 291 293 295 295 295 295 296 297
302 301 300 300 299 298 298 298 298 297 297 297 296 294 294 295 295 294 293 292 292 291 291 290 290 290 289 290 290 289 289 289 289 288 288 291 291 292 292 293 294 295 295
300 299 299 298 298 298 297 297 297 296 295 295 295 294 293 292 291 291 291 291 290 290 290 290 289 289 288 288 287 287 287 287 288 287 287 287 289 290 291 289 290 292 292
299 299 297 297 297 296 295 295 295 295 293 292 291 291 291 290 289 289 289 289 289 288 289 288 289 288 286 286 285 285 286 286 286 286 286 287 287 287 287 289 287 289 291
298 296 296 295 295 294 294 293 292 291 291 291 290 290 289 289 284 284 285 286 287 287 287 287 287 287 286 286 284 284 284 284 283 283 283 282 284 285 286 286 285 284 283
296 295 294 294 293 292 291 290 289 290 290 289 289 289 288 288 283 283 282 285 285 286 286 286 285 285 286 285 285 284 284 283 282 283 281 282 283 284 285 284 285 284 284
295 294 294 292 291 290 289 289 289 289 289 288 288 287 287 286 283 282 281 284 285 285 285 285 285 285 285 284 283 282 283 285 285 285 284 284 284 285 285 286 286 286 287
293 292 292 291 290 289 288 288 289 288 288 287 287 286 285 285 283 281 281 283 283 283 283 283 283 283 283 283 283 282 283 284 285 286 286 285 285 285 286 285 284 283 283
293 293 292 291 289 288 288 288 289 288 287 287 285 286 284 284 282 281 281 282 280 281 282 283 283 284 283 283 283 283 281 282 283 284 284 285 286 286 285 286 286 283 282
293 293 292 291 289 289 289 289 288 287 286 284 284 283 284 283 282 281 280 280 280 280 280 282 284 283 281 281 280 281 280 282 281 282 282 283 284 286 286 288 287 286 283
294 293 291 290 289 288 288 288 288 287 284 283 283 283 283 284 281 281 280 280 281 280 280 282 284 280 280 279 279 279 279 280 281 282 283 282 283 284 285 287 287 288 288
291 291 290 289 289 289 288 287 286 285 282 281 280 280 281 282 282 280 280 280 280 280 282 281 280 279 279 279 279 278 279 281 281 280 281 282 285 286 287 287 287 287 288
291 289 290 289 288 289 288 286 284 282 281 280 279 279 279 280 279 279 280 280 280 281 280 282 280 279 279 280 280 280 281 281 280 280 281 283 285 286 285 286 285 286 284
288 288 288 288 287 287 286 285 284 283 281 279 279 279 278 277 277 278 278 278 279 278 279 280 278 277 278 279 279 279 280 280 280 280 281 281 283 285 285 286 285 285 284
286 287 287 287 287 285 285 284 281 279 278 278 277 277 278 277 277 277 277 277 277 277 278 276 275 275 276 277 277 278 278 278 279 280 281 281 281 283 284 284 284 284 284
285 285 286 284 284 283 283 281 280 282 278 277 276 276 276 276 276 276 276 275 275 276 275 274 274 274 275 276 276 276 276 278 279 279 279 280 280 282 284 284 283 284 284
284 282 285 285 284 283 282 281 281 279 279 279 278 276 275 275 275 275 275 275 274 274 273 273 273 274 274 275 275 275 276 277 277 278 278 279 279 280 281 282 283 283 284
284 284 284 284 283 282 281 281 280 279 279 278 278 277 276 275 275 274 274 274 273 272 272 272 273 273 274 275 275 275 276 276 277 277 278 278 278 279 280 280 281 281 281
283 281 282 282 282 281 281 280 279 279 279 278 277 275 275 276 274 274 274 273 273 272 272 272 273 273 273 274 275 275 276 276 276 276 277 278 278 279 279 279 279 279 280
283 283 280 282 281 281 280 279 279 279 278 278 277 276 272 274 273 273 273 272 272 272 272 272 273 273 273 273 274 274 275 275 275 275 276 277 279 277 279 279 279 280 279
283 283 283 281 281 281 280 280 279 279 278 277 278 277 273 275 274 273 273 273 272 272 272 272 272 273 273 272 273 273 273 274 275 275 275 276 277 278 278 278 278 278 278
282 283 282 281 281 280 280 280 279 279 279 278 278 277 276 275 274 273 273 273 273 272 272 272 272 271 272 273 273 273 272 272 273 274 274 276 277 276 277 277 277 277 277
282 282 282 282 282 280 280 279 279 278 278 278 278 277 276 276 275 274 274 274 273 273 272 271 271 270 271 271 272 272 271 270 272 273 274 275 275 276 276 276 276 276 276
283 283 282 282 282 281 280 280 279 279 278 278 278 277 277 276 275 275 275 275 274 273 272 271 271 270 270 269 270 269 268 268 269 268 274 275 274 274 274 275 275 275 275
283 283 283 283 282 281 280 279 279 279 278 278 278 278 277 276 275 275 275 274 274 273 271 272 271 270 270 271 269 268 267 267 268 268 273 274 273 272 273 273 272 274 273

GFSGL_sfc_thetae_015.txt.gz
Theta_e
307 306 305 304 303 302 301 301 300 300 300 299 299 298 297 296 296 296 295 296 294 294 294 293 293 293 292 293 293 293 292 291 287 290 293 295 296 297 296 298 298 299 299
304 303 302 302 301 301 300 298 299 298 299 299 299 296 296 296 296 295 295 294 293 292 293 293 292 291 291 292 291 291 291 292 290 288 291 292 293 295 296 296 295 295 297
302 301 300 300 300 298 298 297 297 297 296 297 297 296 295 295 293 292 292 292 291 291 291 290 290 290 289 290 290 290 289 289 290 288 288 291 292 293 293 294 295 296 295
300 300 299 299 298 297 297 297 296 295 294 293 293 292 292 292 291 291 291 290 290 290 290 290 290 289 289 289 288 288 288 287 287 287 288 288 290 291 292 291 291 294 293
299 299 298 298 297 296 296 295 294 293 292 292 292 292 292 291 290 289 288 287 287 287 288 289 290 290 288 287 286 285 285 285 285 286 286 287 288 289 288 290 289 291 292
298 297 298 297 295 295 294 293 292 292 291 291 291 291 290 289 285 284 284 285 285 285 286 287 288 288 288 288 287 286 285 283 282 283 284 284 284 286 288 287 287 286 284
297 297 296 296 295 294 292 291 291 290 291 290 290 290 289 289 284 283 283 284 284 285 286 286 286 287 287 286 286 286 285 285 283 283 281 282 283 285 285 285 285 285 285
297 296 296 295 294 292 292 290 290 290 290 289 289 289 288 287 285 283 282 283 284 284 285 285 285 285 286 285 284 284 284 285 285 285 285 285 286 286 286 286 285 285 287
296 294 294 294 293 291 290 290 290 290 289 288 288 287 286 286 285 283 282 282 282 282 283 284 284 283 284 284 283 282 283 284 286 286 286 286 286 286 286 285 283 283 282
295 294 295 293 292 291 290 290 290 290 288 288 287 286 285 285 285 283 282 282 280 281 282 282 283 284 284 284 283 283 281 282 282 283 284 285 285 286 285 286 285 281 282
295 295 295 294 292 291 290 290 289 289 288 287 286 286 285 285 284 283 282 281 281 281 281 282 284 282 281 281 281 281 280 282 281 281 282 283 284 285 286 288 288 286 283
296 294 293 293 291 290 290 290 289 288 287 285 285 284 285 286 284 282 281 281 281 280 280 282 283 281 281 280 280 280 280 280 281 281 282 283 284 285 286 287 288 289 289
293 292 292 291 291 290 289 288 287 287 284 283 282 282 282 283 283 282 280 280 280 280 282 281 281 281 280 280 281 280 280 281 282 281 281 282 284 286 287 287 288 288 288
290 290 290 289 289 289 289 288 286 285 282 281 280 280 280 279 281 280 280 280 279 279 279 280 281 280 280 281 282 282 282 282 281 281 282 283 285 285 286 287 286 286 285
288 288 288 289 288 288 287 287 286 285 282 280 280 279 278 277 278 278 278 278 278 277 277 280 279 278 277 279 280 280 281 281 280 281 281 282 283 284 285 287 285 285 284
286 287 288 288 287 286 286 285 282 280 279 278 277 278 278 277 277 277 277 277 277 277 278 276 276 276 276 277 277 278 279 279 279 280 281 281 281 282 284 286 285 284 283
284 284 285 285 285 284 284 282 281 283 280 279 277 277 276 276 276 276 277 277 277 276 275 275 275 274 275 276 276 277 277 279 279 279 280 280 280 281 282 283 284 285 284
284 284 285 284 284 284 282 281 281 280 280 281 280 277 277 277 276 276 276 277 276 276 275 274 274 274 275 275 275 276 277 278 278 279 279 280 279 280 281 281 282 282 282
283 283 284 284 284 283 283 282 282 281 281 281 281 280 279 277 277 276 276 275 273 274 273 274 274 274 274 275 276 276 277 277 277 278 278 278 279 280 280 280 280 281 282
285 283 283 283 283 283 282 281 281 280 280 280 280 279 277 276 276 276 276 275 273 273 273 273 274 274 274 274 275 276 276 277 276 276 277 279 280 280 279 279 280 279 280
284 284 283 283 283 282 281 281 281 280 280 279 280 278 274 275 276 275 275 274 273 273 273 273 274 274 274 274 274 274 274 275 276 275 276 277 279 278 279 280 280 280 279
283 283 283 283 282 282 282 281 281 280 280 280 280 279 275 277 276 276 275 274 275 274 274 273 273 273 273 273 273 273 273 273 273 274 275 276 278 278 279 278 278 279 278
283 283 282 283 283 282 282 282 281 281 280 280 280 279 278 278 277 276 275 275 275 274 274 273 273 272 273 272 273 273 271 270 271 273 273 275 276 276 278 277 277 276 276
283 283 282 283 283 283 282 282 281 281 281 280 280 279 279 278 277 276 276 276 275 275 274 273 272 271 271 271 272 272 271 270 270 271 272 275 274 275 275 275 276 276 276
284 283 283 283 283 283 282 281 281 281 281 281 280 279 279 278 277 277 277 276 276 275 273 273 273 272 271 271 270 269 268 268 269 269 272 274 273 273 274 274 273 276 275
284 283 283 284 283 283 283 281 280 281 281 281 280 280 279 278 278 277 276 276 275 274 274 273 273 271 271 272 270 269 267 267 267 268 272 272 272 272 271 273 272 273 273

GFSGL_sfc_thetae_018.txt.gz
Theta_e
304 304 303 302 301 301 300 298 298 297 297 297 298 297 296 295 295 295 294 293 293 292 293 293 292 292 291 291 291 291 291 290 287 288 291 291 292 292 293 294 295 295 294
303 301 300 300 300 299 298 297 297 296 296 296 295 295 294 294 294 293 292 292 291 290 291 291 291 292 290 289 289 288 287 287 286 284 286 287 288 290 290 291 293 294 292
300 299 298 299 298 297 296 297 296 295 294 294 292 291 290 290 289 289 289 288 287 287 287 287 287 288 286 287 287 286 286 287 286 284 283 285 286 287 287 288 289 290 293
299 298 297 298 297 295 295 296 295 294 292 291 291 291 291 290 290 289 288 286 285 285 285 285 286 286 285 285 285 284 285 283 283 282 282 283 284 286 286 285 285 287 287
299 297 297 298 297 295 295 295 294 293 291 291 290 290 290 289 287 285 285 284 283 283 283 284 285 287 289 287 285 282 282 280 281 281 280 282 282 282 282 285 284 285 287
298 297 298 297 297 295 294 294 293 291 290 290 289 289 288 288 285 285 283 281 283 282 281 282 284 287 287 288 288 288 285 280 279 279 279 278 279 281 282 281 280 280 279
298 298 297 297 295 295 294 292 291 289 289 288 288 288 287 286 285 285 283 281 281 280 281 281 282 285 285 285 284 285 285 285 283 281 279 279 279 280 281 280 280 279 279
297 296 296 296 295 294 293 291 290 289 288 287 287 286 285 286 287 285 284 280 280 280 280 280 280 281 282 283 282 281 282 282 283 284 283 282 283 283 283 284 283 283 282
294 294 295 295 293 293 292 290 288 288 287 287 287 285 283 283 286 286 284 280 280 279 280 280 281 280 283 284 282 280 281 282 285 286 286 286 286 286 286 283 280 279 277
295 295 295 295 294 291 290 289 288 288 287 286 285 284 285 283 286 286 283 279 277 278 279 280 282 282 282 281 280 280 279 279 280 280 281 282 283 283 285 284 282 279 278
294 294 294 294 292 291 290 289 288 286 285 283 283 283 283 283 283 283 282 279 278 277 278 278 280 282 282 282 281 279 278 280 280 279 279 280 281 282 283 284 284 283 280
292 292 292 293 292 291 289 288 287 285 283 281 279 280 281 281 283 282 281 280 279 277 277 279 280 281 281 281 280 281 281 280 278 278 278 279 281 282 284 285 286 286 286
290 289 290 290 290 290 288 285 283 283 281 280 280 278 278 279 279 280 279 279 279 277 278 278 280 281 280 280 281 282 281 279 279 279 279 280 281 283 284 283 284 285 285
288 288 288 288 288 287 287 285 283 281 280 280 278 277 276 277 276 276 276 277 278 277 277 277 279 279 278 279 280 281 280 280 279 279 279 281 282 282 281 283 284 282 281
287 287 286 286 286 285 285 283 282 281 279 278 277 276 273 272 274 277 277 276 276 277 276 278 277 276 275 276 277 278 279 279 278 278 279 280 280 281 280 283 281 279 280
284 284 284 284 284 284 283 282 283 281 281 280 278 275 274 277 278 278 278 278 278 278 276 274 273 273 274 275 275 275 276 277 277 278 278 278 278 279 279 282 282 279 277
283 283 282 283 284 283 283 282 280 282 283 282 280 279 279 277 278 278 277 277 278 277 273 273 273 273 273 274 274 275 275 276 277 277 277 277 277 278 280 280 280 280 281
283 283 284 284 283 283 281 281 281 280 278 280 281 279 278 278 278 278 277 276 273 274 273 272 272 273 273 273 273 274 274 276 275 275 276 276 276 277 278 278 278 279 279
283 282 283 283 283 282 282 282 281 280 280 279 278 278 276 277 278 278 277 272 272 271 272 272 272 272 272 273 273 273 274 274 274 274 274 275 277 277 276 278 278 276 277
283 281 282 282 282 282 281 280 280 280 279 279 278 275 273 272 271 271 272 271 268 270 270 271 272 272 272 272 272 272 272 273 273 273 272 274 276 277 277 277 277 277 277
283 283 282 282 282 282 281 281 280 280 279 279 278 274 269 270 271 270 271 272 269 268 268 270 271 271 271 271 271 271 271 270 270 271 271 272 274 274 276 277 276 277 276
282 281 282 282 282 282 282 281 280 280 279 279 278 276 271 271 272 270 273 270 271 268 268 268 270 270 270 270 270 269 269 268 267 268 268 270 273 272 274 275 273 270 275
282 282 282 282 282 282 281 281 281 281 280 279 278 278 277 277 271 271 270 272 273 271 268 268 268 268 269 269 269 269 268 266 267 268 267 267 271 271 272 270 272 269 267
282 282 282 281 282 282 282 281 282 280 280 280 280 279 277 277 272 270 270 272 269 270 269 266 267 269 269 268 268 268 268 266 267 267 266 268 270 270 271 269 268 270 265
282 283 282 282 282 282 282 282 281 281 281 281 280 279 278 277 274 272 270 270 269 268 268 265 267 268 268 268 267 267 266 266 265 265 267 269 268 267 267 268 266 268 264
282 283 283 282 282 282 282 282 281 280 280 280 280 280 279 276 273 273 270 269 268 267 267 266 266 266 267 269 267 267 266 266 265 266 266 269 267 266 265 265 265 266 265

GFSGL_sfc_thetae_021.txt.gz
Theta_e
297 297 295 295 295 295 295 294 293 293 293 293 294 293 292 292 292 291 291 291 291 290 289 289 289 291 290 291 291 290 289 289 286 287 289 289 289 291 292 295 296 295 296
296 296 295 295 295 294 293 293 293 292 292 292 291 289 289 288 288 288 288 286 285 284 284 284 284 287 285 286 287 286 286 286 284 282 283 284 285 288 288 287 291 293 293
296 294 293 293 294 292 292 293 293 292 291 289 288 288 288 288 287 286 286 285 284 284 283 283 283 283 282 283 284 283 283 285 282 280 279 282 283 285 286 286 286 287 290
295 294 294 293 294 292 292 292 292 291 289 287 288 288 288 288 286 285 284 283 282 283 283 282 282 282 282 282 283 282 283 281 280 279 279 280 280 283 283 282 282 284 285
296 295 294 295 295 292 293 294 293 291 289 288 287 287 287 286 285 282 282 281 280 280 281 282 282 283 286 286 285 283 281 279 278 278 278 278 278 278 278 280 279 280 282
295 295 296 295 294 294 293 293 292 290 287 286 286 286 285 286 285 285 282 279 280 280 278 279 280 283 283 284 285 285 285 281 278 277 277 276 277 278 278 278 278 277 277
292 293 294 294 294 294 294 293 291 287 285 285 285 285 284 283 286 285 284 281 279 278 278 278 279 281 281 281 283 284 284 285 283 281 279 278 278 278 279 278 277 277 277
290 292 293 293 292 292 292 291 288 286 285 284 284 283 282 284 286 286 286 280 278 279 278 278 278 279 280 281 280 280 280 281 281 282 281 281 281 282 281 282 281 283 281
291 291 292 292 291 290 289 287 288 286 285 284 283 282 281 281 285 285 282 279 279 279 280 280 279 279 281 283 280 278 279 281 284 285 286 285 285 286 286 283 281 280 278
290 290 291 291 291 290 288 288 287 284 284 283 283 282 283 280 284 284 282 277 274 277 277 278 280 280 282 282 280 276 276 277 279 279 279 280 282 282 283 282 281 278 278
289 290 290 290 290 290 288 287 285 282 281 279 279 280 281 281 279 282 281 277 276 277 276 276 278 280 280 282 281 279 278 279 280 279 278 278 279 280 282 283 283 282 280
288 288 287 288 289 290 287 286 283 280 279 277 270 273 276 277 280 280 279 279 278 275 275 277 278 280 281 280 280 281 282 280 279 277 277 278 278 280 283 285 285 284 284
286 285 285 285 286 286 282 280 280 279 275 275 277 271 274 276 274 278 278 278 278 276 277 278 279 279 279 279 280 281 280 280 279 278 278 279 280 282 283 283 283 284 285
284 284 284 283 284 283 282 281 279 275 273 277 274 272 271 273 272 274 275 272 277 277 276 277 278 278 277 277 278 278 278 278 277 277 277 279 281 280 279 280 282 282 277
283 283 281 281 281 281 281 279 279 277 276 273 272 272 264 263 271 278 277 276 276 277 276 275 275 274 274 275 276 276 276 277 276 277 277 278 278 279 279 281 282 278 276
281 280 279 278 278 280 279 279 283 281 282 282 280 271 268 275 278 279 279 278 278 277 274 272 272 272 272 273 273 274 275 276 276 276 276 277 277 277 278 279 280 278 277
281 281 278 278 278 280 280 280 278 278 283 283 282 280 279 278 279 279 278 277 277 275 272 271 271 271 271 272 272 273 273 275 276 275 275 275 276 277 278 276 277 276 278
279 278 277 276 279 280 279 279 279 274 274 273 280 281 279 279 279 278 278 275 268 270 269 271 271 271 271 271 271 272 272 273 273 273 273 273 275 276 274 275 276 274 277
281 278 277 279 280 280 280 279 279 278 277 273 274 275 274 277 278 278 277 265 264 265 266 269 270 271 271 271 270 270 270 270 270 270 271 272 273 275 274 273 273 273 274
280 278 277 280 279 279 279 278 278 278 278 277 270 270 269 267 262 261 261 260 260 263 262 266 270 270 269 269 269 269 269 268 268 268 268 269 271 273 273 274 274 274 270
277 277 277 280 280 279 279 278 278 278 278 275 272 270 266 265 262 263 262 261 262 262 260 263 264 266 268 268 269 268 267 265 266 266 266 267 268 270 271 273 272 271 273
276 275 276 274 275 277 279 279 277 275 276 276 274 270 267 262 266 266 263 262 261 262 262 261 262 265 266 267 268 264 265 263 264 265 265 266 267 269 269 269 270 266 267
273 273 279 279 279 277 276 277 278 274 277 277 276 269 268 266 264 265 263 261 262 262 262 261 259 262 265 265 265 266 264 263 264 264 264 264 267 268 267 265 265 266 263
272 270 277 279 273 275 274 277 276 278 277 272 273 274 270 269 264 265 263 261 261 261 259 260 261 262 264 266 264 265 266 264 264 264 263 265 266 266 265 266 266 264 262
274 272 271 280 275 272 273 275 277 278 275 271 270 274 270 267 266 263 262 262 262 260 261 260 260 262 263 265 265 265 265 265 264 265 265 265 264 265 264 265 262 263 261
278 277 274 278 279 277 273 275 277 276 278 278 271 272 272 268 267 265 263 262 261 260 261 259 260 261 262 263 266 267 265 264 264 265 265 266 264 263 263 262 263 262 263

GFSGL_sfc_thetae_024.txt.gz
Theta_e
296 295 294 294 294 294 293 293 293 292 292 291 292 291 288 288 288 287 287 287 286 284 283 283 283 284 283 283 284 285 287 288 284 284 286 286 285 285 287 290 295 295 295
295 295 293 293 293 293 292 293 292 291 292 292 292 288 288 286 286 285 284 284 283 282 283 282 282 283 281 281 281 282 283 284 282 279 281 282 283 284 284 284 288 290 293
295 293 292 292 292 292 291 291 292 292 291 292 289 288 288 287 286 284 284 283 281 281 281 281 281 281 280 280 280 281 282 284 281 280 279 281 281 283 283 284 284 285 289
294 293 292 292 293 291 290 292 293 294 292 291 288 288 288 286 285 284 283 281 280 281 281 281 280 280 279 279 281 281 282 280 280 279 278 278 279 281 281 280 279 282 283
292 292 292 293 293 291 291 292 293 292 292 291 289 288 286 284 284 281 281 281 280 280 280 280 280 281 283 282 282 281 280 279 279 278 277 277 277 277 278 279 278 278 280
290 291 293 292 292 292 292 292 290 292 291 287 287 286 284 285 286 285 283 280 280 279 278 279 279 281 280 282 282 283 283 280 279 279 279 277 276 277 277 277 276 276 275
290 292 292 291 291 291 291 291 291 287 287 287 285 284 282 282 286 287 287 282 280 278 278 278 279 280 280 279 281 282 282 283 282 281 279 278 278 278 278 277 276 276 276
290 290 291 291 290 290 288 289 288 286 286 284 283 282 281 283 285 285 284 280 278 279 279 278 278 277 279 279 279 280 280 280 281 281 280 280 280 280 279 280 279 279 281
288 288 289 290 289 289 289 288 285 284 282 283 282 281 280 280 284 283 281 277 277 277 278 278 278 277 279 282 280 279 278 279 282 283 283 284 284 285 285 283 280 280 275
287 288 289 289 288 288 287 285 285 283 283 282 282 280 281 278 281 282 280 276 272 276 277 277 278 279 280 280 279 277 277 277 278 278 278 280 280 280 282 280 279 276 276
288 288 287 287 287 287 287 286 284 281 280 278 277 278 278 278 277 280 279 276 275 276 275 276 277 279 281 281 281 279 278 280 279 280 278 278 279 280 280 281 281 279 277
286 285 285 284 285 285 283 280 280 279 278 276 267 271 274 275 278 278 279 278 278 274 275 276 277 279 280 280 280 280 280 280 279 278 278 277 278 279 281 282 283 284 283
284 283 283 283 283 282 280 279 279 278 274 274 276 269 273 275 273 277 278 278 278 276 277 278 278 278 278 278 279 279 278 278 277 276 277 278 280 281 283 282 283 282 284
283 282 282 281 282 281 280 280 278 273 272 276 273 272 270 272 272 273 275 272 276 277 276 276 276 277 276 277 277 277 277 277 276 276 277 278 280 279 279 281 279 283 281
282 282 280 280 279 280 280 278 278 277 275 273 272 271 263 262 270 278 277 276 275 275 270 272 273 273 273 274 274 275 275 276 275 275 276 276 278 278 278 279 280 279 277
281 280 279 277 276 279 279 278 282 281 283 284 282 271 268 275 279 280 279 277 277 276 269 267 270 270 270 271 271 272 273 274 274 274 274 275 275 276 278 278 277 276 276
281 281 278 278 278 276 277 279 276 277 282 282 283 282 280 279 279 279 278 276 276 273 264 264 267 269 270 271 271 271 270 272 273 273 273 273 273 276 276 275 275 275 276
282 279 277 277 276 276 278 278 278 272 269 270 277 281 280 279 278 278 277 274 267 267 265 263 266 269 269 270 270 269 270 269 269 269 270 271 271 274 274 274 274 273 275
282 276 273 279 279 279 279 277 276 274 273 275 270 273 272 277 277 277 276 264 263 263 264 265 262 267 268 269 267 267 266 266 266 265 267 268 269 271 272 273 273 270 270
282 277 273 277 279 278 278 277 277 274 277 275 270 268 267 267 262 259 258 256 257 261 261 263 263 264 263 265 265 265 266 265 265 265 264 265 266 269 270 271 270 270 269
280 277 278 279 279 278 277 278 277 276 275 270 275 271 266 266 262 262 262 259 260 260 259 261 260 259 261 263 267 264 264 260 263 264 264 264 265 266 269 269 267 267 268
276 276 274 274 274 270 273 275 278 275 272 270 270 269 266 261 261 265 265 263 262 261 261 260 261 261 261 263 263 260 262 260 261 262 263 264 264 266 266 265 264 261 263
272 269 271 274 274 275 268 271 276 276 273 277 275 269 266 269 268 267 267 264 261 260 259 259 257 260 259 258 259 263 263 263 262 262 261 262 264 265 263 262 263 262 260
272 269 271 273 275 274 268 269 276 275 277 271 268 267 268 269 265 264 264 261 257 258 256 258 259 261 261 258 258 261 264 263 263 264 263 262 263 264 263 263 263 262 259
277 276 275 274 276 276 270 270 273 276 276 277 269 264 266 270 269 265 266 261 262 258 259 259 257 260 259 259 261 262 261 264 263 264 263 264 262 262 263 262 261 263 261
282 280 278 277 277 278 277 272 271 275 274 277 273 267 268 268 267 264 263 259 262 260 258 257 258 260 259 259 261 262 261 262 263 265 264 264 262 262 261 261 261 261 262

GFSGL_sfc_thetae_027.txt.gz
Theta_e
295 294 293 293 292 293 292 292 292 291 291 292 293 292 290 288 288 286 286 285 284 282 282 282 282 282 281 281 281 281 281 281 279 282 285 286 283 283 285 285 287 287 291
294 293 292 291 291 291 291 292 291 291 292 291 291 292 291 288 287 286 285 284 282 281 281 281 281 282 279 279 279 279 280 281 280 279 280 281 281 282 282 283 286 288 286
293 291 291 291 291 290 290 291 291 291 290 291 291 292 288 288 287 285 284 282 281 281 281 280 280 279 278 278 279 279 279 282 281 280 280 280 280 280 281 282 283 282 285
290 290 290 290 291 290 290 289 290 291 290 289 291 288 289 288 286 283 282 281 281 281 281 280 280 279 278 278 278 279 281 280 280 279 279 279 279 280 279 279 278 280 280
290 290 290 291 291 291 291 291 291 290 290 292 290 288 287 286 284 282 282 281 280 280 280 280 280 281 283 282 279 278 278 279 279 279 279 279 278 277 277 278 277 277 278
289 290 291 290 290 289 289 289 289 292 289 288 288 286 283 284 286 286 285 281 281 280 279 279 279 281 281 281 281 282 281 278 277 278 278 277 277 276 277 276 276 275 275
289 290 290 290 289 289 288 288 288 287 286 285 284 282 281 282 286 285 284 281 280 279 278 278 278 279 279 278 280 281 281 282 281 279 278 278 278 278 277 276 276 275 275
288 288 289 288 288 288 287 288 288 287 283 282 281 281 280 282 284 283 282 278 277 277 277 277 277 277 278 278 279 280 279 280 281 281 280 280 280 280 279 279 278 279 278
286 286 287 287 287 287 286 285 285 283 281 281 282 280 279 278 281 281 280 276 276 276 277 277 278 277 279 281 279 278 278 279 282 282 282 282 283 283 284 282 279 278 274
286 286 286 286 286 285 285 284 286 284 282 282 281 279 280 277 280 280 279 274 270 275 276 277 278 279 280 281 279 278 276 278 279 278 278 279 281 280 281 279 278 276 275
286 286 285 284 283 283 283 283 282 280 280 278 278 277 278 277 276 279 279 274 275 275 275 275 277 279 280 280 280 279 278 279 279 280 280 279 279 279 279 279 279 277 276
285 284 283 283 283 282 280 280 280 279 279 277 266 270 274 275 278 278 279 279 278 274 275 276 277 279 279 279 278 279 279 278 277 277 277 278 278 279 281 282 282 282 282
284 283 282 282 282 281 279 278 278 278 274 274 275 269 273 276 273 277 278 279 278 274 275 276 277 277 277 277 277 278 277 276 275 275 275 277 279 280 281 282 283 283 283
283 283 282 281 281 281 280 279 278 273 271 275 273 272 270 272 271 272 275 271 276 275 272 272 273 275 274 275 275 275 275 276 275 274 275 277 279 279 279 281 280 282 281
284 283 281 281 279 280 279 278 279 277 276 273 273 272 262 262 270 278 277 273 269 272 267 265 267 270 271 272 272 273 273 274 273 273 274 274 276 277 278 280 280 279 276
283 283 281 279 276 279 279 278 282 281 282 283 283 272 267 275 279 280 279 277 276 274 267 262 260 263 266 270 269 270 271 270 271 272 272 272 273 274 276 277 277 277 277
283 283 282 279 279 277 277 279 276 277 281 281 282 283 281 279 279 279 278 276 275 272 263 261 257 260 262 269 269 269 268 269 269 269 270 270 271 273 274 275 275 276 276
283 281 280 280 280 279 278 279 278 276 269 270 277 280 282 280 279 278 277 274 266 266 264 261 259 260 263 267 268 268 267 266 266 266 267 267 268 270 271 273 273 271 272
283 281 280 277 279 276 278 275 276 276 271 272 270 272 271 279 278 277 275 264 262 262 263 264 260 262 262 263 260 263 262 264 263 262 264 265 265 268 270 271 270 270 270
284 281 278 276 277 276 277 274 276 276 275 275 268 268 269 267 262 260 258 256 256 261 260 263 263 262 259 259 257 257 260 261 263 263 262 262 263 265 267 268 269 266 267
283 281 280 279 276 275 274 275 276 276 276 271 269 267 267 267 265 264 266 261 262 262 260 262 259 257 258 257 261 257 257 256 261 262 262 263 262 263 266 266 266 266 267
281 279 277 274 272 268 271 272 271 272 273 273 270 269 266 263 267 266 265 265 263 263 263 261 261 261 261 261 260 255 256 255 258 261 261 263 263 264 264 263 263 261 264
279 274 273 273 272 270 267 269 270 272 275 275 276 270 265 265 267 267 266 265 261 261 261 260 258 259 258 256 255 259 258 258 259 260 261 261 263 264 262 260 262 262 261
279 275 273 272 268 271 271 269 268 270 272 274 274 271 270 266 266 265 266 264 258 259 256 259 261 262 260 256 255 257 260 257 258 261 262 262 263 264 263 263 262 261 260
281 279 277 276 275 275 276 274 271 270 272 272 272 273 271 268 266 267 265 264 261 259 261 260 260 261 261 260 259 260 258 260 257 259 261 263 262 260 261 262 261 263 261
283 281 280 280 276 276 277 277 275 274 272 273 276 273 272 272 272 270 267 264 262 262 261 258 259 261 260 259 260 260 259 259 257 259 258 263 262 261 261 261 261 261 262

GFSGL_sfc_thetae_033.txt.gz
Theta_e
300 300 299 298 298 298 297 298 298 298 298 297 297 297 297 294 295 295 294 292 290 291 290 289 288 289 288 288 287 286 284 284 280 282 285 286 287 287 289 291 292 293 292
299 298 297 297 297 297 296 296 296 295 296 295 296 295 295 294 293 292 290 291 290 288 287 287 287 287 286 286 285 284 284 284 282 279 282 284 285 286 288 289 289 291 291
296 296 296 296 296 295 294 295 295 295 295 296 295 295 293 290 291 291 290 288 287 287 287 286 286 286 285 285 284 283 283 282 282 280 280 283 283 284 285 287 288 289 289
295 295 295 295 295 294 294 294 294 294 294 294 294 293 291 291 290 289 287 287 287 287 286 286 285 284 283 283 282 282 282 281 280 279 279 280 281 283 284 283 284 287 287
293 294 295 295 294 294 293 293 293 293 293 293 291 291 289 288 287 288 288 287 285 284 284 283 282 282 282 282 281 281 280 279 278 279 279 279 279 280 280 282 282 283 286
292 293 294 293 293 293 292 292 292 292 291 291 290 288 287 287 286 285 285 285 283 282 281 281 281 280 281 280 280 281 281 279 279 279 279 279 279 280 282 281 281 280 279
292 293 292 292 291 291 291 291 291 291 290 290 288 287 286 287 283 283 283 283 281 281 280 280 279 280 280 280 280 281 282 282 281 281 279 280 279 281 281 281 281 281 280
292 291 291 291 290 290 290 289 290 291 291 289 286 286 285 283 282 281 281 282 281 280 280 280 280 279 280 280 281 281 281 281 281 282 283 282 283 283 283 282 282 283 284
289 290 290 290 289 288 288 288 289 289 289 287 286 285 283 282 280 281 281 281 280 280 280 280 280 279 279 281 280 279 279 279 282 282 282 283 283 283 283 283 280 280 280
289 290 290 290 288 288 287 287 288 290 289 287 285 284 281 282 279 280 281 282 280 279 280 280 278 278 279 279 279 278 277 278 279 280 281 282 283 284 283 283 282 279 279
289 289 289 289 288 288 287 287 287 287 286 285 283 283 282 281 281 279 280 281 280 279 278 278 278 278 278 278 278 279 278 278 278 279 279 281 282 282 283 285 284 282 280
289 289 288 288 287 287 286 286 285 285 284 283 281 282 283 282 280 280 279 280 280 278 277 278 278 277 277 276 277 277 277 277 278 278 278 278 279 280 282 283 284 285 285
288 288 288 288 287 287 285 285 284 284 283 282 282 282 282 283 282 279 279 279 279 278 278 276 276 275 275 276 275 275 275 276 276 276 276 277 278 280 282 284 285 285 285
287 287 287 287 287 286 285 285 284 283 282 282 281 281 282 282 282 281 281 281 278 278 276 276 274 274 273 274 275 275 275 274 274 274 275 277 279 280 281 282 282 283 284
286 287 287 287 286 285 285 284 284 284 283 282 282 282 281 281 282 280 280 280 280 277 274 275 274 274 273 274 274 274 273 272 273 274 274 275 276 278 279 281 281 282 281
285 286 287 286 286 285 284 284 284 283 283 283 283 282 284 281 280 280 281 279 277 275 275 274 272 272 272 272 273 272 273 271 271 273 274 274 274 276 277 279 280 280 280
284 285 286 285 285 284 284 283 282 283 284 283 283 283 283 283 280 281 281 279 277 275 275 274 273 272 272 272 272 272 271 271 270 271 272 272 273 275 276 277 277 278 278
285 284 285 286 286 285 284 283 283 281 281 281 282 281 282 282 283 282 281 279 277 275 275 274 274 274 273 272 272 271 271 271 271 269 271 271 271 273 274 274 276 275 276
285 285 285 285 285 284 284 283 282 282 281 281 282 280 280 280 281 282 281 279 278 277 276 275 275 274 274 273 272 271 270 270 269 269 270 270 270 271 273 273 274 273 273
286 285 285 285 284 284 283 282 282 281 281 281 281 282 282 277 280 281 279 279 278 277 278 276 276 275 274 274 273 272 272 271 270 270 270 270 270 271 271 272 273 273 273
285 285 285 285 283 283 283 282 282 281 281 280 281 283 280 280 281 281 280 279 278 278 278 278 277 276 275 274 273 273 271 271 270 269 269 270 270 270 270 272 272 272 272
285 284 284 283 283 283 282 282 282 281 280 280 281 281 276 278 280 279 280 280 280 279 279 278 278 277 276 275 274 273 271 271 271 270 269 269 270 270 270 270 271 271 271
285 284 284 284 283 282 282 281 281 280 280 280 280 280 281 280 279 279 280 281 280 279 278 277 277 276 276 274 274 273 272 272 272 269 268 269 270 270 270 270 270 270 270
283 283 282 283 283 282 282 282 282 280 280 281 281 281 281 281 281 281 280 281 279 279 278 275 275 275 276 275 274 273 272 272 271 270 267 268 269 270 269 270 270 269 269
284 284 284 284 283 283 282 282 281 282 282 282 281 282 282 282 281 281 281 280 278 278 277 274 274 274 273 272 273 272 271 269 268 266 268 268 268 268 268 269 269 269 269
283 283 283 283 283 284 283 283 283 282 282 283 283 282 282 282 282 281 281 280 278 277 277 277 275 273 273 273 272 271 267 266 267 264 267 269 269 270 269 269 267 269 268

GFSGL_sfc_thetae_036.txt.gz
Theta_e
304 305 305 303 302 303 302 300 300 300 299 298 298 298 298 298 298 297 296 296 295 293 293 292 292 292 291 291 290 289 288 287 284 286 288 289 289 288 289 291 291 292 293
303 302 301 301 301 301 299 299 299 298 298 298 298 297 297 295 296 295 294 294 292 291 292 292 291 290 290 290 289 288 287 287 284 282 285 285 286 287 287 287 288 289 291
301 300 300 300 300 299 298 299 298 297 297 297 297 294 294 295 294 293 292 292 292 291 291 290 290 289 288 288 287 286 285 284 285 283 282 284 284 286 286 287 287 289 290
299 299 299 299 299 299 298 298 297 297 296 296 296 295 294 294 293 292 291 291 291 290 290 289 288 286 286 285 284 284 283 283 283 282 282 281 283 285 285 284 284 286 287
297 297 297 299 298 297 297 296 296 296 296 296 294 294 294 292 291 291 291 290 290 288 288 286 286 284 282 282 282 283 282 281 281 280 280 281 281 282 282 284 283 284 285
297 296 297 297 296 296 296 295 295 295 295 295 294 293 292 291 285 284 285 288 288 286 285 285 285 284 284 282 282 281 282 281 280 280 281 280 281 282 283 283 283 282 281
296 295 296 295 295 294 294 294 294 294 295 293 292 293 291 291 283 283 282 286 286 285 284 284 283 283 283 282 281 282 283 283 282 282 280 281 282 283 283 282 282 282 282
294 294 294 294 293 293 293 293 293 294 293 292 291 291 291 289 282 281 281 286 286 285 284 284 284 283 282 281 281 281 281 283 283 282 282 283 283 284 284 284 284 284 284
293 293 293 293 293 293 292 292 292 292 292 291 291 291 290 289 281 281 282 285 285 284 284 284 283 282 280 280 279 279 280 281 283 282 282 282 283 283 284 284 282 281 281
292 293 293 293 293 292 292 292 292 292 291 290 290 290 287 287 281 280 281 285 283 283 284 283 281 280 278 279 279 279 278 279 279 280 281 283 284 284 284 285 283 281 280
293 293 292 292 292 292 292 292 291 291 290 290 288 289 288 287 286 280 280 283 283 282 282 282 282 279 278 278 277 279 278 278 279 279 280 281 283 284 284 285 286 284 282
293 292 291 292 291 290 291 291 290 290 288 287 286 286 287 287 284 282 280 280 281 281 281 282 281 277 277 277 277 276 277 278 280 279 279 280 281 281 283 285 286 286 286
291 291 291 291 290 291 290 289 289 288 287 286 284 284 285 286 285 282 280 280 280 281 282 280 277 276 276 277 276 276 277 278 278 277 277 278 280 281 283 285 286 287 287
290 290 290 290 290 290 289 288 287 287 285 284 283 283 283 283 284 285 284 283 282 281 281 281 278 276 277 277 278 278 278 277 276 276 277 279 280 281 282 283 283 285 285
289 289 290 290 290 289 289 288 287 287 286 284 284 284 283 282 283 283 282 283 283 281 278 280 280 279 278 278 278 278 278 277 276 277 277 278 278 279 280 282 282 283 283
288 288 289 289 289 288 288 286 285 284 284 284 283 284 286 284 283 282 281 281 280 278 279 279 279 279 277 277 277 277 277 276 275 275 276 277 276 277 278 280 281 281 281
287 287 287 286 286 286 286 286 284 285 284 284 284 284 284 284 284 283 282 282 280 278 279 280 279 279 278 277 277 277 276 276 275 275 275 276 276 276 277 278 278 279 279
288 285 287 286 286 286 287 286 286 284 283 284 284 283 283 283 283 283 282 282 280 278 279 279 279 279 279 278 277 277 276 276 276 275 275 275 275 275 276 276 277 276 277
288 288 288 287 286 285 286 286 285 284 283 283 285 283 284 282 282 282 282 282 280 280 280 280 281 280 279 279 278 277 276 276 274 274 275 274 275 274 275 276 276 276 276
289 286 286 287 286 286 285 284 284 284 284 283 282 283 285 282 283 283 284 283 281 281 281 281 281 281 280 279 279 278 277 276 276 275 275 275 275 275 274 274 275 276 276
289 289 286 287 286 285 284 285 285 285 284 283 285 286 283 283 282 283 284 284 282 282 282 281 282 281 280 280 278 278 277 276 276 275 274 275 274 274 275 275 274 275 275
288 288 287 286 286 286 284 284 285 285 284 284 285 285 283 283 283 283 284 284 285 285 284 283 282 282 281 280 279 278 277 276 276 275 274 273 274 275 274 274 274 274 274
287 286 285 284 284 285 285 284 284 285 284 285 285 284 285 284 284 283 284 285 285 285 284 283 282 281 282 281 280 279 277 277 277 276 273 273 274 275 274 274 274 273 273
286 285 284 284 284 285 284 284 285 284 284 285 284 284 285 285 284 284 284 284 285 285 284 283 282 282 281 281 280 279 278 277 277 275 272 272 273 274 273 273 274 273 273
286 285 285 285 284 284 284 284 285 284 284 284 284 284 285 285 285 285 285 284 284 284 284 283 282 281 280 279 279 278 278 274 274 272 273 272 272 271 272 272 272 273 272
286 285 285 285 284 284 284 284 284 285 284 284 285 285 285 285 285 285 285 284 284 283 283 283 281 280 280 279 278 277 275 272 271 269 272 273 273 273 273 272 270 272 271

GFSGL_sfc_thetae_039.txt.gz
Theta_e
308 307 308 306 304 303 303 302 300 301 300 298 298 299 298 298 299 298 298 297 295 295 295 294 293 293 292 292 292 291 290 289 285 288 289 290 289 289 289 291 291 291 291
305 304 305 304 303 302 301 300 300 299 299 298 298 298 298 297 297 295 294 293 293 292 292 292 291 291 291 290 290 288 289 288 287 283 286 286 286 287 288 288 288 288 290
303 304 303 302 302 301 299 299 300 299 298 298 297 297 296 295 294 294 294 293 292 291 291 290 290 289 288 288 287 287 286 286 286 284 283 285 286 287 286 287 287 288 288
303 302 301 301 301 300 299 299 299 298 297 297 297 296 295 294 294 293 292 291 291 291 291 290 289 287 287 285 284 284 284 283 283 282 282 282 283 285 285 284 284 287 286
302 300 300 300 300 299 298 298 298 297 297 297 296 295 294 294 292 291 291 290 289 289 289 288 288 286 284 283 283 282 282 281 280 280 280 281 282 282 282 284 283 284 285
300 299 299 298 298 298 297 297 296 296 296 296 295 294 293 292 285 284 285 288 288 288 287 287 287 287 286 284 284 282 282 280 280 281 281 280 280 281 283 283 283 282 280
298 297 296 297 296 296 296 295 295 295 295 295 293 292 292 292 285 283 283 286 287 287 287 286 285 285 285 284 283 283 282 283 282 282 280 281 281 282 282 281 282 282 282
297 295 296 296 295 295 295 294 295 295 294 294 293 292 291 291 284 283 282 285 287 287 287 286 285 285 284 281 280 280 281 282 282 283 283 282 282 282 283 283 283 283 284
294 294 294 295 294 294 293 294 294 294 293 293 293 291 291 291 284 282 281 286 286 286 286 286 285 283 281 280 279 279 279 280 283 283 282 283 283 284 284 283 282 281 280
293 293 294 294 293 293 293 293 294 293 292 292 291 292 290 290 284 283 282 285 284 284 285 285 283 280 279 279 278 278 277 279 279 279 281 282 284 284 284 284 284 281 281
294 294 293 293 293 293 293 293 293 292 292 290 289 290 289 289 288 283 282 283 284 283 283 283 284 280 279 278 278 278 278 278 278 280 280 281 282 283 284 285 285 284 282
293 293 292 292 292 292 292 292 292 292 290 289 289 287 288 288 286 284 283 281 282 281 282 283 283 280 278 278 278 278 277 278 280 280 279 279 280 281 282 284 286 286 287
292 291 291 292 292 292 291 291 290 290 289 288 286 286 286 288 288 285 284 282 281 281 283 282 280 279 279 279 279 278 278 279 278 277 277 278 280 282 283 284 286 287 287
290 290 291 291 291 292 291 291 289 288 287 286 285 284 285 286 286 287 285 284 282 282 283 283 281 280 279 279 280 281 280 280 277 277 277 279 280 281 281 283 282 284 284
290 290 290 291 291 291 291 291 289 289 288 287 286 286 286 285 285 285 284 285 285 283 280 281 281 281 280 280 280 280 280 280 278 277 277 277 278 278 279 282 282 282 281
289 289 290 290 290 290 289 288 288 285 285 285 285 285 287 285 284 284 283 282 282 281 280 280 281 281 280 279 279 279 280 279 278 277 277 277 276 277 277 279 280 280 279
288 289 289 287 287 286 286 287 286 288 285 285 285 284 284 284 284 284 284 283 282 281 278 280 281 281 280 280 280 279 278 279 278 278 277 277 276 276 277 278 278 278 278
290 286 289 289 289 288 287 287 287 287 286 287 285 284 285 284 284 284 284 283 281 281 280 280 280 281 281 280 280 279 279 278 278 277 277 277 277 276 276 276 277 277 277
290 290 291 291 290 288 287 286 285 286 286 286 286 285 285 284 284 284 284 282 282 282 282 281 283 282 281 281 281 280 279 278 277 277 277 276 277 276 276 275 276 276 277
292 288 287 290 289 288 287 286 286 286 285 285 285 285 285 284 284 284 284 284 283 283 283 282 283 283 283 282 281 280 279 278 278 277 277 277 277 276 276 275 275 275 276
292 291 287 289 289 289 288 286 286 286 286 286 286 287 285 284 284 285 285 285 285 285 284 283 284 284 283 282 280 280 279 278 278 277 276 276 276 275 276 276 276 275 275
291 291 290 288 289 288 287 287 287 286 286 285 286 287 284 285 285 284 285 285 286 287 286 285 284 284 283 282 281 281 279 278 278 277 277 275 275 276 276 276 276 275 275
289 288 287 287 287 285 285 286 285 286 286 286 286 286 286 285 285 285 285 285 286 286 286 286 285 284 284 284 284 281 279 279 279 278 276 275 275 276 275 275 275 274 274
288 286 286 286 286 286 286 285 285 285 285 285 285 285 285 286 285 285 285 285 286 285 285 285 285 284 283 283 283 281 280 280 279 277 275 274 274 275 275 274 274 274 274
287 286 285 286 285 285 285 285 285 285 284 285 285 285 286 286 286 285 285 286 286 285 285 285 285 284 283 283 282 281 280 279 277 277 276 274 274 273 272 273 273 273 273
285 286 286 286 285 284 284 283 283 283 283 284 285 285 285 285 285 286 285 286 285 286 285 285 284 283 282 282 282 281 280 277 275 274 275 275 274 274 274 274 273 273 273

GFSGL_sfc_thetae_042.txt.gz
Theta_e
310 309 307 305 304 303 302 300 299 298 298 297 296 296 296 295 295 293 293 293 292 291 291 290 290 290 289 289 288 287 285 284 281 283 285 285 284 284 286 286 287 286 287
308 306 305 304 303 302 301 299 298 297 298 296 296 296 296 294 293 292 292 292 290 289 289 289 289 289 286 285 284 283 283 283 281 279 282 282 282 283 284 284 286 287 286
304 303 303 303 301 301 299 298 298 297 296 296 296 295 294 294 292 292 291 291 290 289 289 288 286 285 283 283 281 280 281 283 281 279 279 281 281 282 282 283 284 284 287
304 303 301 302 301 299 298 297 297 297 296 295 296 296 294 293 293 293 292 289 288 287 287 286 286 284 282 280 280 279 280 279 279 278 278 279 280 281 282 281 281 282 282
303 301 300 301 300 299 298 297 297 296 296 296 295 295 293 293 292 289 288 286 286 285 286 286 285 286 287 284 281 279 278 278 277 277 277 278 279 279 278 280 280 281 282
301 300 300 299 299 297 296 297 296 296 295 295 294 293 291 292 286 286 285 283 285 284 283 284 284 286 285 286 285 283 282 277 277 277 278 277 277 279 280 279 279 277 276
299 299 298 298 297 296 296 295 294 294 294 293 293 292 291 291 286 285 283 283 283 283 283 282 283 285 282 280 281 281 281 282 281 279 278 279 278 278 278 277 277 277 277
298 297 297 296 295 295 294 294 294 294 293 292 291 291 290 291 286 285 283 281 282 283 283 283 282 281 278 279 278 277 278 279 279 280 280 278 278 279 279 279 279 279 280
295 295 294 294 294 293 293 293 293 292 291 290 291 290 289 288 285 284 282 281 282 282 283 283 283 280 280 281 277 276 276 277 281 281 281 282 284 284 284 282 279 278 276
294 293 294 294 293 292 292 292 292 292 291 290 289 289 289 286 285 284 283 281 280 281 281 282 281 279 279 279 274 274 273 276 276 276 277 280 281 282 284 283 282 279 278
294 294 293 293 292 292 292 291 290 290 289 288 286 287 286 287 287 285 284 281 280 280 279 279 280 281 280 280 279 275 275 277 277 276 278 278 280 281 280 281 281 281 280
293 293 292 292 291 291 291 290 290 289 287 286 285 284 284 285 287 286 285 283 283 278 279 279 280 281 281 280 278 279 279 278 275 273 275 276 277 278 280 280 282 283 284
292 290 290 291 291 291 290 289 288 288 284 284 284 283 284 285 285 287 285 284 283 278 279 281 282 281 282 280 281 280 277 275 273 270 273 274 276 279 281 280 281 282 283
289 290 290 290 290 290 290 289 287 285 284 284 283 284 284 283 282 283 281 282 283 281 280 281 279 278 276 276 276 278 277 275 273 272 271 275 276 277 277 279 278 279 280
289 289 289 289 289 289 290 289 285 286 285 284 284 285 284 283 283 283 282 283 283 282 276 276 275 278 277 276 276 276 276 276 274 272 271 273 275 275 276 278 279 278 277
288 288 287 287 287 287 287 286 288 286 286 286 286 284 283 285 285 285 285 284 283 282 276 273 273 275 276 274 273 274 274 274 274 273 272 273 273 273 274 276 278 277 275
287 286 286 285 286 285 285 285 283 286 287 286 286 286 285 285 285 285 285 285 284 282 277 274 275 277 276 276 274 274 272 273 273 273 271 271 272 274 273 274 275 276 275
287 286 286 287 287 288 286 285 285 283 283 283 286 285 285 285 285 285 284 284 280 281 279 277 277 278 279 276 275 275 273 272 272 272 269 269 268 270 273 271 273 273 274
288 288 288 288 287 286 286 285 284 284 284 283 284 283 283 285 285 285 284 280 278 278 279 279 279 279 280 277 275 275 271 270 269 267 268 269 267 270 269 272 269 272 272
289 287 286 288 287 286 286 286 285 284 284 283 283 283 284 281 281 281 281 281 280 279 279 279 279 279 280 280 276 275 273 274 271 271 269 266 268 268 269 268 268 266 272
289 289 287 287 287 286 286 285 285 285 284 283 283 284 284 284 283 283 283 282 281 281 281 281 280 280 280 280 277 275 277 275 274 272 270 269 266 266 271 270 268 269 271
287 287 287 286 286 285 286 286 284 283 282 282 284 283 284 284 283 283 283 283 283 284 284 283 282 281 280 280 279 277 276 274 273 270 270 268 267 268 269 268 270 267 268
285 285 286 286 285 285 285 284 283 283 282 283 284 283 283 284 284 283 283 284 284 284 284 284 284 282 283 281 281 279 278 276 275 272 270 267 267 268 266 266 267 268 265
283 283 283 283 284 284 284 283 283 282 282 282 283 284 284 284 284 285 285 285 285 284 284 284 284 283 283 283 282 280 277 276 276 272 269 267 266 268 267 266 266 267 265
282 282 283 282 283 284 284 281 282 282 282 282 283 283 283 284 284 284 284 284 285 285 285 285 284 284 283 282 282 280 278 277 275 272 272 268 265 265 265 265 264 266 265
281 282 283 283 283 283 281 279 278 279 278 277 278 278 279 280 281 283 283 282 283 283 284 285 285 284 283 282 282 280 279 277 274 272 272 271 269 266 266 267 265 264 266

GFSGL_sfc_thetae_045.txt.gz
Theta_e
305 303 302 300 302 303 301 299 298 296 296 294 293 293 293 293 292 290 290 290 289 288 288 288 287 287 285 284 283 282 280 280 277 279 281 281 281 281 283 284 285 285 285
305 303 302 303 303 301 300 297 297 296 295 293 294 293 294 292 290 290 290 290 289 288 288 287 286 287 283 281 280 279 278 278 277 276 278 279 279 281 281 281 284 286 285
303 303 304 303 302 299 299 298 295 294 293 293 294 293 293 291 290 290 290 289 288 287 286 285 284 283 280 279 279 278 278 280 277 276 276 279 279 279 280 282 282 282 285
302 302 301 301 300 298 296 296 294 294 293 294 293 294 294 292 291 292 290 287 286 285 285 284 284 281 280 279 279 277 278 277 277 276 276 277 278 279 279 278 279 281 281
302 301 300 301 298 297 296 295 295 294 294 294 293 293 292 291 291 288 287 285 284 283 284 284 283 285 288 283 280 277 277 276 276 275 276 276 277 277 277 280 278 278 278
301 299 298 298 296 296 295 295 294 294 293 293 292 292 291 291 288 288 286 283 283 282 281 282 282 285 284 284 283 282 280 276 275 273 275 275 276 278 277 276 276 275 274
298 297 297 297 296 295 294 293 292 291 291 291 291 291 290 288 288 287 285 282 281 281 280 281 281 283 281 279 279 280 279 280 279 277 275 276 276 276 276 276 276 276 276
295 295 294 294 294 293 292 292 291 292 291 290 289 290 289 290 287 287 285 281 281 281 281 281 280 279 278 278 277 276 276 277 278 278 276 276 276 278 278 279 278 278 279
294 293 293 293 292 292 291 291 291 290 290 289 289 288 288 287 287 286 283 281 281 280 282 281 281 278 280 280 277 276 275 276 279 281 280 281 282 283 283 281 278 277 275
292 292 293 293 292 291 291 290 290 290 290 289 288 287 288 284 286 286 284 280 279 280 280 280 281 279 280 280 274 273 272 274 276 276 276 277 279 280 282 280 278 276 277
293 293 293 293 292 291 290 289 289 288 287 286 285 285 285 285 283 287 286 280 280 279 279 278 279 281 281 281 280 275 273 276 277 276 275 276 277 278 279 279 279 279 278
292 292 292 291 290 291 289 288 288 287 285 284 280 282 282 284 286 287 287 285 282 277 279 278 279 283 282 282 280 280 280 278 271 272 272 273 274 275 277 278 279 280 281
291 290 289 290 290 290 287 286 285 285 282 283 282 279 281 283 282 286 286 285 284 280 278 279 282 283 282 281 281 282 278 274 271 268 270 271 273 275 277 278 279 279 280
287 287 288 287 287 287 287 286 284 280 279 281 280 280 279 280 279 279 281 283 284 282 279 279 277 278 275 276 276 278 276 274 272 270 269 271 273 273 273 276 275 277 277
287 287 286 286 285 285 286 285 282 282 281 280 280 280 277 277 281 283 281 280 279 279 278 278 276 273 274 276 276 275 275 274 272 269 269 270 272 273 273 275 276 277 273
285 284 282 282 282 283 283 283 285 285 286 286 286 282 282 285 286 286 286 285 285 283 276 271 267 266 270 275 275 273 271 272 272 271 268 270 270 270 272 274 275 274 274
283 283 282 283 282 282 281 282 282 283 287 287 287 287 286 286 285 286 285 285 284 282 272 272 268 270 272 276 277 274 272 272 272 270 269 267 268 271 271 272 271 273 273
283 283 283 283 283 283 283 283 284 282 281 281 283 285 285 286 286 285 285 284 278 280 279 276 273 273 274 276 278 274 272 270 270 269 266 263 262 266 267 270 271 266 271
284 282 283 284 284 284 285 285 284 283 280 281 282 280 280 285 285 286 285 282 279 277 278 278 278 275 276 277 275 274 269 267 265 263 263 264 262 265 265 268 268 267 266
287 285 286 286 284 285 284 284 284 284 284 283 282 280 281 277 279 281 283 282 281 279 279 278 278 277 278 279 278 274 271 267 266 264 263 265 260 262 263 264 264 265 268
283 283 281 283 283 284 283 284 284 284 284 283 280 279 278 282 283 280 280 281 281 281 280 279 279 278 279 279 277 275 275 273 271 270 268 264 259 263 264 265 263 268 268
281 281 280 280 281 281 281 284 284 281 278 277 278 279 280 283 282 282 283 283 283 283 282 281 280 281 280 280 279 276 274 272 271 269 267 263 264 264 263 264 262 264 265
276 277 278 279 279 280 280 282 283 281 280 277 276 278 278 280 282 282 283 283 284 283 284 284 283 282 281 281 281 280 277 275 274 273 269 266 265 263 262 263 263 263 262
276 277 278 279 280 280 281 280 282 281 278 279 279 279 280 281 283 283 282 284 285 284 284 284 283 283 283 282 282 281 279 278 276 275 271 268 266 265 262 263 262 261 261
274 274 275 275 276 276 277 277 277 277 276 271 272 272 274 276 276 278 279 281 283 284 284 284 284 284 283 283 282 281 279 279 275 273 270 267 266 263 261 262 260 262 261
271 271 270 271 271 272 273 273 274 274 272 271 271 270 272 273 273 274 274 273 273 273 280 282 284 284 284 283 283 281 279 279 275 272 272 271 268 266 261 261 262 261 263

GFSGL_sfc_thetae_048.txt.gz
Theta_e
305 305 303 302 304 304 301 300 297 298 297 295 293 292 292 292 292 290 289 289 288 287 287 286 286 286 284 283 281 281 280 278 275 277 278 279 278 279 281 282 283 283 283
303 302 302 303 304 302 300 299 299 297 296 294 294 293 293 292 290 289 289 289 288 287 287 286 285 287 282 281 280 279 278 278 276 275 276 277 277 279 279 279 282 284 283
303 302 303 304 302 301 299 298 298 295 293 292 293 292 292 292 290 289 289 289 288 286 285 284 283 283 281 280 279 278 277 279 277 276 276 277 277 278 278 280 280 280 283
303 302 303 303 301 298 298 294 293 293 292 291 292 293 292 292 291 292 291 289 286 285 286 285 284 282 280 279 278 277 277 276 276 275 276 276 276 278 278 277 278 279 278
303 302 302 302 298 297 295 294 293 293 292 292 293 292 293 292 292 290 288 286 285 284 284 284 284 284 287 284 279 277 277 275 275 275 274 275 276 276 276 278 276 276 277
302 301 300 297 297 296 294 293 294 293 292 292 292 292 291 291 290 289 287 284 284 283 281 282 282 284 285 285 284 283 280 276 274 272 274 274 274 276 276 275 275 274 274
298 297 297 296 295 294 293 293 291 291 291 291 290 290 290 290 289 289 288 283 282 281 281 281 281 283 282 279 281 280 279 280 278 275 273 273 273 275 275 275 276 276 276
293 293 294 294 293 293 292 292 291 292 290 290 289 289 288 290 289 289 287 281 280 281 281 282 280 279 279 278 277 276 277 276 277 277 276 275 275 277 278 279 279 279 278
292 292 292 292 292 292 292 291 291 289 289 289 289 287 286 287 289 288 285 280 280 281 283 282 280 279 280 282 278 276 276 276 279 280 280 281 281 281 281 279 276 275 274
291 291 292 293 293 292 291 289 289 288 287 287 286 286 287 285 287 288 286 279 279 280 281 280 283 280 281 281 275 274 272 274 275 276 276 277 278 278 280 278 277 275 275
294 294 294 293 291 289 288 287 287 286 285 284 284 284 284 284 283 288 287 280 280 280 280 279 279 282 281 281 282 276 274 277 276 276 275 275 276 276 277 277 278 277 276
293 292 290 289 289 289 286 286 285 284 283 282 278 281 281 283 285 286 287 286 283 279 279 281 279 282 282 283 281 281 281 279 273 272 272 273 273 274 275 276 277 278 278
290 288 287 287 287 287 285 284 283 282 280 281 281 280 280 282 283 286 286 287 286 280 280 280 281 282 282 281 282 282 278 275 272 267 270 271 272 274 276 276 277 277 278
286 285 285 285 285 285 284 284 282 278 277 280 280 280 279 280 280 281 281 283 286 283 280 281 278 278 274 275 275 278 277 274 273 271 269 270 272 272 273 274 273 275 276
285 285 284 284 283 283 284 284 283 282 281 280 280 280 277 277 280 283 283 281 280 282 278 277 278 275 275 275 276 276 276 275 272 270 269 269 271 272 271 274 274 274 272
283 283 282 281 281 282 282 283 285 285 285 285 286 282 282 284 285 286 286 286 285 283 279 275 276 272 273 273 273 274 275 273 273 272 268 270 269 269 270 272 273 271 271
282 282 282 282 282 281 282 281 281 285 286 286 286 287 287 286 286 286 286 286 285 284 278 274 273 271 271 273 273 274 274 274 273 272 271 269 267 269 268 270 270 270 271
282 282 281 281 282 283 282 282 283 282 282 283 285 285 286 286 286 286 286 285 282 282 280 279 276 274 273 274 274 274 275 271 271 271 269 265 262 265 266 267 269 263 267
282 282 282 282 282 282 284 284 284 284 284 284 285 281 282 284 285 285 286 283 282 278 279 279 279 278 275 275 275 274 272 271 270 266 267 265 260 265 264 265 265 265 265
280 279 279 280 280 280 280 280 281 282 282 283 283 281 276 274 273 277 281 283 283 280 279 279 279 279 278 276 275 275 271 271 271 269 264 261 259 262 262 262 261 262 267
275 276 276 277 277 277 277 278 278 279 279 281 283 281 276 275 279 281 282 281 282 282 280 280 279 279 279 278 277 277 275 274 274 272 269 266 260 262 263 262 262 265 267
275 275 276 276 277 277 278 279 279 280 280 280 282 280 275 272 280 280 281 283 283 282 283 282 280 280 279 279 279 278 276 275 273 272 269 267 266 264 262 262 261 261 263
274 273 272 273 274 274 275 277 276 275 277 280 279 277 276 276 277 278 280 283 283 283 284 283 281 280 281 281 281 281 278 276 276 274 271 267 265 264 259 261 261 261 260
270 271 269 269 269 270 271 271 273 273 272 273 272 272 272 272 272 275 274 275 275 275 281 284 283 282 283 282 282 281 281 280 279 276 275 270 268 265 262 262 262 259 259
266 267 265 265 266 266 267 268 268 268 269 269 269 270 270 271 270 268 270 271 272 272 272 273 280 283 283 283 282 281 281 281 278 277 275 272 270 267 266 264 260 262 259
265 266 264 263 264 264 264 265 265 265 265 266 267 267 267 268 266 266 267 267 268 269 270 271 273 278 284 284 283 282 281 279 278 276 274 272 270 267 267 267 263 260 262

GFSGL_sfc_thetae_051.txt.gz
Theta_e
307 304 303 303 302 302 300 298 297 297 297 298 296 294 293 292 291 289 288 288 288 288 287 286 285 285 283 282 282 281 279 278 276 277 278 278 277 277 279 279 281 280 282
307 305 303 303 301 299 298 297 299 299 298 296 295 293 293 291 290 290 289 288 287 287 287 285 285 286 283 282 280 279 279 278 276 275 276 276 276 277 277 277 280 283 281
304 303 301 301 300 298 299 300 299 296 296 294 293 292 291 291 291 289 288 288 287 287 286 284 284 283 282 281 280 278 277 279 277 275 276 276 276 276 277 278 279 279 282
303 302 301 302 301 301 300 298 295 293 293 292 292 292 292 292 291 290 290 289 288 287 285 284 284 283 281 280 279 278 277 276 276 275 275 275 275 277 277 276 277 278 277
303 303 302 302 300 298 296 293 293 294 293 293 292 292 291 291 291 289 289 286 285 284 284 284 283 284 285 283 280 277 276 275 275 274 274 274 274 274 274 276 275 275 277
303 303 299 297 296 296 295 294 293 293 293 292 292 291 290 290 290 290 288 284 284 282 282 281 282 284 285 287 286 284 279 276 274 272 272 272 273 274 274 274 274 274 273
298 297 297 296 295 294 293 292 292 292 292 291 290 290 289 288 290 290 289 283 282 281 280 280 281 283 283 281 283 282 281 281 278 274 272 272 272 274 274 275 275 276 276
295 294 293 293 292 293 293 293 293 293 290 289 288 288 287 288 289 290 288 283 281 281 280 282 282 281 280 279 278 277 277 277 277 276 275 275 275 276 276 278 278 277 277
291 292 292 293 292 292 293 292 291 289 288 287 287 286 285 285 288 289 287 282 280 280 281 281 282 280 282 283 278 277 277 277 279 280 280 281 281 281 280 276 274 274 273
291 292 293 293 294 293 291 289 288 287 286 285 284 284 286 284 287 289 287 280 279 280 280 281 284 282 282 282 276 275 273 276 276 275 276 277 278 277 279 277 275 273 273
294 294 295 294 291 290 287 286 285 284 283 282 283 283 283 283 284 288 288 281 281 280 280 280 280 283 283 282 282 276 274 277 276 276 276 275 276 276 276 277 277 275 273
293 292 290 290 288 287 285 284 284 283 282 282 278 281 281 282 285 286 288 287 284 280 280 281 281 283 283 283 282 281 282 279 276 274 272 272 272 273 275 276 277 277 277
289 287 286 286 286 285 283 283 282 281 280 280 281 280 281 281 281 285 287 287 286 282 282 282 282 283 284 282 283 283 279 276 273 268 271 271 271 273 275 276 277 276 277
284 284 284 283 283 283 283 283 281 280 279 281 280 280 280 280 279 280 280 281 285 285 282 283 281 281 279 278 277 279 276 275 274 273 271 270 271 272 271 273 271 273 273
283 283 283 283 282 282 282 283 283 283 283 283 283 282 281 280 281 283 281 279 279 281 281 281 279 278 278 277 277 276 275 274 272 270 269 269 270 271 270 272 272 272 269
283 282 281 280 280 281 281 282 285 285 285 286 286 284 285 284 285 286 286 286 286 285 280 278 277 277 277 276 275 276 274 273 274 272 270 271 270 269 269 271 271 269 268
281 282 281 281 281 281 281 281 280 283 286 286 286 286 287 286 287 286 286 286 286 285 281 278 277 277 276 275 275 274 273 273 274 272 271 270 270 269 268 269 268 269 268
279 280 278 278 279 279 279 279 280 279 279 279 283 285 286 286 286 286 286 285 283 283 282 279 275 276 276 276 275 274 274 274 271 270 269 270 266 266 266 267 268 263 266
277 276 276 275 276 276 276 276 277 277 277 277 279 280 282 285 285 285 285 282 281 281 282 281 279 278 277 277 276 275 274 273 267 266 270 269 265 266 264 265 264 264 263
275 274 274 275 275 276 276 276 277 277 277 277 278 278 280 279 280 278 274 274 278 281 282 279 280 280 279 277 276 275 273 271 268 269 269 269 266 264 264 262 259 261 266
274 274 273 274 274 274 274 273 275 275 273 273 274 278 279 280 281 278 280 281 281 281 282 280 279 280 280 279 278 276 275 273 272 272 272 270 266 263 264 263 260 263 266
272 272 271 270 271 269 270 272 272 272 271 271 271 273 273 273 274 277 277 277 277 280 282 282 281 280 280 279 279 278 277 276 275 274 272 271 269 266 263 261 260 260 262
268 268 266 267 267 266 267 267 268 267 268 268 269 270 270 271 270 269 270 271 271 271 273 274 279 281 281 280 281 280 278 277 277 276 274 272 269 266 261 260 261 260 260
265 263 264 264 263 264 263 264 265 264 264 265 266 267 267 268 267 267 267 267 267 268 270 271 272 273 280 281 281 281 281 281 279 277 276 273 271 267 265 261 261 259 258
260 259 258 260 260 261 260 262 261 262 262 262 263 264 266 266 266 265 265 265 265 266 267 269 270 270 272 272 281 281 281 281 280 278 276 274 272 270 268 265 262 262 259
261 260 259 257 257 258 258 260 259 259 260 261 262 262 263 264 265 264 264 263 263 264 265 267 268 269 270 273 276 282 281 280 280 277 276 274 272 270 268 267 265 263 265

GFSGL_sfc_thetae_054.txt.gz
Theta_e
315 313 309 305 303 302 301 299 298 298 298 297 297 296 294 294 293 291 290 289 288 287 288 287 286 285 284 283 283 282 281 280 277 279 279 280 279 279 280 280 281 281 282
311 307 304 303 303 303 299 300 299 299 300 299 297 294 294 293 292 291 289 289 288 287 287 286 285 286 283 282 281 281 279 279 278 276 277 278 278 279 279 278 280 282 282
307 305 304 303 302 301 299 299 301 300 298 295 295 294 293 292 291 291 290 289 288 287 287 285 284 283 281 282 282 280 279 280 278 276 276 278 278 278 278 279 279 280 281
305 305 303 302 302 299 300 301 299 296 294 293 293 293 293 292 292 291 289 288 287 287 286 285 283 282 281 282 280 279 279 277 277 276 276 276 276 277 278 276 276 278 278
302 302 302 302 301 300 299 296 295 294 292 293 293 293 293 292 291 289 288 287 286 285 284 283 283 284 286 284 280 279 278 276 276 276 275 275 275 274 274 276 275 276 277
302 301 301 300 298 295 294 294 294 293 293 293 293 292 291 291 290 291 289 285 285 283 283 282 282 285 285 287 288 287 280 277 276 274 274 274 273 274 275 274 274 274 273
298 298 297 296 295 294 293 292 292 293 294 292 292 290 289 288 289 290 290 285 284 283 282 281 281 283 285 283 283 286 284 283 279 277 274 274 273 275 276 275 275 276 276
294 293 293 293 292 293 294 294 294 294 293 291 288 287 286 287 289 289 289 285 283 282 282 281 280 281 281 282 280 278 278 279 279 278 277 275 276 277 277 277 277 276 277
292 292 293 293 293 293 293 293 293 291 289 286 286 285 284 284 287 288 287 284 282 282 282 281 281 281 284 285 280 278 278 278 281 282 281 281 281 281 281 278 274 274 272
292 292 294 295 295 294 293 291 289 287 286 285 284 284 285 283 286 288 287 282 281 282 281 281 284 283 284 284 279 277 275 277 277 277 276 278 280 278 279 278 276 273 272
295 296 295 294 292 290 287 286 284 283 283 282 282 282 283 283 283 287 288 284 283 282 281 281 281 284 285 284 283 278 276 278 277 276 276 277 277 277 277 278 277 276 273
292 290 289 288 287 286 284 283 283 282 281 281 279 281 282 283 284 285 287 287 285 282 281 281 282 284 285 285 283 282 281 279 277 276 275 275 275 275 276 277 277 278 278
286 285 284 284 284 283 283 282 282 281 280 281 281 281 282 283 281 285 286 286 286 283 283 282 283 284 285 283 284 283 281 279 277 276 275 275 275 276 277 276 277 277 277
283 282 283 282 283 282 282 282 281 279 279 281 281 281 282 282 282 281 281 281 284 284 282 284 282 282 281 282 281 282 282 279 278 276 275 275 274 274 274 275 273 274 274
282 282 282 281 281 281 281 281 281 281 281 281 282 282 282 282 283 285 283 282 282 282 281 281 281 280 280 279 279 279 279 278 276 275 273 273 272 273 273 274 274 273 271
280 280 279 279 278 279 279 279 283 283 284 284 284 282 283 284 286 286 287 287 286 285 281 280 280 279 278 278 278 277 278 276 277 275 273 274 273 272 272 272 273 271 270
278 278 277 277 277 277 276 276 274 278 281 281 282 282 283 283 283 284 285 286 286 285 282 280 280 279 278 278 278 277 276 277 277 275 274 273 272 272 271 271 271 271 270
276 275 274 274 274 274 273 275 275 275 275 276 278 279 280 279 282 283 284 284 283 283 283 281 281 280 279 278 278 277 277 277 274 274 272 271 270 271 270 270 271 268 269
275 274 274 272 272 275 275 274 273 274 275 273 273 274 274 276 278 282 283 280 281 280 280 279 282 281 279 279 278 278 277 276 274 270 271 270 268 270 269 270 269 266 266
274 273 272 273 272 271 271 271 272 272 271 270 270 270 271 272 270 271 274 278 278 276 280 280 281 282 281 279 278 278 277 275 273 271 270 269 269 269 269 268 266 267 270
272 272 269 270 269 269 268 269 269 268 267 268 268 269 269 270 269 269 269 270 270 271 272 274 280 281 280 280 278 278 277 275 275 273 272 271 269 270 269 268 267 267 269
269 268 268 267 267 266 266 266 267 265 265 265 265 266 267 267 268 267 267 267 267 268 269 271 272 272 279 280 280 279 277 276 275 274 273 271 271 271 270 267 266 266 268
266 263 263 265 263 262 261 262 263 262 262 262 262 264 264 264 265 266 265 266 266 266 267 268 268 270 272 272 279 280 279 278 278 277 275 272 272 271 268 267 267 265 266
263 259 262 260 258 260 255 256 257 258 260 260 259 261 262 262 263 264 264 265 265 265 265 265 266 267 268 270 272 275 281 281 280 279 278 275 273 271 269 268 267 266 265
256 254 254 255 254 252 252 254 253 254 257 257 258 259 261 261 261 262 262 263 264 263 264 264 264 265 266 267 269 272 273 280 281 280 278 276 274 271 270 270 267 266 264
259 257 255 253 251 250 249 251 251 251 254 255 256 257 258 259 261 260 261 261 262 262 263 264 263 263 265 267 270 271 272 275 281 279 278 276 273 272 271 270 268 267 267

GFSGL_sfc_thetae_057.txt.gz
Theta_e
322 321 320 319 318 314 310 307 304 300 300 299 300 300 300 297 296 295 294 294 295 296 295 295 295 295 294 294 293 292 290 289 286 288 288 288 287 287 287 287 286 286 286
321 319 319 317 313 310 306 303 301 299 300 301 301 298 296 295 294 293 294 295 295 294 295 294 294 293 293 293 292 290 289 290 287 285 287 286 286 287 286 285 284 284 285
317 316 312 310 308 306 303 301 301 301 301 301 297 296 297 296 296 297 297 296 295 295 295 294 294 294 292 292 291 289 290 289 287 285 284 286 285 286 285 284 283 284 284
310 309 307 306 305 304 303 301 301 302 299 297 296 295 296 295 295 297 296 296 296 295 295 294 294 293 292 292 290 289 289 287 286 285 284 284 284 285 284 281 281 283 282
307 306 304 304 302 302 302 301 297 297 296 296 296 295 295 295 295 295 296 296 295 295 295 294 294 293 291 290 289 289 287 286 285 284 283 283 283 283 281 281 280 281 282
307 304 302 301 300 298 297 296 296 296 295 294 294 294 294 294 292 291 292 296 295 293 293 294 293 289 289 288 289 288 287 287 285 284 283 282 282 282 281 280 280 279 278
303 301 298 297 296 296 294 294 293 293 297 296 294 294 293 296 291 291 290 294 294 294 293 292 291 289 288 289 287 286 286 286 283 285 283 283 282 282 280 280 280 279 279
296 295 295 294 293 296 296 296 296 296 295 296 294 295 294 293 289 289 289 294 294 293 293 292 291 291 290 289 287 287 287 287 286 284 284 284 284 282 282 281 281 280 281
293 294 295 295 295 296 295 294 295 295 294 294 293 293 292 292 289 288 288 292 291 291 292 291 291 290 288 286 286 285 285 285 284 283 283 283 282 281 282 282 280 279 278
296 297 298 297 296 295 294 293 294 294 292 291 291 291 290 290 289 288 288 291 290 290 291 291 287 288 286 285 286 286 283 284 284 283 283 283 282 283 281 282 281 278 278
297 295 293 292 292 293 292 292 291 291 290 290 289 290 290 290 290 288 288 289 290 290 289 289 290 286 285 285 285 286 285 286 283 283 283 282 282 282 283 283 283 281 278
291 290 290 290 289 289 290 290 289 289 288 288 288 288 290 289 288 288 288 287 288 288 288 290 290 287 285 285 286 285 284 283 284 283 282 281 282 282 283 283 283 282 282
289 288 288 288 288 288 288 287 287 287 286 285 285 285 285 288 288 287 286 285 285 287 289 289 287 286 285 285 285 285 283 283 283 281 281 281 282 283 283 282 281 282 281
287 286 286 285 284 285 284 284 284 283 283 282 282 282 283 283 285 286 287 288 286 287 286 287 286 285 285 286 285 285 285 286 284 282 282 283 283 281 280 282 280 280 278
284 283 282 282 281 281 282 282 281 282 282 281 282 281 281 281 282 282 283 283 284 284 285 286 285 285 283 283 284 284 285 285 283 283 282 281 280 280 280 281 280 279 277
280 280 279 280 280 280 279 279 280 280 280 281 281 280 281 280 279 280 280 282 283 284 284 283 284 284 283 283 283 283 283 282 283 282 282 281 280 280 280 280 279 278 277
278 278 278 278 278 278 278 277 276 279 279 280 278 278 278 277 278 279 279 280 283 283 282 284 284 284 283 282 282 282 282 283 283 282 281 281 281 280 279 279 279 278 277
277 276 277 277 277 277 277 276 276 275 275 276 276 276 275 275 276 276 276 277 277 280 282 283 284 285 284 283 283 283 283 282 281 281 281 281 280 279 279 278 278 277 277
276 276 275 276 275 274 275 274 275 274 273 273 274 274 273 273 274 274 274 273 272 273 274 274 280 284 284 284 283 283 283 282 282 281 281 280 280 280 279 279 278 275 274
275 273 273 274 273 273 272 272 272 272 271 271 271 270 270 270 270 271 271 271 271 271 271 271 273 275 278 284 284 284 283 282 281 280 281 281 280 279 279 278 278 277 276
274 272 270 272 271 270 270 270 270 269 268 269 269 269 266 267 268 269 269 269 269 269 269 269 271 272 274 276 280 284 283 282 281 281 281 280 279 278 279 279 279 276 276
271 270 270 269 269 268 267 268 268 267 267 266 267 267 265 268 268 267 268 268 268 269 268 268 268 270 271 272 273 274 281 282 281 281 281 280 279 278 278 278 277 277 276
268 267 267 267 266 265 265 265 265 265 265 265 265 265 265 266 266 266 267 266 267 267 268 267 267 268 269 270 272 273 274 277 282 282 280 280 279 278 278 277 276 275 275
267 266 265 265 264 264 263 263 263 262 262 263 263 263 264 264 264 264 265 265 265 266 266 266 267 267 267 267 269 271 274 274 275 281 281 280 279 278 278 277 276 275 275
266 265 264 264 263 262 261 261 261 261 261 261 262 262 262 263 263 263 264 264 263 264 264 265 266 266 266 266 267 269 271 269 271 273 282 281 280 278 277 276 276 275 274
266 265 264 263 262 261 261 260 260 260 259 260 260 261 261 261 262 262 262 263 262 261 262 264 265 265 265 266 268 268 267 268 271 272 279 281 279 278 277 276 275 275 273

GFSGL_sfc_thetae_060.txt.gz
Theta_e
329 329 324 323 323 323 321 317 314 313 311 309 302 302 301 302 299 297 297 295 294 297 299 299 299 300 298 298 298 297 295 294 290 292 294 295 293 292 292 292 292 291 290
328 327 323 323 321 321 318 313 311 307 303 302 301 302 301 298 296 295 295 296 298 298 299 299 298 297 298 298 297 296 295 295 292 289 293 292 292 293 292 291 289 289 289
325 322 320 319 317 313 308 304 302 301 300 300 302 300 296 296 295 295 297 299 300 299 299 298 298 298 297 297 296 295 295 293 293 291 290 292 291 291 290 290 289 288 288
317 314 310 309 307 304 303 302 301 302 301 302 298 297 296 296 297 298 298 299 300 299 299 298 298 298 297 296 295 295 294 292 292 291 289 289 289 290 290 287 286 287 286
309 308 307 306 305 303 302 301 302 302 299 299 297 296 297 297 297 298 298 299 299 298 299 298 299 297 295 295 295 294 293 292 291 289 287 287 287 287 286 287 285 285 286
308 305 303 303 302 301 301 302 303 301 299 297 296 295 295 295 293 292 293 299 298 297 297 298 298 295 294 291 289 289 290 291 289 287 286 285 286 288 287 286 284 282 281
306 304 304 305 304 303 302 298 295 296 295 295 295 296 296 297 293 293 291 296 297 297 297 297 296 295 294 295 290 288 288 287 285 289 287 287 287 287 287 285 284 283 283
303 303 302 301 299 298 299 298 297 297 296 297 298 296 298 299 291 290 289 295 295 295 296 296 295 295 295 294 293 292 292 291 289 288 289 289 288 288 287 285 284 284 284
300 301 301 301 300 298 297 297 297 297 297 296 298 297 297 297 291 289 289 294 294 294 295 295 295 294 292 291 292 291 290 290 289 287 287 286 285 283 283 284 283 282 281
301 300 301 302 300 297 295 295 299 299 297 296 294 295 293 294 291 290 290 293 292 293 294 294 290 291 290 288 291 290 288 289 288 288 287 285 284 286 283 284 284 281 281
301 299 298 296 297 297 296 296 296 295 294 294 293 294 294 293 293 289 289 290 290 290 290 291 293 289 288 287 287 290 290 290 288 288 287 287 286 286 286 285 284 284 282
297 294 294 294 293 293 294 294 294 294 292 292 292 290 291 291 288 288 287 287 287 287 287 288 290 288 288 287 287 287 286 286 289 288 285 284 284 284 285 286 286 286 286
294 293 292 292 292 291 291 291 290 289 287 287 286 286 287 288 288 286 285 283 283 285 287 287 286 286 286 286 286 285 285 288 286 285 285 284 285 287 286 286 285 285 285
291 290 290 287 288 287 287 287 286 286 285 284 284 284 284 284 285 284 283 284 283 284 285 288 286 284 284 285 286 287 286 287 286 285 286 286 287 286 284 284 283 282 282
288 286 286 286 285 286 285 284 284 284 282 282 283 282 281 281 281 279 279 280 282 282 282 285 286 286 286 286 287 286 288 287 286 286 286 285 285 284 284 284 283 281 280
284 284 283 284 284 284 284 284 280 279 279 280 279 279 280 278 277 278 278 278 279 280 283 283 284 285 285 285 286 286 286 285 285 286 286 285 283 283 282 283 283 281 280
282 282 282 282 282 282 282 281 281 282 279 279 277 277 276 276 276 277 277 277 279 279 279 280 280 281 285 286 286 286 285 287 286 285 285 284 283 283 283 282 282 280 279
280 278 282 282 281 281 281 280 280 279 278 279 278 276 275 274 274 276 276 277 277 278 277 276 277 278 279 281 286 286 286 286 286 284 284 285 284 283 282 280 280 280 280
280 280 280 280 279 278 279 279 278 278 277 277 277 277 276 273 274 275 275 276 274 274 275 275 275 275 276 278 280 285 285 285 285 284 284 284 284 283 282 281 281 280 279
278 275 276 278 278 277 277 277 276 276 275 275 275 275 274 272 274 274 275 275 273 273 273 273 274 274 273 275 277 280 282 285 285 284 284 284 284 283 282 281 281 280 278
278 276 273 277 276 275 275 275 274 274 273 273 273 273 268 269 272 273 272 273 272 272 272 272 272 272 273 273 274 275 277 279 284 284 284 283 284 282 282 282 281 280 279
275 274 275 274 274 273 272 273 273 272 272 271 272 272 269 272 272 271 271 271 271 271 271 271 271 271 272 271 271 272 274 275 279 281 283 283 283 283 282 281 281 280 279
273 273 273 272 271 270 272 271 271 271 270 270 270 270 270 270 270 270 270 270 271 270 271 270 270 270 271 271 271 271 272 273 276 276 275 283 283 282 282 281 280 279 279
272 272 271 271 271 270 270 269 269 268 268 268 269 269 269 268 269 268 268 269 269 269 269 268 268 268 269 269 270 270 271 273 273 273 273 275 283 282 282 281 280 280 279
272 271 270 270 270 269 268 268 268 268 267 267 268 268 268 268 268 268 268 267 267 267 267 267 267 268 268 268 268 268 270 270 269 270 272 274 280 283 282 281 281 280 279
271 270 270 269 269 268 267 266 266 266 266 266 266 266 266 266 266 266 266 266 266 265 265 267 267 267 267 267 268 269 268 268 269 270 271 272 276 282 282 281 280 280 278

GFSGL_sfc_thetae_063.txt.gz
Theta_e
333 332 332 328 326 325 324 322 322 322 319 314 311 303 302 301 302 302 298 296 295 295 296 298 299 301 300 300 299 298 296 295 291 294 295 297 297 297 296 296 295 294 293
333 333 328 326 324 322 321 321 320 314 309 306 303 302 302 301 300 297 295 296 295 295 298 300 300 299 300 300 298 297 296 296 294 292 294 294 295 296 296 295 292 292 292
329 329 325 322 321 313 308 306 304 303 302 301 302 301 301 298 296 296 296 296 297 299 300 300 300 299 299 299 298 297 297 295 296 293 292 295 295 295 294 294 293 293 291
323 317 313 311 308 305 303 302 301 301 301 301 301 298 298 297 296 296 297 298 299 299 301 300 299 299 298 298 298 298 297 296 295 293 292 292 293 294 292 290 290 291 289
312 309 307 306 305 304 303 302 302 302 301 299 298 297 297 297 297 297 298 297 298 298 300 300 300 299 296 296 296 297 296 295 294 292 291 291 290 289 288 290 288 289 289
307 305 305 305 303 303 302 300 300 299 299 298 298 297 296 297 293 293 294 295 297 298 298 299 300 297 297 293 292 292 293 293 292 291 290 288 289 289 290 289 288 285 283
306 306 306 305 304 304 304 302 300 300 298 296 295 295 296 298 293 293 292 298 297 297 297 297 297 297 295 297 293 290 290 289 286 291 289 289 288 289 289 287 286 285 284
309 308 307 305 303 303 302 302 300 297 296 297 297 298 299 300 295 293 290 295 295 295 296 296 297 297 297 296 296 295 295 294 292 290 290 290 290 291 290 288 287 285 285
305 304 304 304 302 302 300 299 300 298 298 299 300 299 298 298 292 290 290 293 293 293 294 294 294 295 293 292 293 292 293 293 293 291 291 290 287 285 284 286 284 283 282
304 304 304 303 302 301 300 300 300 301 298 298 296 296 291 294 289 289 290 292 290 291 291 292 290 290 288 288 290 291 289 291 292 292 290 289 287 287 284 285 285 282 282
304 303 302 300 299 300 299 298 297 296 295 295 294 295 295 293 292 288 287 287 287 285 286 287 289 287 287 287 287 288 288 291 290 291 290 290 289 288 287 287 286 284 282
301 299 298 297 296 296 296 295 295 295 294 292 291 290 291 291 287 286 284 283 283 283 283 285 286 285 285 285 285 286 286 286 289 288 287 288 287 286 288 288 287 287 287
298 296 295 294 294 293 293 292 292 290 289 288 287 287 287 288 288 285 283 282 282 283 284 284 283 283 284 285 285 285 285 286 285 285 286 286 287 288 288 288 288 288 287
294 293 292 291 290 289 289 289 288 288 287 285 285 285 285 284 285 283 281 281 281 282 281 283 282 282 283 283 284 286 288 286 285 285 287 288 289 288 287 287 286 285 283
291 290 289 288 288 287 287 286 285 284 282 283 284 283 281 281 280 278 278 279 279 279 280 282 284 284 284 285 286 287 287 288 285 285 286 287 287 286 286 286 285 283 282
287 287 287 287 286 286 286 284 280 280 280 280 278 279 280 278 277 277 277 278 278 279 279 280 280 280 280 281 282 283 287 287 286 287 287 287 286 285 285 285 284 283 281
286 285 283 284 284 284 284 284 283 281 280 280 278 277 276 276 276 276 277 277 278 278 278 278 278 278 278 279 279 280 283 287 287 286 285 286 286 285 285 284 283 283 281
282 281 284 284 284 284 283 282 282 281 280 281 279 277 276 276 275 275 276 277 278 278 277 276 276 276 277 277 277 278 279 282 287 286 286 286 286 285 284 283 283 282 281
283 282 283 282 281 280 281 281 280 279 279 279 279 279 279 275 275 277 277 276 275 275 275 275 276 275 275 275 276 276 277 279 281 285 285 285 285 285 283 283 283 281 281
279 277 278 280 280 279 279 278 278 278 277 278 277 277 277 274 273 276 276 276 275 274 274 273 274 274 274 274 275 274 274 276 277 280 285 285 285 285 283 283 282 281 280
280 277 274 278 278 277 277 276 276 276 276 276 276 276 270 271 272 274 274 274 274 273 273 272 272 273 273 273 273 273 272 273 275 278 280 283 285 283 284 283 283 282 281
276 275 276 276 276 276 274 275 275 275 274 274 274 275 272 273 273 273 273 273 273 273 273 272 272 271 272 272 272 272 271 271 273 275 276 275 277 283 284 283 282 282 281
275 275 275 275 274 272 274 274 274 274 273 273 273 272 273 272 272 271 271 271 271 272 271 271 271 270 271 271 272 272 271 270 271 274 272 273 274 275 283 282 282 281 280
274 274 273 273 274 271 273 272 273 271 271 272 272 271 271 271 271 270 270 271 270 270 270 270 269 269 269 270 271 271 271 271 271 271 271 271 272 274 277 282 282 281 280
274 273 273 272 272 272 272 272 271 271 270 270 270 270 270 270 269 269 269 269 268 268 268 268 268 269 269 268 268 269 270 270 270 269 269 271 271 271 273 280 282 281 280
273 272 272 272 271 271 270 270 269 269 269 269 269 268 268 268 268 268 268 267 267 267 266 268 268 267 267 268 269 269 269 268 267 267 269 270 270 271 273 280 282 281 280

GFSGL_sfc_thetae_066.txt.gz
Theta_e
329 329 329 331 328 326 323 322 322 320 318 314 312 307 303 300 301 300 298 296 295 295 296 296 295 297 297 298 297 296 294 292 288 289 290 291 290 290 292 291 292 290 290
331 329 329 328 325 322 319 318 318 314 313 309 306 302 301 301 301 297 296 296 295 294 295 296 297 300 297 297 296 295 292 291 289 287 289 289 289 290 290 289 291 292 288
327 327 326 322 319 311 308 307 306 305 304 303 302 301 301 299 297 297 296 296 296 296 297 298 298 298 296 294 295 292 292 294 290 288 288 288 288 289 288 289 288 288 291
320 315 310 308 306 304 303 304 302 302 302 301 301 299 297 297 297 297 297 297 297 299 299 298 299 296 295 295 294 292 293 290 290 289 289 288 286 288 288 286 284 286 285
310 307 305 306 304 303 302 302 302 301 301 299 298 297 297 297 297 297 297 298 297 297 297 298 297 297 297 295 295 292 290 289 288 287 287 285 284 284 283 283 283 283 284
305 304 304 303 303 302 302 300 299 298 298 297 296 296 296 297 294 294 295 296 295 295 294 296 296 295 295 293 293 292 293 291 290 288 287 285 284 284 284 283 282 281 281
305 304 304 304 302 301 301 299 298 297 298 297 296 296 295 296 293 293 292 295 294 293 292 292 293 295 293 293 292 291 290 290 288 290 288 287 286 286 285 284 283 282 281
306 306 305 304 303 302 301 301 299 297 295 295 295 296 297 298 294 293 291 292 291 291 291 291 290 290 291 289 288 287 289 290 289 288 287 288 289 289 287 286 284 282 281
306 305 304 303 302 301 299 297 297 297 297 297 298 297 297 292 290 289 289 289 289 288 290 289 288 287 288 288 285 284 285 286 291 291 291 291 290 290 289 284 279 280 277
303 303 303 303 301 299 299 298 298 299 298 298 295 294 291 288 288 287 287 284 283 282 283 285 286 286 286 286 283 283 281 283 284 285 285 288 289 288 286 284 282 280 278
304 303 302 301 300 300 299 299 298 294 294 290 290 290 291 289 286 285 285 281 280 280 280 280 281 284 284 284 284 281 280 282 282 282 283 285 288 287 286 283 283 282 280
303 300 299 299 298 297 294 293 293 293 290 287 285 285 285 286 285 284 283 282 281 279 279 280 280 282 283 283 282 283 284 283 283 283 283 283 285 287 286 284 284 283 282
298 296 295 295 294 294 292 290 289 288 285 284 283 283 283 283 282 282 281 280 280 278 279 280 280 281 282 282 284 284 283 282 281 282 282 282 284 287 287 285 286 284 283
294 293 292 290 289 288 288 287 287 284 283 282 282 281 281 281 279 278 277 277 279 278 278 277 278 279 280 280 281 281 282 282 283 283 283 284 285 286 284 284 283 280 280
292 290 287 287 287 286 283 283 282 280 280 280 280 280 276 275 276 277 276 276 276 277 275 276 277 277 277 277 277 278 278 279 279 283 284 283 284 285 284 284 284 282 279
288 287 286 285 284 285 283 281 282 280 281 280 279 278 278 278 277 277 277 277 278 278 275 274 273 273 273 274 275 275 276 276 278 278 283 284 284 283 282 284 283 281 277
284 284 283 284 283 282 282 282 278 279 281 280 279 278 277 276 276 277 277 277 278 278 272 273 270 271 272 273 274 274 273 275 276 277 282 283 283 282 280 281 281 281 280
282 283 283 283 283 282 281 281 280 279 278 278 279 278 278 276 276 276 277 277 274 275 274 272 271 271 272 272 272 272 273 273 273 275 276 281 279 281 280 280 281 280 280
282 282 282 281 279 279 280 280 279 278 278 278 278 278 276 276 275 276 278 273 270 271 272 271 270 271 271 271 271 271 272 271 272 273 274 276 281 278 278 280 280 280 279
277 278 279 279 279 279 279 278 278 277 277 277 276 275 274 272 269 269 271 269 269 270 270 270 271 270 270 270 270 270 270 270 270 271 272 274 274 278 278 278 281 280 279
278 275 275 278 277 276 276 276 276 275 275 275 274 271 269 269 267 270 270 268 270 269 268 270 270 269 269 269 269 269 269 268 269 270 270 271 271 271 274 281 282 281 280
276 276 276 275 275 275 274 274 274 274 274 273 272 273 270 268 271 269 268 268 266 267 269 268 268 268 268 268 267 266 267 267 268 269 268 269 270 270 272 272 281 280 279
275 275 274 274 274 272 272 274 273 272 272 271 271 271 270 269 267 268 267 266 267 266 266 267 266 267 268 266 267 268 267 267 267 268 267 268 268 268 269 271 274 280 279
274 273 273 273 273 271 271 272 271 271 270 270 269 269 269 268 266 265 265 266 265 265 265 266 266 264 265 266 267 267 268 267 267 268 268 266 266 267 269 269 271 278 279
274 273 272 272 272 271 270 271 270 269 269 269 268 268 267 267 267 266 265 265 265 264 266 264 264 266 266 265 265 265 266 268 267 266 266 266 265 266 267 269 270 272 279
273 272 272 271 271 271 270 269 268 268 267 267 267 265 266 266 266 265 265 264 265 264 263 264 264 264 264 265 266 267 266 266 265 265 266 266 266 266 267 269 270 271 279

GFSGL_sfc_thetae_069.txt.gz
Theta_e
323 323 323 322 323 322 321 321 321 319 316 313 312 310 306 303 302 301 299 298 297 296 297 297 296 297 295 296 295 295 293 291 287 287 288 289 288 288 290 290 290 290 290
325 324 323 321 322 321 321 322 318 316 314 312 308 305 303 301 301 299 297 297 296 296 296 295 295 297 296 296 295 293 291 291 288 286 286 287 287 288 288 288 290 292 289
326 322 321 318 320 319 313 312 311 309 307 306 305 303 301 300 298 297 297 297 296 296 296 296 296 297 294 296 295 293 291 293 289 287 289 287 287 287 288 288 289 289 289
316 312 310 309 307 307 306 305 303 304 303 302 302 300 298 298 298 297 297 296 297 297 298 298 298 296 296 292 292 291 291 288 289 286 289 287 285 287 286 284 283 285 284
308 306 304 304 305 304 302 302 301 301 300 300 298 298 298 297 297 297 297 296 297 297 297 297 297 296 296 294 295 291 288 287 286 287 287 284 282 282 282 284 284 283 284
305 304 303 302 302 301 300 300 299 299 298 298 297 296 296 297 293 294 296 296 296 295 293 293 293 294 293 292 291 290 289 288 287 287 287 287 287 282 283 284 285 283 281
304 303 303 302 301 300 300 299 297 297 297 296 296 296 295 296 293 294 292 293 291 290 290 289 290 291 289 287 287 287 286 288 285 284 284 285 286 286 284 284 285 285 284
303 303 303 301 300 299 299 298 297 296 294 293 295 295 296 296 292 292 290 290 289 288 287 286 285 284 285 285 283 282 282 284 285 286 284 286 286 288 287 288 287 286 285
304 303 302 301 300 300 298 296 294 293 294 295 296 295 292 288 289 288 288 285 285 283 284 283 283 282 285 285 282 279 279 279 283 286 287 287 288 287 288 287 285 283 281
303 302 301 301 299 296 294 294 295 295 296 296 294 290 288 285 287 287 285 281 279 279 280 281 283 283 284 284 280 279 278 279 279 280 281 282 284 284 286 287 287 283 282
301 301 301 299 297 297 296 295 295 293 290 287 286 287 285 284 284 284 283 279 278 279 278 278 278 281 281 282 283 280 280 282 282 282 282 283 283 284 284 286 286 285 282
300 299 298 298 299 297 293 291 291 289 286 284 283 282 282 281 283 282 282 281 280 278 278 277 278 280 281 282 282 283 283 281 281 281 281 281 281 282 283 285 286 285 286
297 296 294 293 293 291 289 287 286 285 282 281 281 281 279 279 277 279 279 279 279 277 278 278 279 280 280 280 280 280 279 278 277 277 277 279 283 284 284 285 286 284 284
292 290 289 287 286 285 286 285 282 280 279 280 280 278 278 276 275 275 276 274 277 277 277 276 276 278 277 277 276 277 277 276 275 275 277 277 280 283 283 284 284 283 282
289 286 285 284 282 281 281 280 278 278 280 278 277 278 274 272 276 276 276 276 273 277 274 274 275 275 275 274 274 274 274 274 273 274 274 276 277 283 283 285 284 283 280
285 283 281 280 280 280 279 279 281 281 281 281 280 277 278 278 277 277 278 278 278 278 273 270 267 266 269 272 271 271 272 272 273 273 273 274 275 281 283 283 283 281 280
281 283 282 282 281 281 280 279 277 280 281 280 280 279 279 277 276 277 277 277 278 277 271 269 265 263 264 271 271 270 269 271 272 271 271 273 275 274 282 282 282 281 279
283 282 281 281 280 280 279 279 279 278 276 277 280 278 278 277 276 277 277 277 273 274 272 269 265 264 266 268 269 269 269 269 269 269 269 271 273 273 272 281 281 280 277
281 280 279 278 278 279 279 279 279 278 278 277 278 277 276 276 275 275 275 271 268 269 270 269 264 266 266 267 263 263 263 267 267 267 267 269 270 270 270 272 279 277 276
278 278 279 279 278 278 278 277 277 276 276 276 275 274 273 271 265 264 266 266 264 267 265 267 267 267 265 264 260 260 265 264 266 266 267 267 268 269 269 269 271 279 279
276 276 277 277 276 276 275 275 275 274 274 274 272 270 269 269 267 266 269 265 264 264 261 263 263 260 261 262 266 265 263 263 265 265 266 266 267 267 268 269 269 270 279
276 276 275 274 275 273 272 273 273 273 273 271 270 271 268 265 266 267 266 261 259 261 261 261 260 261 262 265 264 262 262 264 263 265 264 264 265 267 267 266 267 270 273
274 274 273 273 273 272 271 273 271 270 269 268 268 268 268 264 263 266 262 258 260 260 259 259 256 261 261 260 260 264 265 264 265 264 263 264 265 265 265 265 267 267 268
273 272 273 272 271 270 269 268 268 268 268 266 264 264 264 264 262 262 260 258 257 255 254 255 260 261 262 263 264 264 265 265 265 266 265 263 263 264 265 265 266 267 268
272 271 270 270 269 266 266 266 265 264 263 263 263 262 264 261 262 260 257 255 257 253 259 258 257 260 260 260 261 262 263 265 265 265 265 264 263 263 264 265 266 267 268
271 270 269 268 267 265 263 262 262 262 261 262 261 259 259 260 258 253 256 257 260 259 257 259 260 259 260 262 263 264 264 264 265 265 265 265 263 264 265 266 266 266 267

GFSGL_sfc_thetae_072.txt.gz
Theta_e
319 319 318 319 320 320 318 318 319 318 318 319 316 312 311 310 307 304 302 300 300 298 298 298 297 298 296 295 296 296 294 291 288 289 288 289 287 288 290 290 291 290 291
321 322 321 320 320 320 320 320 321 319 317 315 314 311 308 306 304 302 300 299 298 297 297 297 297 297 295 295 295 293 290 290 288 288 286 286 287 288 288 288 290 291 290
323 322 321 321 321 320 321 319 315 314 315 311 308 306 304 302 300 300 299 298 298 298 297 296 296 296 295 295 293 293 295 295 292 289 290 287 286 287 286 287 288 289 290
318 316 316 314 315 317 315 313 311 311 307 306 306 304 301 299 299 298 299 298 297 297 297 297 297 297 296 294 294 293 291 287 287 287 288 287 284 287 288 287 286 285 287
310 309 306 306 306 305 305 304 304 304 304 304 300 298 299 298 298 298 298 297 296 297 298 298 297 296 296 294 293 288 287 287 286 284 285 286 284 281 281 284 283 284 282
307 304 304 304 303 303 301 300 300 300 300 299 298 298 297 297 293 294 296 296 297 296 294 293 291 289 289 288 288 287 286 282 280 280 281 282 283 284 283 285 283 284 283
305 304 303 303 301 300 300 299 298 298 298 297 296 296 296 296 293 294 293 295 293 291 287 286 287 286 285 284 284 284 283 285 283 281 280 280 281 283 284 285 285 284 284
304 303 303 302 300 300 299 298 297 297 296 295 295 295 296 296 292 292 290 290 286 285 283 283 281 281 283 282 281 279 279 279 279 280 279 280 281 283 283 284 283 283 285
303 302 302 301 299 299 297 296 295 294 295 295 296 296 293 292 291 289 287 283 282 281 282 281 281 280 283 283 280 278 278 279 283 285 285 285 285 285 285 282 280 279 278
303 302 302 300 300 297 296 295 293 294 295 296 294 290 288 286 288 287 284 280 278 278 279 280 281 280 281 281 279 278 278 279 280 282 282 283 284 283 284 282 282 280 280
303 301 300 298 296 295 294 294 293 292 290 286 285 285 283 283 284 284 283 279 278 278 278 277 277 280 281 282 282 279 279 279 279 279 279 279 280 281 282 283 284 282 281
299 297 296 296 296 295 293 292 290 288 284 283 281 280 280 280 283 282 282 280 279 278 277 277 277 280 281 281 279 280 279 278 276 275 275 277 277 277 278 282 284 284 284
297 295 295 294 293 291 289 287 286 285 283 281 281 278 277 277 277 280 279 279 278 277 278 278 278 279 279 279 278 278 276 275 273 273 273 274 275 276 278 280 284 285 285
291 291 289 285 284 284 284 283 282 280 280 281 280 278 277 276 275 276 276 276 277 277 277 277 276 277 276 276 276 276 275 274 273 272 272 273 274 275 276 279 283 283 283
288 285 283 282 282 280 279 279 279 280 280 280 279 279 275 274 276 277 277 277 275 277 275 275 275 274 273 273 273 273 273 272 271 271 271 270 271 273 274 276 276 283 281
284 282 282 281 280 280 279 279 282 282 282 281 280 279 278 278 278 278 278 277 278 278 275 272 269 267 269 271 270 270 270 270 270 270 269 269 269 270 272 273 275 282 280
282 282 282 282 281 280 280 279 277 280 281 281 280 280 279 278 277 278 278 278 277 276 271 270 265 264 266 270 269 269 268 268 269 268 268 267 268 269 270 270 271 279 280
281 281 280 280 280 279 279 279 279 278 277 278 280 279 278 277 277 276 276 276 274 274 272 270 268 268 268 268 268 267 267 266 265 266 266 265 266 267 268 269 270 269 277
280 279 279 279 279 279 279 278 278 278 277 277 278 277 277 276 275 274 274 272 270 270 270 269 268 268 267 267 262 260 258 259 260 262 262 263 264 265 266 268 269 268 269
279 279 279 278 278 277 277 277 276 276 275 275 275 274 273 272 269 268 269 267 267 269 268 268 268 267 262 263 259 257 260 259 261 262 261 263 260 263 264 266 267 267 267
277 277 277 277 276 276 275 274 274 274 273 273 272 271 271 270 269 268 269 267 267 267 264 266 263 260 260 259 263 258 260 257 261 264 263 263 261 262 264 266 266 266 268
275 275 275 274 274 273 272 273 273 272 272 271 270 271 270 267 268 268 268 265 263 265 265 262 260 260 261 262 261 254 259 260 261 262 262 263 263 263 264 263 265 265 267
273 273 273 273 273 272 271 272 270 270 269 268 268 268 268 265 264 265 265 263 264 261 261 260 256 259 260 257 257 260 262 262 262 263 262 262 263 262 261 262 264 264 265
273 272 272 271 270 270 269 268 268 268 267 266 264 265 263 263 260 260 260 259 259 257 254 254 256 258 260 257 256 259 262 261 263 263 264 263 262 263 262 262 263 264 265
270 269 268 267 267 266 264 264 263 262 262 262 262 261 262 260 260 256 256 254 254 253 255 255 255 257 257 257 258 259 260 261 263 264 263 263 263 262 262 262 263 264 265
268 267 266 266 265 265 264 263 262 261 260 259 258 256 256 255 256 250 252 254 254 254 255 255 256 257 257 259 260 262 261 262 262 262 263 263 262 262 262 262 263 265 265

GFSGL_sfc_thetae_075.txt.gz
Theta_e
315 316 315 314 314 316 316 314 315 316 316 316 316 315 312 310 309 308 306 304 303 301 300 300 299 299 298 297 296 296 295 294 291 292 289 288 287 288 289 289 291 290 291
318 319 317 318 317 317 317 317 317 318 318 318 319 319 313 310 309 307 303 303 302 301 299 298 298 298 296 296 295 294 294 292 289 285 287 287 286 288 287 287 290 291 289
319 319 319 319 318 318 317 318 318 319 319 320 316 313 311 309 306 304 303 301 300 300 299 298 297 296 295 295 295 294 293 295 292 289 290 289 286 286 286 286 287 287 289
318 318 318 318 318 318 318 318 319 320 317 313 313 311 306 303 302 301 301 300 299 298 298 297 297 297 296 295 295 294 293 290 288 284 283 284 284 285 284 284 286 285 285
317 317 316 312 312 312 314 316 312 311 310 308 305 302 301 300 301 300 299 298 297 296 297 298 298 296 293 292 293 287 284 282 281 280 280 280 280 280 281 282 283 284 285
310 311 308 308 307 305 304 303 302 302 302 301 300 299 298 299 296 295 297 297 297 296 295 293 290 289 288 288 287 287 284 280 278 278 278 277 277 278 280 280 281 281 279
308 306 305 305 303 302 302 301 300 301 300 298 297 298 297 296 293 294 293 296 294 292 289 288 286 285 284 282 283 282 282 282 280 278 276 276 277 278 278 279 279 279 279
306 306 305 304 302 301 300 299 298 297 296 296 296 296 296 295 292 292 291 290 287 285 284 283 282 281 282 281 280 278 279 279 280 280 277 277 278 279 280 281 280 280 281
304 304 304 302 300 299 298 296 296 296 296 296 296 296 295 294 290 289 288 285 283 281 281 281 280 279 282 282 279 278 278 279 282 283 283 284 284 285 284 282 280 279 278
303 302 302 301 300 298 296 295 296 297 296 296 291 290 290 289 289 288 285 282 280 279 279 279 281 280 280 281 280 278 277 277 277 278 278 279 281 281 282 282 281 279 279
303 301 301 300 298 297 296 295 295 295 291 286 284 284 284 285 285 285 284 279 279 278 278 277 277 279 281 281 281 279 278 277 277 276 276 276 277 278 279 279 279 279 279
301 299 297 297 296 295 294 293 291 289 285 283 282 280 281 282 283 283 282 281 280 279 277 277 278 279 280 280 278 278 278 276 274 273 273 273 273 274 275 276 278 279 279
297 296 295 294 293 291 291 287 285 285 283 282 281 279 277 278 278 281 280 279 278 278 278 278 278 279 279 278 277 277 276 274 272 270 271 271 272 273 274 275 277 278 280
293 290 289 287 285 285 285 285 284 283 283 282 279 277 276 276 276 277 277 277 278 278 277 278 277 278 277 276 276 275 274 273 271 271 270 271 272 272 271 273 273 274 273
287 286 284 283 281 280 281 282 281 281 283 282 280 279 276 275 276 278 278 277 277 278 276 276 274 273 273 273 273 273 272 272 270 270 269 269 269 269 269 271 271 272 271
284 283 282 281 280 280 279 279 282 282 282 282 281 279 279 279 279 278 278 278 278 278 275 272 269 269 270 271 270 270 270 269 269 269 268 268 267 266 267 268 270 270 270
282 282 281 281 280 280 280 279 277 280 282 281 281 280 279 278 278 278 278 278 278 276 271 270 266 265 267 270 269 269 268 269 269 267 266 266 265 265 265 266 267 269 269
281 281 281 280 280 280 279 279 279 279 277 278 280 279 279 278 277 277 277 276 274 273 272 270 268 269 269 268 268 267 267 266 265 264 263 263 260 264 263 264 265 266 267
281 279 279 279 279 278 279 278 278 277 277 277 278 278 278 277 275 275 274 272 271 270 270 269 269 269 268 267 266 263 260 261 259 255 258 259 258 262 262 262 264 265 266
279 279 278 278 277 276 276 275 275 275 275 275 274 274 273 272 269 268 270 268 268 269 269 268 268 268 266 265 262 260 259 255 256 257 257 255 257 258 261 261 262 263 265
276 276 276 276 274 274 274 273 274 273 273 272 271 271 272 270 269 269 269 268 267 267 266 266 266 264 263 262 264 261 258 254 258 259 261 261 259 259 261 262 263 262 264
275 274 274 273 272 272 272 272 271 271 271 270 270 270 269 267 267 267 266 264 263 266 265 263 261 262 262 261 260 255 256 255 256 258 258 261 262 262 262 261 260 261 263
273 272 272 272 272 270 270 270 269 268 267 266 266 266 266 263 263 264 263 261 263 261 260 259 256 260 260 259 257 258 258 259 260 260 260 260 261 261 261 261 260 260 262
271 270 270 269 268 267 266 265 265 265 265 262 262 263 263 261 259 259 257 255 254 252 252 253 255 257 258 256 254 256 259 259 261 261 261 261 261 262 261 261 261 260 261
268 267 266 265 264 262 261 261 260 259 259 257 256 255 258 255 255 250 249 249 251 250 254 254 254 255 255 255 256 257 257 259 260 261 261 261 260 260 260 261 261 260 261
266 264 263 262 260 260 257 254 253 252 252 253 253 253 253 254 253 247 251 253 253 254 254 254 255 255 255 256 258 259 258 258 258 259 260 260 259 259 260 260 260 260 262

GFSGL_sfc_thetae_078.txt.gz
Theta_e
309 310 310 312 313 314 315 315 314 314 314 315 316 316 315 314 313 312 312 309 307 307 305 305 305 303 300 299 298 297 296 295 292 294 293 293 291 291 292 292 292 292 292
312 313 313 315 316 316 316 317 317 315 315 316 316 316 316 314 312 311 309 306 306 304 303 303 301 300 298 297 296 295 295 294 292 290 290 290 289 290 290 289 291 292 291
313 314 314 315 315 315 315 316 315 316 315 316 317 316 316 312 310 309 308 305 305 304 302 302 301 299 296 296 295 295 294 295 292 290 290 291 290 288 288 288 289 290 290
313 314 314 316 316 316 313 313 314 316 316 316 316 314 311 308 307 306 304 302 302 303 302 302 299 298 296 295 295 294 294 291 289 288 287 286 285 286 285 284 284 286 286
314 314 314 315 317 315 313 313 313 314 315 314 310 307 305 304 303 302 302 300 299 299 299 299 297 296 293 293 295 288 287 285 284 283 281 281 281 281 280 282 281 282 284
313 314 315 313 313 313 310 309 309 308 307 306 305 304 302 300 294 295 298 299 299 298 293 290 289 288 287 287 287 286 285 282 280 279 279 278 277 278 280 280 279 279 278
312 312 311 308 307 305 304 303 302 301 301 299 299 299 298 297 295 295 294 297 296 292 289 287 286 286 285 284 283 283 282 282 280 280 277 278 278 279 279 278 279 279 278
309 307 307 306 304 302 302 301 298 298 298 297 297 297 296 294 292 291 290 290 287 286 285 285 284 283 283 282 280 280 280 280 281 281 279 280 280 280 281 282 281 281 281
306 305 305 304 302 301 299 297 297 296 296 296 297 296 294 292 289 288 287 285 283 282 282 282 282 281 282 282 280 280 279 280 282 282 282 282 282 282 283 282 279 278 277
304 303 303 303 301 298 296 296 297 297 295 292 290 292 290 289 288 287 285 283 281 280 280 281 281 280 281 282 280 279 277 277 278 278 277 278 279 280 281 281 280 277 276
302 302 301 300 298 297 296 296 296 291 287 285 284 284 285 285 286 286 285 282 281 280 278 277 278 280 281 282 280 279 277 277 276 275 275 276 277 277 277 277 277 276 275
301 298 297 297 296 295 293 292 290 287 284 283 282 281 281 282 283 283 282 282 281 279 278 277 278 280 281 280 278 278 277 276 275 274 273 273 273 273 274 275 276 277 278
297 295 294 293 293 293 290 288 287 286 284 282 281 280 278 279 280 281 280 279 279 278 278 278 279 279 279 278 277 277 276 274 273 271 271 271 272 273 273 274 275 276 276
292 291 290 288 287 287 287 287 286 284 283 282 281 279 278 277 277 277 277 278 279 278 277 278 277 278 276 276 276 275 274 273 272 271 270 271 272 271 270 271 271 272 272
290 288 286 285 284 282 282 282 282 283 284 282 280 279 277 276 277 278 278 277 277 278 276 276 274 274 273 273 273 273 272 272 270 270 269 269 269 269 268 270 269 269 269
283 281 281 281 281 280 280 279 283 283 283 283 282 280 279 279 280 279 279 279 278 278 275 273 270 270 270 271 271 270 271 270 270 269 268 267 267 267 266 267 267 267 267
281 281 281 281 280 280 280 279 277 280 282 281 281 280 280 279 279 279 279 278 278 276 272 271 269 268 269 270 270 269 268 269 269 268 267 266 265 266 265 265 265 265 265
281 281 281 281 280 280 280 279 279 278 276 277 280 280 280 279 278 278 277 276 274 274 273 271 269 269 269 269 269 268 267 267 266 266 264 264 263 263 263 263 263 262 263
280 279 279 279 278 278 278 277 277 277 277 277 277 276 276 277 276 275 275 273 272 271 271 270 270 269 269 268 267 266 264 263 263 262 260 260 259 261 262 262 262 262 262
278 277 277 276 276 275 275 275 274 274 274 273 272 272 273 272 269 269 269 268 269 269 269 269 269 268 266 266 264 262 262 262 262 261 260 258 259 259 260 260 261 261 262
275 275 274 274 273 273 273 273 273 272 271 271 270 270 270 269 268 268 268 266 265 266 265 265 265 265 264 264 264 263 261 258 260 260 260 261 258 258 261 261 262 262 262
274 273 273 272 272 271 270 270 269 269 269 268 268 267 265 262 262 262 263 261 262 264 264 262 260 261 262 262 260 257 256 256 257 258 259 259 260 261 261 261 261 261 261
272 271 271 271 270 268 267 267 266 264 262 261 261 262 261 257 257 259 256 253 256 254 255 256 253 257 259 257 257 257 256 258 259 259 259 259 260 260 260 261 261 260 260
269 268 267 265 265 264 262 259 259 260 260 257 254 256 257 255 251 250 249 248 250 251 250 251 254 256 257 256 255 256 258 258 259 260 260 260 260 260 260 260 261 260 260
266 264 263 262 260 257 256 255 254 252 253 251 252 252 255 251 253 248 248 250 252 250 253 253 254 255 255 255 255 256 256 257 258 259 259 259 258 258 259 260 260 260 260
263 262 260 259 257 255 253 251 248 249 249 249 249 248 248 250 252 247 250 252 252 253 253 255 255 254 254 256 256 258 257 257 257 258 258 258 257 258 259 259 259 260 260

GFSGL_sfc_thetae_081.txt.gz
Theta_e
316 317 318 318 319 320 319 319 319 321 321 320 320 321 321 322 322 320 319 316 315 315 312 309 309 311 306 304 304 301 303 301 300 299 302 297 297 300 301 301 300 301 301
316 316 316 318 319 318 317 319 321 321 321 319 320 320 321 320 318 315 316 314 311 310 309 308 309 304 301 300 300 299 299 300 297 296 295 293 294 297 298 298 298 297 299
316 315 314 315 315 315 316 318 321 321 320 319 319 319 320 320 319 315 315 313 311 310 310 307 305 301 299 299 298 299 296 296 295 293 293 294 294 296 296 295 295 295 294
314 315 314 314 316 315 315 318 320 320 320 320 320 318 320 320 318 316 314 312 310 308 306 305 303 301 299 298 297 296 297 295 294 293 292 291 291 294 292 290 288 289 287
315 315 315 317 317 318 319 319 320 320 320 321 320 320 320 316 312 310 309 306 305 302 300 300 299 299 297 296 298 295 294 290 288 287 286 289 289 290 288 287 284 286 287
314 315 316 317 318 318 319 319 318 317 319 319 318 315 309 307 300 298 302 302 300 299 293 293 291 290 289 289 288 288 289 287 286 285 287 285 285 285 285 285 284 283 282
315 315 316 317 317 318 318 314 314 314 309 307 304 303 301 300 294 295 295 300 297 293 290 288 287 286 287 285 284 284 283 283 282 284 283 283 284 285 285 283 283 283 283
316 316 317 316 314 309 308 307 303 302 301 300 299 298 297 294 292 292 291 292 289 288 287 286 285 284 284 283 282 281 282 282 283 283 285 285 285 285 285 285 285 284 285
313 311 310 310 307 306 304 300 299 298 298 297 297 296 293 290 289 288 288 286 284 283 283 284 283 283 283 283 281 281 281 281 282 281 281 281 281 281 282 284 282 281 281
308 308 308 307 305 302 299 298 298 297 293 292 291 291 289 288 288 287 286 284 282 281 281 281 282 282 282 282 282 281 280 281 281 280 280 280 280 281 279 281 281 279 279
305 303 302 301 299 298 297 296 293 290 287 286 284 285 286 286 286 286 285 283 282 280 279 279 280 282 283 281 281 282 280 280 278 278 278 278 279 278 278 279 279 278 278
301 299 298 297 297 296 293 291 289 287 285 283 282 282 282 283 284 284 284 283 282 280 278 279 281 282 282 280 280 279 277 277 278 277 276 276 276 276 277 277 277 277 279
296 295 294 294 293 292 290 288 287 286 285 283 282 280 279 280 281 281 281 281 280 280 281 280 280 281 280 279 278 277 276 278 276 275 274 275 275 276 276 276 276 276 277
293 292 291 289 288 288 288 288 287 285 284 283 281 279 278 278 278 279 280 281 280 280 279 280 279 279 278 278 278 277 278 277 275 274 274 275 275 274 274 275 273 274 273
291 289 287 286 284 283 283 284 283 284 285 282 281 280 279 280 280 280 280 280 280 279 279 279 279 278 277 277 277 276 276 275 274 274 273 273 273 272 272 273 272 272 271
285 285 284 283 283 283 282 281 284 283 283 283 283 282 281 281 280 280 280 279 279 278 278 277 276 276 275 274 275 274 274 273 273 273 272 272 271 270 270 271 271 270 269
283 282 282 282 282 281 281 280 278 281 282 282 282 281 281 280 280 280 279 279 278 278 277 276 275 274 274 274 273 273 272 272 271 271 270 270 269 269 268 269 269 269 269
282 282 282 281 281 281 280 281 282 281 279 279 280 280 279 279 278 278 277 277 276 276 275 274 273 273 273 272 272 271 271 270 270 269 269 268 268 267 267 267 268 267 268
280 279 279 279 279 280 281 280 280 280 279 278 277 276 277 276 276 275 275 275 273 273 273 273 273 272 272 271 270 270 269 268 268 267 267 266 266 266 266 267 267 265 265
277 277 278 278 278 278 278 277 277 276 275 275 274 274 275 274 273 272 272 272 271 271 270 270 270 270 269 269 268 268 268 267 267 266 266 266 266 266 265 265 266 265 266
276 276 276 276 276 276 275 275 275 274 273 272 271 270 269 271 270 270 269 269 268 268 267 267 267 267 267 267 266 266 265 265 265 264 265 265 265 264 265 265 266 266 266
275 275 274 273 273 273 272 272 272 272 271 270 269 268 267 269 269 268 267 266 266 266 266 265 265 265 265 264 264 264 263 263 263 264 264 263 264 264 265 265 265 265 265
273 272 271 271 270 269 270 269 269 268 268 267 268 267 267 266 265 265 264 263 264 264 264 263 263 262 263 263 263 263 262 262 263 263 262 263 263 264 264 264 264 264 265
270 270 268 268 267 267 266 266 266 264 265 265 265 264 263 263 263 262 262 262 262 262 262 261 261 261 261 261 262 263 263 263 263 262 262 262 262 263 263 264 264 264 264
267 266 265 265 264 264 263 263 263 263 262 262 262 262 262 262 262 261 261 260 260 260 260 259 260 260 259 259 259 259 260 259 260 261 261 261 261 261 261 262 262 263 263
265 264 264 263 262 262 262 261 261 261 260 260 260 260 260 259 260 259 259 259 258 258 258 259 259 258 258 259 259 260 258 258 259 259 259 260 260 261 262 262 262 263 263

GFSGL_sfc_thetae_084.txt.gz
Theta_e
324 325 324 324 323 324 325 325 325 327 326 325 325 325 324 324 325 326 327 327 326 325 325 321 321 320 312 311 312 308 307 308 305 305 307 305 306 306 304 302 305 305 306
324 324 324 325 324 324 325 326 327 326 326 325 324 323 323 323 324 324 324 325 323 321 318 317 314 312 311 310 308 305 304 307 303 299 298 298 300 301 301 302 301 303 304
323 323 324 324 324 325 325 326 326 325 325 324 323 323 322 322 322 323 324 323 321 317 319 314 313 309 308 308 307 305 303 302 298 296 294 297 297 297 297 300 299 303 301
322 321 322 323 323 324 324 324 323 323 322 323 323 322 322 322 321 322 322 321 320 318 316 314 312 307 306 303 301 302 299 297 295 295 294 293 293 296 296 295 297 299 296
321 320 320 322 322 322 322 323 321 321 322 323 323 323 324 322 323 323 323 320 319 316 310 307 304 303 300 299 300 299 297 293 293 290 287 288 289 290 291 296 293 292 292
321 320 321 321 321 321 321 321 321 321 322 322 322 323 324 323 306 300 310 314 307 303 296 294 292 293 291 289 289 289 291 291 287 287 288 286 289 291 292 291 289 288 286
321 321 320 321 320 321 321 321 321 322 322 321 323 323 319 310 295 295 296 302 298 293 290 290 288 287 287 285 285 285 284 284 284 287 287 288 288 290 290 288 288 288 287
320 320 321 320 320 321 320 320 321 319 316 310 304 301 300 295 292 292 291 291 289 289 288 287 286 285 285 284 283 283 283 283 283 283 285 286 288 289 288 288 287 287 288
319 320 320 320 320 320 317 315 311 304 301 299 299 296 293 290 289 289 288 286 285 284 285 285 285 285 284 285 283 282 281 282 283 282 281 281 281 281 282 284 283 284 283
320 320 319 318 315 313 307 301 299 297 294 293 290 290 288 288 288 288 287 285 283 282 283 283 283 283 282 283 283 283 282 284 284 284 284 282 281 283 281 282 283 281 281
315 314 312 311 305 301 298 296 293 290 288 286 285 285 286 287 286 287 286 284 282 281 280 280 282 283 283 282 283 284 283 284 280 281 282 283 282 283 283 283 282 281 279
305 301 300 299 298 296 293 291 289 287 285 284 283 282 282 283 284 285 284 284 283 281 280 281 282 283 281 281 282 279 278 279 283 282 281 280 280 280 281 281 281 281 281
298 296 295 294 294 293 291 289 287 287 284 283 282 280 280 281 281 282 282 282 282 282 283 282 282 282 280 280 278 277 277 282 280 279 279 279 279 279 279 279 280 280 280
293 292 291 290 289 290 289 289 287 286 284 283 281 279 279 279 280 281 281 281 281 281 281 282 282 282 280 280 280 280 282 280 278 277 278 279 279 279 278 279 277 277 276
289 288 286 286 285 283 284 285 284 284 285 282 281 280 280 280 281 283 284 284 283 282 283 283 283 282 282 281 281 279 280 279 278 278 277 276 276 276 276 277 276 276 274
287 286 285 284 284 284 282 281 284 283 284 284 284 283 282 281 281 281 280 280 279 279 282 281 280 279 279 278 278 277 278 277 276 275 274 274 274 274 274 275 274 274 273
285 284 284 284 282 281 281 280 278 281 282 282 282 282 281 281 280 280 280 279 278 280 280 278 278 277 277 276 276 275 275 275 275 274 273 273 273 272 272 272 273 273 273
283 283 282 282 282 282 282 281 282 281 279 279 280 280 279 279 278 277 278 279 279 278 277 276 275 275 275 275 274 274 273 273 272 272 271 271 271 270 270 270 271 270 271
280 280 281 281 282 282 283 283 282 281 279 278 278 277 277 276 276 276 277 277 276 275 275 274 274 273 273 272 272 272 271 271 271 270 270 269 269 269 269 269 269 268 268
279 280 281 281 281 281 282 281 280 278 277 277 276 276 277 277 275 274 274 274 274 273 272 272 272 272 271 271 271 270 270 269 269 269 268 268 268 268 267 268 268 267 268
277 278 278 279 279 279 278 277 277 276 275 274 272 272 272 275 273 273 272 271 271 271 270 270 270 270 270 270 269 269 268 268 268 267 267 267 267 266 267 267 268 268 268
277 277 277 276 276 276 276 276 276 275 274 273 272 271 270 272 272 271 270 269 270 270 270 269 269 269 268 268 267 267 266 266 267 267 267 266 266 267 267 267 267 267 268
276 275 275 274 274 274 274 274 273 273 272 272 271 270 270 270 269 269 269 268 268 268 268 267 267 266 267 267 267 267 266 266 266 266 265 265 265 266 266 266 266 266 267
274 273 272 272 272 272 271 270 269 268 269 270 269 269 268 268 268 267 267 267 266 266 266 265 265 264 264 264 265 266 266 266 266 265 264 264 265 265 266 266 266 266 266
271 270 270 270 269 269 269 268 268 268 267 267 267 267 267 267 266 266 266 265 264 264 264 264 264 264 263 262 262 262 263 262 262 262 263 264 264 264 264 265 265 266 266
269 269 269 268 268 268 267 266 266 266 266 266 266 266 266 265 265 265 264 263 262 262 262 263 263 262 262 263 263 263 261 260 260 260 261 262 263 264 265 265 265 266 266

GFSGL_sfc_thetae_087.txt.gz
Theta_e
322 323 323 323 326 327 326 325 325 323 324 325 325 326 327 328 329 327 328 328 326 327 327 327 326 327 326 325 319 315 313 310 306 309 312 310 306 307 302 305 306 306 307
327 325 324 323 324 324 327 328 328 326 327 326 326 326 326 326 327 326 326 325 325 325 325 325 324 323 321 319 314 311 309 310 308 307 307 303 302 302 300 301 302 303 302
326 328 328 327 326 326 327 329 329 328 327 327 326 326 326 326 326 326 325 325 325 325 324 324 322 319 317 315 310 309 308 307 306 301 295 297 296 297 297 298 299 300 302
324 325 326 328 328 328 328 326 326 326 326 326 327 327 327 326 325 324 323 324 324 324 324 321 320 318 315 313 308 306 302 299 297 297 294 293 293 295 295 294 294 297 298
324 324 325 328 327 327 328 328 326 324 326 327 326 326 326 325 324 325 324 323 323 322 320 316 311 309 303 304 303 301 299 297 295 292 290 290 289 289 290 291 290 292 295
325 325 324 325 325 327 327 327 327 327 326 326 325 325 325 323 307 302 310 323 319 315 300 295 293 294 291 291 290 290 295 293 290 289 287 287 288 290 290 289 290 290 288
325 324 323 323 323 325 324 323 324 324 325 324 324 324 323 324 297 297 297 305 300 295 292 290 289 288 288 288 287 287 286 286 285 289 287 287 287 289 289 289 290 290 289
325 324 324 323 322 322 322 322 324 324 323 321 319 316 308 298 295 295 293 293 290 289 288 288 287 286 286 286 285 283 283 284 284 284 285 286 287 289 289 289 288 288 289
323 324 324 324 323 323 323 323 324 322 310 305 302 297 293 290 290 289 289 288 286 285 286 286 286 285 285 286 284 282 282 282 283 283 283 282 281 281 282 282 283 283 283
323 322 324 324 323 323 323 314 309 304 296 293 290 290 289 288 288 288 288 286 284 283 283 283 284 283 283 285 284 283 282 283 284 284 285 283 281 283 281 281 281 281 281
323 323 323 322 321 312 304 300 295 291 290 288 286 286 286 287 287 287 287 285 283 282 281 281 282 283 283 284 284 283 280 284 283 282 283 283 284 284 284 285 284 282 280
308 304 302 300 299 298 294 292 290 290 286 284 283 282 283 284 285 285 284 284 283 281 280 282 282 282 282 282 280 279 279 281 283 282 282 282 282 282 283 283 283 282 282
297 295 294 293 293 292 291 290 288 286 284 283 281 280 280 281 282 283 284 284 283 282 283 283 282 281 280 280 279 278 279 282 281 280 280 280 281 281 281 281 282 282 281
290 289 289 288 288 289 289 288 286 285 283 282 281 279 279 280 281 282 282 282 282 281 282 283 282 282 279 280 280 280 282 281 279 278 279 279 279 279 279 279 278 278 277
288 287 285 284 284 283 283 284 283 283 284 281 280 281 280 279 281 283 284 284 284 283 283 283 283 282 282 282 281 281 281 280 278 278 277 276 276 276 276 277 276 276 274
285 284 284 283 282 282 281 281 283 283 283 283 282 281 281 281 281 281 281 280 280 281 283 281 280 280 279 278 278 278 278 277 277 275 275 275 274 274 274 274 274 274 273
284 283 283 283 282 280 280 279 277 280 282 282 282 282 281 282 281 280 280 280 281 282 280 279 278 277 277 277 276 276 275 275 275 274 274 273 272 272 272 271 272 272 272
283 283 282 282 281 281 281 280 280 279 277 277 279 278 278 279 279 279 279 280 278 278 277 277 276 276 275 275 274 274 273 273 273 272 272 271 271 270 270 269 270 270 270
282 282 283 283 283 283 283 281 279 278 277 277 276 277 278 278 277 278 278 277 275 274 275 274 275 274 274 273 273 272 272 271 271 271 270 270 270 269 268 269 269 268 269
281 281 282 282 281 281 282 280 279 278 277 275 274 276 278 277 275 274 274 274 274 273 273 273 273 273 272 272 272 271 271 270 270 269 269 269 269 269 268 268 268 268 268
280 280 280 280 280 280 279 278 277 276 274 273 272 273 275 275 274 273 272 272 272 271 271 271 271 271 271 271 270 270 269 269 269 268 268 268 268 267 268 268 268 268 268
279 278 278 278 278 278 277 278 277 276 275 274 273 272 273 273 273 272 271 270 271 271 271 270 270 270 270 269 268 268 267 267 267 268 267 267 267 267 267 267 267 267 267
278 278 277 277 276 276 276 275 275 274 273 273 272 272 271 271 270 270 270 270 270 269 270 269 268 268 268 268 268 267 266 266 267 267 266 265 265 266 266 266 266 266 267
276 275 274 274 274 273 273 271 271 271 272 271 271 270 270 270 270 269 269 268 268 268 268 267 267 266 266 266 266 267 266 266 266 265 265 264 264 265 265 265 266 266 266
274 273 273 272 272 271 271 271 270 270 270 270 269 269 269 269 269 268 268 267 266 266 265 265 266 266 265 264 264 264 265 265 264 263 263 263 263 264 264 265 265 266 266
272 272 272 271 271 271 270 269 269 269 268 268 269 269 268 268 268 267 267 266 264 263 264 265 265 264 264 265 266 266 263 262 262 262 262 262 262 263 264 265 265 266 266

GFSGL_sfc_thetae_093.txt.gz
Theta_e
318 319 319 317 316 315 315 313 315 314 315 315 315 315 315 317 319 318 317 317 318 318 318 316 318 316 317 316 316 317 315 314 311 312 311 308 308 307 309 309 309 307 308
319 319 319 319 318 315 315 315 314 314 314 315 315 316 316 317 317 318 318 318 317 317 317 315 317 317 316 317 316 316 316 316 312 309 307 308 305 304 307 305 307 307 305
318 318 318 319 318 316 315 316 316 315 313 314 314 314 315 317 318 318 318 317 317 318 318 316 317 316 316 316 314 315 315 313 313 312 311 300 299 298 298 299 300 300 302
318 318 317 318 319 318 316 316 317 317 315 313 313 313 313 314 316 318 318 317 317 318 317 317 317 315 316 314 313 313 312 311 310 309 300 294 294 295 295 294 294 297 297
317 317 316 318 318 319 319 318 317 317 317 316 315 314 313 313 314 316 317 317 317 316 315 310 300 298 296 300 308 309 308 306 299 297 292 290 289 290 290 291 290 290 292
319 317 318 318 318 319 319 320 319 318 318 317 316 315 314 315 306 302 310 317 315 314 302 295 293 292 291 291 290 290 294 297 292 290 288 287 287 288 288 287 287 286 286
318 320 319 319 318 318 319 319 319 319 320 319 318 318 316 315 302 301 300 313 308 303 297 292 290 290 290 289 288 288 287 287 286 289 287 286 285 285 286 285 285 285 285
318 318 320 320 319 319 319 318 318 318 318 319 319 319 312 297 293 293 293 295 292 292 291 290 288 287 288 287 286 285 285 285 286 286 285 285 285 286 286 284 283 282 283
318 319 319 320 320 320 319 319 319 319 317 312 303 299 295 291 290 290 293 291 288 287 287 287 287 285 287 288 285 283 282 282 285 286 285 284 284 283 282 280 279 279 278
319 320 320 319 319 319 318 314 302 303 294 292 289 290 289 288 289 289 289 287 284 283 284 284 285 284 285 285 284 282 280 281 282 283 283 283 284 283 283 281 279 277 277
302 315 318 317 318 313 303 299 295 291 289 286 285 286 287 287 288 288 288 286 283 282 282 282 283 283 283 283 283 282 281 283 282 282 281 280 280 280 279 279 279 277 276
298 298 299 302 300 298 295 293 292 289 286 284 283 282 284 285 286 286 286 285 284 281 281 281 281 282 282 283 282 282 282 281 280 280 278 277 276 276 277 278 278 278 278
292 292 292 294 295 295 291 288 287 287 285 283 282 281 281 283 284 285 284 283 282 281 282 282 282 282 282 282 281 281 280 279 278 276 275 274 275 277 277 276 277 276 276
285 286 287 287 286 287 288 288 286 285 283 282 281 280 280 281 281 282 282 282 283 282 282 282 281 280 280 280 280 280 279 277 276 275 274 275 275 274 274 274 272 272 271
283 283 282 283 282 281 282 282 282 282 283 281 281 281 280 280 282 283 283 281 281 281 280 280 280 279 278 277 277 277 276 275 274 274 273 272 272 272 271 272 271 270 268
282 281 280 280 280 281 280 280 283 282 283 283 282 282 282 283 284 284 284 284 283 282 279 277 276 275 275 274 274 273 273 273 273 272 271 271 269 269 269 269 269 268 267
281 281 280 279 279 278 278 278 276 280 282 283 283 283 283 282 283 283 282 281 280 279 275 274 273 272 272 272 271 271 269 270 271 269 268 267 268 268 267 267 267 266 265
281 280 279 278 277 277 276 276 276 275 274 276 280 280 282 282 280 280 279 277 274 274 273 271 270 270 270 270 270 269 268 268 267 268 266 264 262 266 265 265 265 259 264
281 280 279 278 278 277 276 276 275 274 274 273 274 275 276 278 277 277 275 272 271 270 270 269 269 269 269 268 267 266 264 264 263 261 262 261 255 262 260 263 263 262 262
280 280 279 278 276 275 275 274 273 273 273 273 273 272 272 271 269 269 269 269 268 268 269 268 268 268 267 266 263 261 262 261 260 260 254 253 253 257 257 259 259 261 264
278 278 277 276 275 274 273 272 272 271 271 271 271 272 271 269 268 267 267 267 266 266 265 266 265 264 264 263 263 260 258 252 258 259 257 258 252 257 261 260 260 262 263
276 276 276 275 275 274 273 272 271 270 270 269 269 269 269 268 267 266 265 264 263 264 264 262 262 263 262 260 258 253 254 256 256 256 255 256 258 258 258 260 259 260 262
274 273 272 272 272 272 271 271 270 269 268 268 268 267 266 265 264 263 262 260 262 260 259 258 256 258 257 254 256 258 256 256 256 253 252 253 257 257 254 257 260 260 260
272 272 271 270 270 269 268 268 268 267 266 264 263 263 263 263 261 259 258 257 257 253 252 253 259 258 257 253 254 255 258 255 256 255 252 251 254 258 258 258 258 258 259
271 270 269 268 268 267 266 265 264 263 263 262 262 262 264 261 261 257 255 253 253 252 255 258 255 256 255 255 256 259 259 257 253 254 252 253 254 255 257 258 258 259 260
269 268 268 267 266 265 263 261 260 261 261 260 259 261 258 256 257 259 254 253 254 254 255 254 256 256 256 257 261 260 255 255 255 258 256 257 257 257 257 257 257 257 258

GFSGL_sfc_thetae_096.txt.gz
Theta_e
316 316 314 313 314 313 312 312 312 312 312 314 313 314 314 315 316 316 315 317 316 315 315 315 315 316 315 314 313 314 313 312 309 312 310 309 308 307 309 310 311 310 309
317 318 315 314 314 314 313 312 313 313 313 314 314 313 313 313 314 315 316 317 316 315 316 316 316 315 313 315 315 314 314 314 312 310 308 306 305 306 304 306 308 309 307
318 318 318 316 314 314 314 314 313 314 313 313 314 313 313 313 314 315 316 316 316 316 316 315 315 313 314 315 314 315 314 314 311 312 312 301 298 298 298 299 299 300 302
316 317 317 317 316 315 315 314 314 313 312 312 313 313 313 313 313 314 315 316 316 317 317 316 316 315 314 314 314 314 314 312 312 312 309 296 295 295 296 295 294 295 295
316 315 315 317 319 318 316 315 315 313 313 313 312 312 312 312 313 314 315 314 315 315 314 314 311 306 297 300 311 314 311 311 311 301 293 291 290 290 290 291 289 290 292
315 314 315 316 318 318 317 316 315 315 314 313 312 311 310 311 303 300 307 314 313 313 312 297 294 293 291 290 291 291 293 301 296 292 290 288 287 287 287 287 287 286 286
315 316 316 316 315 317 318 317 316 315 315 314 313 313 311 311 300 299 298 312 313 312 305 295 292 290 290 289 288 288 288 287 286 291 287 285 285 285 286 285 285 285 284
316 316 316 316 315 315 316 317 318 318 316 315 314 314 315 313 299 298 296 303 295 293 294 293 291 289 289 288 287 285 285 285 286 286 286 285 285 286 285 284 281 280 281
317 317 318 317 316 316 315 316 317 318 317 317 318 316 315 296 292 293 295 291 288 287 288 288 288 287 288 289 284 282 281 282 285 285 285 285 285 284 283 281 279 279 278
303 305 314 319 318 317 316 316 316 316 313 301 295 293 292 290 290 292 292 288 285 284 284 285 285 285 285 285 283 282 280 281 282 282 281 281 281 281 281 279 278 276 276
298 299 303 305 312 315 316 308 299 296 295 292 290 288 287 288 289 290 290 289 285 283 283 283 284 285 284 284 283 282 281 282 281 280 279 279 279 278 278 279 278 277 275
292 291 291 294 299 299 297 295 293 291 287 285 284 284 285 285 286 286 286 285 285 281 280 281 283 284 284 283 282 282 282 281 280 278 277 276 276 275 276 276 276 276 276
287 286 287 287 288 291 293 291 288 289 287 285 283 281 282 283 284 284 285 284 282 281 282 283 283 283 282 281 281 281 279 278 276 275 274 274 274 275 274 274 275 274 274
284 283 283 283 283 285 285 287 286 285 284 283 282 281 280 281 281 282 282 282 283 282 281 280 280 280 279 279 277 277 277 276 275 274 273 273 273 273 271 272 270 271 270
283 282 282 282 281 281 282 283 283 283 284 282 281 281 280 279 281 282 282 281 281 281 280 280 278 277 276 275 275 275 275 274 273 273 272 271 270 270 270 270 270 269 267
280 280 280 281 281 281 280 280 284 283 284 284 284 283 283 284 284 284 284 283 282 281 278 276 274 274 273 273 272 272 272 271 271 270 270 269 268 268 268 268 268 266 265
279 279 279 279 279 279 279 279 277 281 283 283 283 284 284 283 283 282 281 280 279 277 273 272 271 271 271 271 271 270 269 270 270 269 267 267 267 267 266 266 265 265 264
278 278 277 277 277 277 277 276 276 275 274 276 280 280 280 280 280 279 278 276 272 273 271 270 270 269 270 269 269 268 268 267 267 266 264 263 262 264 263 263 263 258 262
278 277 277 276 276 276 276 275 275 274 273 272 272 272 275 277 276 276 275 271 270 269 269 269 269 268 267 267 266 264 260 260 260 259 260 261 255 260 259 261 261 261 260
277 277 276 275 274 274 274 273 274 273 272 271 270 270 271 270 268 267 268 267 267 267 267 267 266 266 265 264 262 260 261 260 259 260 252 251 250 255 257 258 256 257 261
276 276 275 274 273 272 272 271 271 271 270 269 268 269 269 267 266 266 266 265 265 265 264 264 264 263 262 259 261 258 258 253 257 256 257 256 249 254 258 257 256 259 261
275 275 275 273 273 272 271 271 270 269 268 267 267 266 266 265 264 264 263 262 262 262 262 261 262 262 261 260 257 254 254 251 252 253 254 254 255 255 254 254 254 254 259
273 272 272 272 272 271 269 269 268 267 267 266 266 265 264 262 261 261 260 259 260 258 257 257 257 259 258 255 256 257 256 256 254 251 250 250 253 253 250 252 255 255 255
272 271 270 269 269 268 267 266 265 264 263 263 262 262 261 259 257 257 255 254 255 254 253 255 258 258 258 253 252 253 257 253 254 253 250 250 252 255 252 254 255 254 255
270 269 268 267 267 266 265 265 264 263 262 261 262 262 261 259 257 252 251 251 253 254 254 253 253 254 253 253 255 257 255 256 252 252 251 251 251 251 252 254 255 257 256
268 268 267 266 265 264 264 263 262 261 260 260 259 257 257 257 255 250 250 251 251 251 252 251 253 253 253 255 258 257 254 254 252 254 251 253 251 252 252 254 255 255 257

GFSGL_sfc_thetae_099.txt.gz
Theta_e
314 311 310 310 310 311 311 311 310 311 312 312 312 314 313 313 313 313 313 313 314 314 314 314 314 315 313 312 313 314 312 310 307 311 309 309 308 309 310 309 309 308 308
315 313 310 311 311 310 310 311 312 310 311 313 313 312 313 313 313 313 312 313 313 313 314 313 314 315 314 315 312 312 311 311 311 309 309 306 306 303 303 304 305 308 307
315 313 311 310 311 310 310 311 312 311 311 312 313 312 312 313 313 313 313 313 313 313 314 314 314 314 314 315 313 312 311 311 311 312 311 301 300 300 299 299 300 300 302
315 314 312 311 311 312 312 312 312 313 311 310 312 313 312 312 313 313 314 313 314 314 315 315 315 315 315 314 313 311 311 310 309 311 311 309 298 296 297 296 294 295 295
315 315 314 313 313 312 313 313 312 312 312 311 311 311 312 311 311 311 312 312 312 312 312 315 315 312 305 306 311 311 310 310 309 309 309 295 292 291 292 292 290 290 290
314 314 315 316 315 314 313 314 313 312 312 312 311 311 310 311 302 300 306 310 309 310 310 310 300 296 294 293 294 294 300 310 309 307 299 291 288 288 288 288 287 287 286
315 315 315 315 314 317 316 315 313 313 313 311 311 310 310 310 299 298 298 310 310 310 310 305 296 293 291 289 288 288 287 287 286 294 290 286 285 286 287 285 285 285 284
315 315 315 314 314 314 317 316 315 314 313 313 311 310 310 309 299 298 296 305 306 301 304 303 299 290 290 289 286 284 284 284 284 285 284 282 282 283 283 283 282 281 281
309 314 316 316 315 314 314 315 316 315 314 314 314 313 311 310 298 297 297 300 292 289 289 291 291 289 289 289 284 282 281 282 285 285 284 284 283 283 283 282 279 279 278
299 300 303 308 316 315 315 314 315 316 315 314 310 301 303 311 292 294 298 295 287 285 285 286 287 287 285 285 283 282 281 280 280 280 279 280 280 280 280 279 279 277 276
294 294 294 296 300 304 315 315 315 314 299 294 289 288 288 290 290 291 292 292 287 284 283 283 284 285 285 285 284 282 280 281 279 278 278 277 277 277 277 276 276 276 274
289 289 288 289 291 294 294 294 293 293 289 286 286 285 285 285 286 287 288 286 286 283 282 283 284 284 284 283 283 282 281 279 278 277 275 275 274 274 274 275 275 275 275
285 284 285 286 287 287 288 288 287 287 285 285 284 283 283 283 283 285 284 284 284 282 282 283 283 283 282 280 280 279 278 277 275 274 273 273 273 273 274 273 273 273 273
283 282 283 283 283 284 285 286 285 284 282 282 281 280 281 281 282 283 283 283 283 282 281 280 279 278 277 276 276 276 276 275 274 273 272 272 272 271 271 271 270 270 269
282 282 282 282 282 282 282 283 283 284 285 282 281 281 280 279 281 283 282 281 280 279 279 278 276 275 274 274 274 274 274 273 272 272 271 270 269 269 269 269 269 268 266
280 280 280 281 281 281 281 281 284 284 284 284 284 283 283 283 284 283 283 282 281 280 276 274 273 273 272 272 271 271 271 271 271 270 269 269 268 268 267 267 267 266 264
276 277 278 278 279 279 279 279 277 279 281 282 283 283 283 282 282 281 280 279 278 276 272 272 271 271 271 270 270 269 268 269 269 268 267 267 267 266 265 265 264 264 263
275 276 277 276 276 276 275 274 274 273 272 273 278 279 280 280 279 279 278 275 272 272 271 270 269 269 269 269 268 268 267 267 266 265 263 262 262 263 262 263 263 259 261
276 275 274 275 275 275 274 273 272 272 271 271 271 271 273 276 275 275 274 270 269 268 268 268 267 267 267 266 264 263 263 261 260 259 260 259 255 260 259 260 260 259 259
275 274 274 273 273 273 273 272 271 271 270 269 269 269 270 269 267 266 267 267 267 267 267 266 266 265 264 264 261 262 261 260 259 258 251 250 250 255 257 255 254 255 260
274 274 273 273 272 272 271 270 270 269 268 267 266 267 267 265 264 264 264 264 264 264 263 263 263 262 261 260 261 258 257 252 256 256 256 257 249 254 258 257 256 258 259
274 273 273 272 271 270 270 270 269 268 267 265 265 265 265 264 263 262 262 261 260 261 262 261 261 260 260 260 257 253 253 251 251 254 253 254 255 254 254 253 253 252 256
272 271 271 270 270 269 268 268 267 266 265 264 264 263 262 261 260 260 258 257 258 257 258 258 258 258 257 255 255 256 255 255 255 252 250 250 254 254 249 251 253 252 252
270 269 269 268 267 266 266 265 265 264 264 263 262 261 260 259 258 257 254 254 256 255 254 255 256 256 256 251 252 254 258 253 253 252 249 249 252 254 251 252 253 252 252
268 267 266 265 265 264 264 264 263 263 262 262 261 260 259 258 257 253 253 253 255 253 253 251 251 253 252 252 254 256 253 253 250 252 250 250 250 250 251 252 251 253 253
267 266 265 265 264 263 262 261 261 261 260 260 258 257 258 257 256 252 254 254 254 253 254 253 253 252 252 254 256 256 253 254 251 252 248 251 250 250 251 251 252 252 255

GFSGL_sfc_thetae_102.txt.gz
Theta_e
313 311 309 308 309 309 310 310 311 313 313 314 315 314 314 314 315 314 313 313 312 312 313 313 313 314 313 312 313 313 312 311 308 312 311 311 311 312 312 311 311 310 310
313 311 308 309 309 309 309 310 311 310 313 314 314 315 315 314 314 314 313 313 312 312 313 313 313 314 313 313 312 312 312 312 311 309 311 309 308 307 307 307 306 308 308
314 312 309 308 309 308 308 309 310 309 310 312 313 313 313 313 313 313 313 313 312 312 313 313 313 313 313 313 313 312 312 312 311 311 311 307 305 302 302 302 302 302 301
314 312 310 309 309 309 309 308 309 309 310 310 312 312 312 312 313 313 313 312 312 312 312 312 313 313 313 313 313 313 312 310 310 310 310 310 305 300 300 299 296 296 295
314 313 311 309 310 310 309 308 309 309 309 311 311 311 311 311 312 312 313 312 312 311 312 312 313 311 306 309 313 312 312 310 310 309 309 309 300 294 295 295 293 290 289
314 314 314 313 310 310 310 309 308 310 310 311 310 310 309 310 302 300 306 311 311 310 310 310 311 304 302 294 292 290 292 308 310 309 309 301 295 290 290 289 288 287 286
316 316 315 314 313 311 310 311 311 310 311 310 310 310 310 310 298 299 298 310 309 309 310 308 302 297 294 290 288 287 286 286 284 295 299 288 286 287 287 286 285 285 281
314 315 316 315 315 315 313 312 312 312 311 310 310 310 310 310 298 297 295 306 306 306 307 307 304 297 293 290 286 284 284 283 284 284 283 282 282 284 284 284 282 280 280
304 306 307 312 314 314 314 314 314 312 312 312 311 310 309 309 297 297 296 303 303 297 296 297 301 294 290 290 285 282 282 282 285 285 284 284 283 283 284 283 281 280 279
294 296 298 299 304 309 313 314 315 314 312 312 310 307 303 308 298 297 297 305 297 288 286 287 289 289 288 286 284 282 279 279 279 278 278 278 279 279 278 278 279 277 277
290 290 290 291 294 295 299 309 312 312 305 294 287 287 287 287 288 290 292 302 294 285 284 284 285 285 286 285 284 282 280 279 278 277 276 276 275 275 275 276 276 276 275
286 286 286 287 288 290 290 290 291 291 287 286 285 284 284 285 287 288 287 286 286 284 283 284 284 285 284 283 282 282 280 278 277 275 274 273 273 273 274 274 275 275 275
284 284 284 284 285 286 286 286 287 287 285 284 283 281 281 283 284 285 286 285 285 283 283 283 283 282 281 280 280 279 277 276 274 272 271 271 272 273 273 273 274 274 273
282 282 283 283 283 283 284 285 284 284 283 282 282 280 280 281 282 282 282 281 280 278 277 277 277 277 276 275 275 275 275 274 273 271 271 271 272 271 270 271 270 271 270
282 282 282 282 282 281 282 283 282 283 284 282 281 281 280 279 281 281 280 279 278 278 277 276 275 274 273 273 273 273 273 273 271 271 270 270 269 269 268 269 268 268 266
280 280 280 281 280 280 279 279 283 283 284 284 284 282 282 283 282 282 281 280 280 278 275 273 272 271 271 271 270 270 271 270 270 270 269 269 268 267 267 267 267 266 265
276 278 278 278 277 277 278 277 275 278 282 282 282 282 282 281 281 280 279 278 278 276 272 271 270 270 270 270 270 269 268 268 269 268 267 267 267 266 265 265 264 264 264
275 276 275 276 275 274 273 273 271 270 269 271 277 279 280 280 279 279 277 275 271 271 270 269 269 269 269 269 268 268 267 266 266 265 263 263 264 264 263 263 263 261 262
275 274 274 274 273 273 273 272 271 270 269 269 270 270 273 276 276 275 273 269 268 268 268 267 267 267 267 266 265 264 263 262 262 261 260 260 259 262 261 261 261 259 260
274 274 273 273 272 272 272 270 269 268 267 266 266 267 268 268 265 265 266 266 266 266 266 266 266 265 265 264 263 262 261 261 260 260 256 256 257 260 259 258 258 259 261
273 273 273 272 271 271 270 269 268 267 265 265 264 265 265 264 262 262 262 262 263 264 263 263 263 263 263 262 262 260 259 258 259 259 259 258 254 257 258 259 259 259 260
273 272 272 271 271 269 269 268 267 266 265 264 263 263 263 262 262 262 261 260 261 262 263 262 261 261 261 261 260 257 255 254 256 257 257 256 257 257 257 257 256 256 257
271 270 270 269 269 268 266 266 264 263 263 263 263 262 261 260 260 259 259 258 259 259 261 261 260 260 259 256 257 258 258 257 257 255 255 255 257 257 254 255 256 256 256
270 269 268 267 266 265 264 263 263 262 262 260 260 259 259 258 257 257 258 258 257 256 257 257 258 258 258 254 254 257 259 255 257 256 253 254 256 256 255 255 256 255 255
267 266 265 264 264 263 262 262 262 262 261 260 259 259 258 258 257 255 255 257 257 256 256 256 256 257 255 256 257 257 254 253 252 253 253 253 253 253 254 255 254 255 255
265 265 264 264 262 262 261 260 260 260 259 259 258 257 257 257 256 254 256 256 256 256 256 255 256 255 256 257 256 255 254 253 252 252 251 255 254 254 254 253 254 255 256

GFSGL_sfc_thetae_105.txt.gz
Theta_e
316 317 314 315 317 318 317 317 317 319 318 317 317 315 315 315 314 312 311 312 312 312 312 312 312 315 316 317 314 313 313 315 312 314 318 321 319 320 321 321 320 320 320
316 315 312 314 316 316 316 317 319 317 317 317 316 315 315 315 314 312 310 311 312 311 311 312 312 313 314 315 313 314 314 319 317 314 316 313 316 319 321 319 316 314 315
315 313 311 312 314 315 316 317 317 318 315 317 316 314 314 315 313 313 312 311 311 313 312 312 312 312 312 314 313 313 314 315 316 316 316 315 316 314 314 313 311 306 301
314 312 310 311 314 315 316 316 316 317 317 315 315 315 315 315 314 313 314 313 312 312 313 313 313 312 312 313 313 313 314 313 313 313 313 313 315 316 312 312 304 300 297
314 312 311 312 312 314 315 315 315 315 316 316 316 316 315 314 314 313 313 313 313 312 313 313 314 312 306 309 313 313 312 311 311 310 309 310 310 301 305 306 301 290 287
314 313 313 312 312 313 314 314 315 315 315 315 314 315 316 316 302 301 308 312 312 311 311 312 312 304 304 298 295 294 305 312 311 310 309 307 309 305 296 295 290 287 286
315 315 314 312 312 313 314 314 314 314 315 314 314 313 313 315 298 299 299 317 314 313 312 312 311 308 301 295 289 288 287 287 285 298 306 299 292 293 290 288 287 286 281
316 315 315 314 313 313 313 314 314 314 313 313 313 312 312 311 297 297 296 316 316 316 317 317 316 312 302 295 290 286 286 286 286 286 286 284 285 286 287 286 283 279 279
297 298 301 304 310 314 312 312 315 314 313 312 312 311 311 311 297 296 297 308 311 310 313 315 316 316 295 292 288 285 283 283 285 285 284 284 283 283 285 285 282 281 278
291 292 293 295 297 298 300 310 314 314 313 312 301 292 290 299 290 294 297 306 302 297 288 287 288 298 289 288 289 284 280 280 278 278 278 278 279 279 279 279 281 279 278
288 289 289 290 291 292 294 294 296 308 293 288 286 286 287 287 289 291 292 300 291 286 285 284 285 286 286 286 285 282 279 278 277 276 276 275 275 276 276 277 278 279 276
287 286 286 287 288 289 289 290 290 289 287 285 284 284 284 285 287 288 289 288 287 286 284 284 284 284 283 282 281 281 279 278 276 275 274 273 273 274 275 276 276 276 276
285 284 284 285 285 286 286 286 286 286 284 283 283 282 282 283 284 285 286 285 285 283 283 283 283 282 281 280 279 279 277 275 273 272 271 272 273 274 275 275 275 275 274
283 283 283 283 283 284 284 284 284 284 284 283 282 281 281 281 281 280 280 279 280 279 277 277 276 276 276 275 275 275 275 275 273 272 271 272 273 272 272 273 272 272 272
283 282 282 282 282 281 282 282 282 283 283 282 281 281 279 278 279 280 281 280 279 279 280 279 277 276 275 274 273 273 273 273 272 272 271 271 270 270 270 271 271 272 272
281 281 281 281 281 281 280 280 283 283 283 283 283 281 281 282 282 281 281 281 280 280 279 277 276 275 274 273 273 272 273 272 272 272 271 271 270 270 270 270 271 271 270
279 280 279 278 278 278 278 278 276 279 282 282 282 282 282 281 281 281 280 279 279 279 277 276 275 275 274 274 273 272 270 271 271 271 270 269 269 269 270 269 270 270 270
277 277 278 277 277 277 276 275 275 275 274 275 279 280 280 279 279 278 278 278 276 276 276 275 274 274 273 272 272 271 270 269 269 269 268 268 269 268 268 268 268 268 269
276 276 277 277 276 276 276 275 275 275 274 274 275 273 274 275 275 275 275 274 273 272 272 272 272 272 271 271 270 270 269 268 268 267 267 267 268 268 267 267 267 265 267
276 275 276 277 276 276 276 275 274 273 272 271 271 271 273 273 271 270 271 272 271 271 271 270 270 270 270 270 269 268 268 268 267 267 266 266 267 268 267 266 266 267 267
276 275 275 276 275 274 274 272 272 271 270 269 268 267 268 270 269 269 269 269 269 269 269 269 269 269 269 269 269 268 267 267 266 266 267 266 266 266 267 267 267 267 266
276 275 275 274 273 273 272 271 271 270 269 268 267 266 267 268 268 267 267 267 267 268 268 268 268 268 268 268 267 267 266 265 266 266 265 265 266 266 266 265 266 265 266
274 274 273 272 271 270 270 270 269 268 268 267 267 266 266 266 266 266 265 266 266 266 266 266 266 265 265 265 267 267 266 265 265 265 265 265 265 265 265 265 264 265 264
273 272 271 270 270 269 269 267 266 266 266 266 265 265 264 264 264 264 264 264 264 264 264 264 264 264 264 264 266 266 265 265 265 263 263 263 264 264 264 264 264 262 263
271 270 269 269 268 268 267 267 266 266 265 265 264 264 264 264 263 263 263 263 262 263 262 262 263 263 262 262 262 263 261 260 262 260 263 262 261 260 261 263 262 263 262
269 268 268 268 267 267 267 266 265 265 264 264 264 264 263 263 262 263 262 262 261 261 261 262 261 261 261 263 262 260 259 259 260 258 261 262 262 262 263 261 261 262 262

GFSGL_sfc_thetae_108.txt.gz
Theta_e
318 317 320 324 325 325 323 320 320 323 323 323 324 320 317 316 315 314 313 314 314 315 315 314 314 315 316 316 318 318 318 317 313 314 321 323 320 322 323 325 323 325 318
318 318 320 321 324 321 321 319 320 321 322 322 320 318 315 315 315 313 312 313 313 313 314 313 312 313 314 314 318 315 318 319 313 309 314 317 317 317 322 320 321 318 317
318 317 318 318 320 319 320 320 320 321 322 321 320 318 316 315 314 313 313 312 313 313 313 313 312 312 312 312 314 316 318 315 313 311 311 315 321 320 314 315 316 310 301
316 316 316 316 318 319 319 319 319 319 319 318 317 319 318 317 316 314 312 311 311 312 313 312 313 313 313 313 313 314 315 313 313 312 311 312 314 316 314 311 303 302 298
314 314 314 315 317 319 318 319 319 318 318 320 318 318 319 317 316 315 313 312 311 311 313 312 313 311 305 308 311 312 313 313 311 310 310 311 312 308 307 311 306 292 289
314 313 314 314 314 316 318 318 318 317 318 318 317 317 316 316 301 301 309 312 311 311 311 312 312 305 304 299 298 297 304 311 310 309 308 308 309 307 303 302 293 289 286
314 314 314 315 314 315 316 316 316 317 318 317 317 317 316 316 298 299 299 315 312 312 312 312 310 308 305 306 292 290 288 287 288 305 308 308 303 301 296 293 290 288 283
309 311 314 314 314 316 315 315 316 317 316 317 317 317 316 316 297 298 297 315 312 312 312 312 311 309 306 299 294 289 287 287 288 288 288 286 286 288 292 291 287 280 280
295 296 298 302 307 312 313 314 317 316 317 318 317 316 314 313 295 295 297 311 316 316 317 317 316 314 301 294 292 285 283 283 285 285 284 284 283 284 286 285 282 281 277
290 291 293 296 297 297 298 301 311 315 314 311 296 293 291 298 290 293 296 307 305 299 292 292 288 300 292 290 291 285 281 279 279 278 278 279 280 280 280 281 283 278 277
288 289 289 290 291 292 293 293 296 299 291 288 286 287 287 288 290 290 293 304 293 287 286 285 286 287 287 287 286 282 278 278 277 276 276 276 276 276 277 277 278 280 277
286 287 287 288 288 289 289 289 290 288 286 285 284 284 284 285 287 288 289 289 288 286 284 284 284 285 284 283 281 281 280 278 276 275 275 274 274 275 276 276 277 276 278
285 285 285 286 286 287 287 287 286 286 285 283 283 281 280 281 282 284 285 285 284 283 283 282 282 282 281 280 279 279 278 277 276 275 274 273 275 276 276 276 276 276 276
285 284 284 283 283 284 284 284 284 284 283 282 281 279 279 279 279 280 280 279 280 278 278 277 277 278 278 278 278 278 279 279 277 275 275 275 276 275 275 276 274 274 273
285 285 284 283 282 282 282 282 281 282 283 281 281 281 279 278 280 281 282 281 280 280 281 282 281 280 281 280 279 279 279 279 278 277 276 276 275 275 274 274 274 275 274
285 284 283 283 283 282 281 281 283 283 283 283 283 282 282 282 282 282 282 282 282 283 284 282 281 281 280 279 278 278 278 277 277 277 276 276 275 275 275 275 276 276 274
283 283 283 282 282 281 281 281 279 280 282 282 282 282 282 281 281 281 282 282 283 283 281 280 279 279 279 278 277 277 276 276 276 276 276 276 275 274 275 275 275 275 274
281 281 282 282 281 281 280 280 281 279 278 278 279 279 280 280 280 281 282 283 281 281 280 279 278 278 278 277 276 275 275 275 275 275 275 275 275 275 275 274 274 274 275
281 280 280 280 281 280 281 281 280 280 279 279 279 278 278 278 278 279 280 280 278 277 277 277 277 276 276 276 275 275 275 274 274 274 274 274 274 274 273 273 271 269 272
280 280 281 281 281 280 280 280 279 279 278 277 277 278 280 280 278 277 278 278 277 276 276 275 275 275 275 275 274 274 274 273 273 273 273 273 274 274 273 272 273 274 273
281 280 280 281 280 279 279 278 278 277 276 275 273 273 274 276 275 275 275 275 275 275 275 275 275 274 275 274 274 274 273 273 272 272 272 272 273 273 273 273 273 273 271
280 280 279 278 278 278 277 277 276 276 275 273 273 272 272 275 274 273 273 272 273 273 274 274 273 273 273 273 273 272 271 271 271 272 271 271 272 272 272 272 272 272 272
279 278 277 277 276 275 276 276 275 275 274 274 273 273 273 272 272 272 271 271 271 271 272 272 271 270 271 271 272 272 271 270 270 271 271 271 271 272 272 271 270 270 270
278 277 276 275 275 275 274 273 272 271 272 272 272 271 271 270 270 269 269 270 270 270 270 268 268 269 268 270 271 270 269 270 270 268 267 269 270 269 270 269 269 268 268
277 276 276 275 274 273 273 273 272 272 271 271 271 270 270 270 269 269 268 268 267 267 266 267 268 267 265 265 265 266 264 263 265 263 268 267 266 264 266 267 267 268 267
274 274 274 274 273 273 272 272 271 271 270 270 270 270 269 268 268 268 267 266 266 266 266 266 265 264 262 266 265 262 262 261 263 261 263 267 267 267 267 267 265 267 267

GFSGL_sfc_thetae_111.txt.gz
Theta_e
323 323 323 322 326 328 329 327 326 325 325 325 325 322 320 318 317 315 316 316 316 316 317 316 316 316 316 317 317 318 314 317 312 316 319 325 323 322 320 325 324 325 310
321 321 320 321 324 326 326 324 325 325 325 324 324 321 319 317 316 314 313 314 314 314 315 315 315 314 313 315 314 314 316 316 316 314 318 320 320 320 317 317 320 320 307
319 318 318 319 322 323 323 322 322 324 322 323 321 321 318 316 315 315 314 313 313 314 315 314 314 313 312 312 313 313 315 316 315 311 314 319 319 318 314 314 310 304 297
319 318 317 319 321 321 321 322 320 322 321 320 320 320 318 316 315 314 313 312 313 313 314 314 313 313 312 312 312 312 312 312 312 312 314 314 311 314 313 312 305 301 297
317 316 316 318 319 321 319 320 320 321 321 320 319 319 320 318 316 315 314 312 312 312 312 313 313 311 305 309 312 312 312 311 311 311 312 311 309 311 307 309 306 291 291
314 313 315 316 318 320 319 318 318 320 321 320 318 318 317 317 301 301 309 312 311 311 310 311 312 304 304 300 301 301 308 310 309 309 309 306 309 307 308 307 295 289 287
313 313 314 314 316 317 317 317 318 317 319 319 320 320 318 320 299 299 299 315 312 312 311 311 310 311 306 310 294 292 289 288 288 306 309 307 305 301 305 298 292 290 286
308 310 314 315 315 315 316 316 317 318 317 317 317 318 319 318 297 297 296 315 314 314 313 313 312 310 309 305 296 288 286 286 287 288 286 285 286 289 290 289 286 280 281
293 295 299 304 309 315 314 316 317 317 317 316 317 318 317 307 292 294 299 314 312 312 312 313 312 311 300 297 292 285 283 282 285 285 284 284 284 285 286 286 283 282 278
288 290 292 295 297 298 299 303 307 316 311 300 294 292 289 297 289 291 298 310 304 295 290 288 288 296 293 292 290 286 281 279 279 279 279 279 280 280 281 283 284 279 277
287 288 288 289 291 292 294 295 296 293 290 288 286 285 286 287 289 290 292 306 296 287 286 285 286 288 288 288 287 284 280 279 278 277 277 277 277 277 277 278 279 280 277
285 285 286 285 286 289 289 289 289 288 286 285 283 282 283 284 286 287 288 288 288 286 284 284 285 286 285 284 282 281 280 278 277 277 276 276 276 276 277 277 278 279 279
284 284 284 285 285 286 286 286 286 285 284 283 281 280 279 280 281 284 284 284 283 281 282 282 282 282 281 280 280 280 279 278 277 276 275 276 277 277 278 278 278 278 277
284 283 283 282 282 283 283 283 283 283 282 281 280 279 279 280 279 280 279 279 280 279 279 279 279 279 279 279 280 280 279 279 279 277 277 278 279 278 277 278 277 277 276
285 284 284 283 282 281 281 281 281 282 282 280 280 280 279 278 281 282 281 280 280 281 282 282 281 280 279 279 280 280 280 280 279 280 279 277 277 277 277 278 278 278 277
283 283 283 282 282 281 280 280 283 283 283 283 283 282 282 283 283 284 284 284 284 284 284 283 282 282 281 280 279 279 280 279 279 279 278 278 277 277 277 278 279 278 277
283 283 283 282 282 282 281 280 278 279 281 282 282 282 283 283 284 284 284 284 284 284 282 282 281 281 280 280 279 279 277 278 279 279 278 278 277 277 278 277 277 277 276
283 282 283 283 283 283 282 282 282 280 278 278 280 281 281 282 283 284 284 284 282 282 281 281 280 280 279 278 278 278 278 278 278 278 278 278 278 277 277 276 276 276 276
283 282 282 283 283 283 283 282 282 282 281 280 280 280 281 281 281 281 282 282 280 279 279 278 279 278 278 278 278 277 277 277 277 277 276 276 277 276 275 274 272 272 272
282 282 282 283 282 282 282 281 280 279 278 277 278 281 282 281 279 280 280 280 279 278 278 277 277 277 277 277 276 276 276 276 275 276 276 276 276 276 274 274 274 275 274
282 282 281 281 281 281 281 280 279 278 276 275 275 277 278 278 277 277 277 277 277 277 277 277 277 277 277 277 276 276 275 275 275 274 274 274 275 274 274 274 274 273 272
281 281 280 280 280 280 279 279 278 277 276 275 275 275 276 277 276 275 275 275 275 276 276 276 275 275 275 275 275 275 274 273 274 273 272 273 273 273 273 273 273 273 273
281 280 279 279 278 278 278 278 278 277 276 276 276 275 275 275 274 274 273 273 273 273 274 273 273 272 273 273 274 274 273 272 271 272 272 272 272 272 272 272 271 271 271
279 279 278 277 278 277 276 275 275 275 275 275 275 274 273 273 272 271 271 272 272 272 271 270 270 270 271 272 273 272 270 270 271 269 270 270 271 270 271 270 270 270 269
279 278 277 277 277 276 276 276 275 275 275 274 274 273 273 272 271 271 270 270 269 269 269 269 270 268 267 266 266 265 264 263 264 264 269 269 269 267 268 268 268 268 269
277 277 277 277 276 276 275 274 274 274 273 273 273 272 272 271 271 270 269 268 268 268 268 267 267 266 268 267 265 263 262 262 263 262 263 267 268 268 269 268 268 268 268

GFSGL_sfc_thetae_114.txt.gz
Theta_e
309 316 324 323 325 327 327 326 326 326 325 325 323 322 321 319 319 318 317 317 316 316 316 316 316 316 316 316 316 314 313 313 308 312 315 318 318 318 318 320 319 309 303
305 319 322 323 324 325 325 325 324 323 324 324 322 320 319 317 317 317 316 316 315 315 315 316 315 316 315 316 315 313 313 313 310 309 312 314 315 316 315 314 317 307 300
303 314 319 320 321 322 323 322 323 323 322 321 323 320 318 317 316 315 315 315 315 316 316 315 315 315 314 314 314 312 311 313 312 310 309 311 313 314 313 311 301 296 296
301 312 317 317 319 320 321 321 321 321 320 319 322 319 317 316 315 314 314 313 314 314 315 316 315 314 312 312 313 312 311 311 310 310 309 310 310 312 311 307 301 296 294
297 305 316 318 319 320 319 319 320 320 319 319 319 318 317 316 315 314 313 312 312 312 313 314 314 312 306 309 312 311 311 310 309 308 307 308 307 307 307 308 302 293 290
297 303 317 317 317 318 318 318 319 318 318 318 316 317 316 316 301 301 309 312 312 311 310 311 310 304 303 300 301 302 307 309 308 308 307 304 307 306 306 304 294 289 288
299 311 315 316 316 317 317 317 317 317 318 317 316 316 315 315 299 299 300 313 311 310 310 310 309 308 304 307 294 291 289 289 291 308 307 304 303 303 303 301 295 290 287
291 296 307 314 315 317 316 316 316 317 316 317 316 316 316 308 296 297 296 313 311 310 310 310 310 307 307 303 294 287 286 286 287 287 287 285 286 289 290 288 286 281 282
287 289 292 298 313 315 315 315 316 315 315 312 307 303 302 293 291 294 299 310 310 308 307 297 306 308 298 296 291 286 283 283 286 286 285 285 285 286 287 287 284 283 279
285 286 289 292 296 301 305 308 307 307 299 293 289 289 288 291 289 292 297 308 298 290 288 288 288 296 292 291 291 286 282 280 280 279 279 279 280 281 281 282 285 282 278
285 286 287 287 289 291 293 295 295 292 288 286 284 284 285 286 288 291 293 301 291 286 285 285 286 287 289 288 289 287 281 279 278 278 278 278 278 278 278 279 280 281 277
284 284 284 285 285 288 288 288 289 287 285 283 282 281 281 283 286 287 288 288 287 284 283 284 284 285 285 284 283 282 281 279 279 277 276 275 275 275 276 277 278 278 279
283 282 283 284 284 285 285 285 285 284 283 282 280 279 279 280 281 284 284 284 283 281 282 282 282 282 282 281 281 281 279 278 277 275 274 274 275 277 277 277 277 277 277
283 282 282 281 281 283 283 283 282 282 281 280 280 278 279 279 279 280 280 280 281 280 279 280 280 280 279 279 279 280 279 278 277 276 276 277 278 277 276 276 275 275 274
283 283 281 281 280 280 281 281 281 282 282 280 280 280 279 279 280 282 281 281 281 281 281 281 280 280 279 279 279 279 279 279 278 278 277 276 275 275 274 275 275 274 272
282 282 282 281 280 279 278 279 283 283 284 284 284 283 283 284 285 285 285 285 285 284 282 280 279 279 278 278 278 277 278 277 277 277 275 276 275 274 274 275 275 273 272
282 282 282 282 282 281 279 278 276 279 282 283 284 284 284 284 284 284 284 284 284 282 279 279 278 278 277 277 276 275 275 276 277 276 275 273 273 274 274 274 273 274 273
282 282 282 282 282 281 280 279 278 277 276 277 281 281 282 283 284 284 284 282 279 280 278 277 276 276 276 275 275 275 275 275 275 275 273 272 270 272 271 272 272 268 270
282 282 282 282 282 282 281 280 280 279 279 279 280 280 281 282 282 281 281 278 276 276 276 275 275 275 274 274 273 273 272 272 272 271 271 271 269 270 269 269 267 267 267
282 282 282 282 281 280 279 278 277 276 275 275 277 278 279 278 276 276 276 276 275 275 275 274 275 274 273 272 270 269 269 270 270 270 268 267 267 268 267 268 267 267 270
282 281 281 280 280 279 278 277 276 275 274 274 274 276 275 274 273 273 273 274 274 274 273 273 273 273 273 272 272 271 270 268 269 268 268 267 266 266 268 268 267 268 268
280 279 279 278 279 278 277 277 276 275 274 273 273 274 273 273 272 272 272 271 272 272 272 272 271 272 272 272 270 268 267 268 267 266 265 266 267 266 266 265 265 265 267
280 279 279 278 278 277 277 277 276 275 274 274 273 272 272 271 271 270 270 269 269 269 270 270 269 269 269 269 270 269 268 265 264 266 265 264 266 264 264 265 264 264 263
279 277 277 277 276 275 274 273 273 273 273 273 272 271 270 269 269 268 268 268 269 268 266 265 265 264 266 265 266 264 263 263 264 263 262 262 266 265 264 264 264 263 262
278 277 277 276 275 275 274 274 273 273 272 272 271 270 270 269 268 267 267 267 266 265 265 266 264 263 262 261 261 260 259 259 257 258 261 263 262 260 261 261 260 262 261
276 276 276 275 275 274 273 272 272 271 271 270 270 270 269 268 268 267 267 266 264 264 264 263 263 264 263 261 260 258 257 256 256 257 256 261 262 261 262 261 261 261 262

GFSGL_sfc_thetae_117.txt.gz
Theta_e
301 300 302 303 311 323 322 322 324 326 325 326 324 322 321 321 320 319 318 317 316 316 316 316 316 317 317 316 316 314 313 312 308 311 314 316 315 316 316 314 310 306 303
298 298 301 303 319 321 321 322 325 324 324 323 321 321 320 319 319 318 316 316 315 315 315 316 315 316 316 316 316 314 313 312 310 309 311 313 314 315 315 312 307 303 301
296 296 299 302 320 320 321 321 324 323 323 323 321 320 319 318 317 317 317 316 316 315 315 315 315 315 314 315 314 313 313 313 312 309 309 311 312 314 309 303 297 296 297
294 294 297 300 317 320 321 319 322 322 321 321 320 320 318 317 317 316 316 315 316 315 316 316 316 315 315 314 313 313 312 312 311 309 308 309 309 311 310 303 298 295 293
293 294 296 300 315 319 320 320 321 321 319 320 321 319 317 316 316 315 315 314 313 313 314 315 316 314 307 311 314 314 312 311 310 309 307 306 306 306 307 306 300 292 289
292 293 295 304 315 317 318 318 319 318 318 318 317 316 315 316 301 301 309 313 312 312 311 311 311 305 304 300 301 302 310 311 309 307 306 304 305 306 305 305 293 290 289
291 292 293 295 316 317 318 318 317 317 317 315 316 316 314 315 298 299 300 312 311 311 310 310 308 308 305 306 292 291 290 290 294 308 305 304 303 304 304 301 295 291 288
288 289 290 291 300 317 317 316 317 316 315 314 314 315 313 303 297 297 297 311 310 310 310 310 309 306 306 298 292 288 286 286 288 289 291 287 287 289 291 291 289 282 283
285 286 288 290 292 313 315 315 316 316 314 308 308 305 299 295 292 296 301 310 308 304 301 298 308 307 295 295 290 285 283 283 286 287 286 286 286 287 288 288 285 285 280
284 285 287 288 289 291 308 314 313 304 296 293 289 289 289 291 290 293 301 306 295 290 287 287 287 296 291 291 290 287 283 281 280 280 280 280 281 282 282 283 286 285 280
284 284 285 286 288 287 291 300 296 291 288 285 284 284 285 286 288 293 296 299 290 286 285 285 285 288 289 289 290 288 283 280 279 279 278 278 278 278 278 279 280 283 279
283 282 282 284 285 286 286 288 288 287 284 283 281 280 282 284 286 288 289 288 288 285 282 283 285 286 285 284 283 283 282 280 279 278 276 276 275 276 276 278 279 279 280
282 281 280 282 283 285 284 284 283 284 283 281 280 279 278 280 282 285 285 284 284 282 282 283 283 283 282 282 282 281 280 279 277 276 275 275 275 276 277 277 277 277 277
282 281 280 280 281 282 283 283 282 282 281 280 279 278 279 279 279 281 280 281 282 280 280 280 280 280 280 279 279 279 279 278 277 276 276 277 278 277 276 276 274 274 273
283 282 280 279 279 280 281 282 282 282 282 280 280 281 280 279 280 282 282 281 281 281 281 280 279 279 278 278 278 278 278 278 277 277 276 276 276 276 275 275 275 274 272
282 282 281 281 279 279 279 279 283 284 284 284 284 283 284 285 285 285 285 284 284 283 280 278 278 277 277 277 276 276 277 277 277 276 276 276 275 274 274 275 274 273 272
281 281 281 280 279 278 278 278 277 280 283 284 284 284 284 283 284 283 283 283 283 281 277 277 276 275 275 275 275 275 274 275 276 274 274 273 273 274 274 273 272 272 271
281 281 281 281 281 279 278 278 278 277 276 277 281 282 283 283 282 282 281 280 276 277 276 275 274 274 274 274 274 274 274 273 273 273 271 270 270 271 270 270 270 266 269
281 281 281 280 279 278 277 276 276 276 277 277 277 277 279 280 280 279 279 276 274 274 274 273 273 273 272 272 272 271 271 268 269 269 269 269 266 269 267 267 267 266 268
280 280 280 279 278 277 276 275 274 274 274 274 274 274 275 275 273 273 274 274 273 273 274 273 273 272 271 270 268 268 269 269 269 269 265 264 263 267 265 266 265 266 268
278 279 278 278 277 276 275 274 274 273 272 272 272 273 273 272 271 271 271 271 271 271 271 271 271 270 271 270 270 268 267 266 266 265 265 266 263 264 266 266 266 266 267
278 278 277 277 277 276 275 275 273 273 272 271 271 271 270 270 269 268 268 268 268 269 269 269 269 269 268 267 267 266 265 263 263 262 263 264 265 264 263 263 263 263 264
276 275 275 275 275 274 274 274 272 272 271 270 270 269 269 268 267 267 265 265 265 265 265 264 265 265 265 263 263 262 263 261 260 260 261 261 263 262 259 260 260 260 259
275 273 274 272 272 272 271 271 271 270 270 269 268 267 267 266 265 264 264 265 265 263 263 263 262 262 262 260 260 261 261 258 259 259 258 258 260 261 259 260 260 258 258
272 271 272 271 270 269 270 269 269 268 268 266 266 266 265 265 264 263 262 263 262 261 261 261 261 259 258 257 257 257 256 255 255 255 257 257 256 257 257 258 256 258 257
272 271 271 271 270 268 267 267 266 265 264 265 264 263 262 262 261 259 259 260 260 259 259 260 261 258 258 258 258 256 255 255 254 254 253 257 257 256 256 255 256 255 258

GFSGL_sfc_thetae_120.txt.gz
Theta_e
295 296 296 297 299 303 305 310 323 325 326 325 327 326 324 322 321 320 319 318 318 317 316 316 316 318 317 317 316 315 313 312 309 311 314 315 313 314 311 310 309 306 303
294 295 295 296 298 301 305 315 323 324 324 325 327 325 323 322 321 319 318 317 317 315 315 315 315 316 316 316 315 314 314 313 310 309 311 312 312 314 311 308 306 305 302
294 294 294 295 297 299 302 320 322 323 322 325 325 322 321 320 319 319 318 317 316 316 316 315 315 315 315 315 314 313 314 313 311 309 309 310 311 311 302 300 297 298 298
292 293 292 294 296 298 303 315 322 322 322 323 322 321 320 319 318 318 317 316 316 316 316 316 316 316 315 315 314 313 313 312 311 309 308 308 309 310 307 299 296 295 293
290 291 292 293 295 298 304 313 320 321 322 322 320 320 319 317 317 317 316 315 315 314 315 315 316 314 308 311 314 313 313 312 310 309 306 306 306 307 306 304 297 291 290
288 289 290 292 294 296 300 314 319 319 321 321 319 317 316 316 301 302 310 314 314 313 313 314 314 306 305 300 301 302 309 312 310 309 308 306 305 307 306 304 292 290 289
287 287 289 290 291 294 296 315 318 318 318 318 317 316 315 315 299 299 300 313 312 312 311 311 309 310 306 307 292 292 291 292 296 311 309 308 304 305 305 301 295 292 291
285 285 287 288 289 292 295 303 317 317 316 316 315 315 314 307 297 297 297 311 310 310 310 310 309 306 303 298 292 288 287 287 289 292 300 290 291 294 301 299 293 284 284
283 283 284 286 287 290 291 294 317 316 315 315 314 311 306 298 294 295 302 308 307 303 301 297 308 306 293 294 290 285 284 284 287 288 287 287 287 288 289 290 286 287 281
283 282 283 284 285 287 289 290 315 310 299 296 291 292 292 294 292 295 303 304 295 290 288 289 288 299 290 290 291 288 284 281 281 281 281 281 282 283 283 286 289 287 281
283 282 282 283 284 286 288 288 294 292 290 287 285 285 286 287 290 293 296 299 291 286 285 285 286 289 290 290 290 289 285 281 280 280 279 279 279 279 279 281 282 285 282
282 280 280 282 283 284 285 285 286 287 285 284 284 282 283 285 287 290 291 290 288 285 283 284 285 287 286 286 284 283 282 281 280 279 278 276 276 276 277 278 279 280 281
281 280 280 281 282 283 283 283 283 284 283 283 283 280 279 282 284 285 286 285 284 283 283 284 284 284 283 283 283 282 281 280 279 277 275 275 276 276 277 277 278 278 278
281 280 280 279 280 282 283 283 282 281 281 281 280 279 280 280 280 281 282 282 282 281 280 280 280 280 279 279 279 279 279 279 278 276 276 276 277 277 275 276 275 275 275
281 281 280 280 279 280 281 282 282 283 283 281 281 281 280 279 281 282 282 281 281 281 281 280 279 279 278 278 278 278 278 278 277 277 276 276 276 275 275 276 275 274 273
281 280 279 279 279 279 280 280 283 283 284 284 284 283 283 284 284 284 284 284 283 282 279 277 277 277 276 276 276 276 277 277 277 277 276 276 275 275 274 274 274 273 272
280 280 280 279 279 278 278 278 277 279 282 283 283 283 283 283 282 282 282 281 281 279 276 275 275 275 275 276 275 275 274 275 276 276 275 274 274 274 274 273 272 272 271
280 280 279 278 277 276 276 276 277 276 274 275 279 280 281 281 281 280 280 279 276 276 275 274 274 274 275 274 274 274 274 273 273 273 272 272 272 272 271 270 269 267 270
280 279 278 277 276 276 276 275 275 275 275 274 275 275 277 279 278 278 278 275 273 273 273 273 273 273 273 273 272 272 271 270 270 270 269 269 266 269 268 268 268 267 268
277 277 277 276 275 275 274 274 274 273 272 272 271 272 273 273 271 271 272 273 273 273 273 272 272 272 271 271 270 270 270 270 269 268 265 265 265 267 266 265 265 267 267
276 276 275 276 275 274 274 273 273 272 271 270 270 270 270 270 268 269 269 269 270 270 270 270 270 270 270 269 269 268 266 265 266 266 267 265 265 265 266 265 265 266 266
276 276 276 275 275 274 273 273 272 271 271 269 269 269 269 268 267 267 266 266 266 266 268 267 266 265 265 266 266 264 263 262 262 264 264 264 264 263 264 263 263 262 264
274 273 273 273 273 272 272 271 270 269 268 268 268 267 267 266 265 265 264 264 264 264 264 265 264 263 262 261 262 262 262 260 259 258 262 262 262 262 260 260 260 258 258
273 272 272 271 271 270 269 269 268 268 267 266 265 265 264 264 263 263 263 262 262 261 261 261 260 260 260 259 259 260 258 256 258 258 257 259 261 261 259 259 258 255 255
272 272 270 268 268 266 267 267 266 266 265 265 264 263 263 263 263 261 261 260 260 260 259 259 258 257 256 255 256 256 255 255 254 254 257 258 258 257 257 256 254 257 255
270 270 269 268 267 266 265 264 263 264 263 262 261 259 258 259 259 257 258 259 260 260 259 256 257 257 256 257 257 255 254 254 254 252 253 257 257 255 255 254 254 254 256

GFSGL_sfc_thetae_123.txt.gz
Theta_e
293 294 294 294 295 297 298 301 304 309 313 324 324 324 325 324 323 322 322 320 319 318 318 317 317 318 317 317 317 316 313 314 310 310 314 314 314 316 311 310 309 307 303
292 292 293 294 295 295 297 300 304 308 314 322 325 324 325 323 322 321 320 319 318 317 316 316 316 317 316 317 316 315 314 313 311 309 311 312 312 311 309 308 306 305 304
290 291 292 292 293 294 295 298 302 305 318 321 325 324 324 323 322 321 320 318 318 317 317 316 316 316 315 316 316 315 315 314 312 311 309 310 311 306 300 300 298 297 298
289 289 290 291 291 292 294 297 301 306 318 322 323 324 323 323 322 320 319 317 317 317 316 316 316 315 315 315 314 314 313 312 312 311 309 309 309 307 304 297 294 295 292
288 287 289 290 291 292 294 296 299 305 317 322 322 323 322 321 320 319 318 317 316 315 315 315 316 314 307 311 314 313 312 312 311 309 309 306 307 305 303 301 295 291 290
287 286 288 288 289 290 292 295 298 301 316 320 321 321 319 319 303 303 311 316 315 314 313 313 314 306 305 300 302 302 309 311 310 309 309 308 308 309 305 301 292 290 289
286 286 286 287 287 288 290 293 296 298 313 319 320 320 318 318 300 300 301 316 314 313 313 313 312 311 306 309 295 296 292 294 296 311 308 308 306 309 307 299 295 293 291
284 284 284 285 285 287 289 291 293 297 307 317 318 318 317 314 298 298 298 314 313 312 312 312 311 309 308 300 295 289 287 288 290 296 307 298 300 305 308 304 296 285 285
282 282 282 283 284 285 287 288 291 294 300 316 317 315 314 306 296 296 303 310 309 306 305 305 309 306 293 295 291 286 285 284 288 288 288 288 288 289 293 295 289 289 283
281 281 282 282 283 284 285 287 289 292 304 299 293 298 298 300 294 295 304 304 297 292 290 290 288 299 290 290 291 289 285 283 283 284 283 283 284 285 285 287 293 291 281
282 280 280 282 283 284 284 286 287 288 289 288 287 287 287 291 294 296 297 301 293 288 287 286 286 289 290 290 291 290 287 283 281 281 281 280 280 280 280 282 283 287 285
282 279 279 281 282 283 283 284 285 285 286 285 285 285 285 285 290 292 293 291 290 288 284 285 286 288 287 287 285 284 283 282 282 280 279 277 277 277 278 279 281 282 283
279 278 278 279 281 281 282 282 283 283 282 282 284 284 282 283 285 286 287 286 285 284 284 285 285 285 284 283 283 283 282 281 280 278 276 275 276 277 278 279 279 279 279
278 278 278 278 279 280 281 282 281 282 282 281 281 281 281 281 281 281 282 283 283 281 280 280 280 280 280 279 279 280 279 280 278 277 276 276 277 276 276 277 277 277 276
280 278 278 278 278 279 280 280 280 281 282 281 281 281 281 280 282 283 282 280 280 281 281 280 279 279 278 278 278 278 278 278 277 277 276 275 275 276 275 276 276 276 274
279 278 278 278 278 278 278 278 281 281 282 283 283 281 281 283 283 283 283 283 282 281 279 277 276 276 276 276 276 276 277 277 277 276 276 276 275 275 274 275 275 274 272
278 278 277 277 277 276 276 276 275 277 279 280 281 281 282 282 282 282 281 281 280 279 276 275 275 275 275 275 275 275 275 276 277 276 276 275 275 275 274 274 273 272 271
278 276 275 275 275 275 275 275 275 273 273 273 277 278 280 280 280 280 280 278 275 275 274 273 273 274 274 274 274 274 274 274 274 274 273 273 273 273 272 271 271 270 270
277 276 275 274 275 275 275 274 273 272 272 271 272 273 274 277 277 277 277 274 273 272 273 272 273 273 272 272 271 271 271 270 271 270 270 270 270 271 269 270 270 269 270
275 275 275 275 274 273 273 273 272 271 270 269 269 269 271 271 269 269 270 271 271 271 271 271 271 271 271 271 271 271 270 270 269 268 267 266 267 268 268 268 268 268 268
274 275 274 274 273 273 272 272 271 270 269 268 267 268 269 268 267 267 267 267 268 268 268 268 268 268 269 268 269 268 267 267 268 268 267 267 266 267 267 267 266 267 267
273 273 273 273 273 271 271 270 269 269 268 268 267 267 267 266 266 265 265 265 265 266 266 265 264 264 264 264 266 265 264 264 265 266 266 266 266 266 266 265 264 264 265
273 271 271 271 271 270 269 269 267 266 266 265 265 265 265 264 264 264 263 263 263 263 264 263 263 262 262 262 262 262 262 261 262 263 264 264 265 263 262 262 262 261 259
272 270 271 269 268 268 267 266 266 265 264 263 263 263 262 262 261 261 261 262 261 261 260 260 260 260 260 259 259 261 260 259 261 261 262 263 263 262 261 260 259 254 254
270 270 268 267 266 265 265 265 264 264 263 262 262 262 262 262 261 259 260 260 260 259 258 258 259 258 257 257 257 257 256 255 256 257 259 260 259 258 257 257 254 256 254
269 269 268 267 266 265 263 263 262 262 262 261 260 260 260 260 260 259 260 259 259 258 257 257 257 257 257 257 257 256 254 254 254 253 254 258 257 256 256 254 254 254 255